Wetterdaten: Montag, 11.12.2017
Datum Zeit Temp. A. Pool Temp. Feuchte A. Luftdruck Regen Wind Richtung Richtung Sonnenschein ET UV Solar Taupunkt Windchill Windben Empfang
11.12.2017 00:00 -0,6 C 3,9 C 96 % 993,5 hPa 0,0 l/m 3,5 km/h (1 Bft) NO 49 0 min 0,000 mm 0,0 UV-I 0 W/m -1,2 C -0,6 C 4,8 km/h (1 Bft) 89,36 %
11.12.2017 00:02 -0,6 C 3,9 C 96 % 993,3 hPa 0,0 l/m 2,7 km/h (1 Bft) O-NO 59 0 min 0,000 mm 0,0 UV-I 0 W/m -1,2 C -0,6 C 9,7 km/h (2 Bft) 93,02 %
11.12.2017 00:04 -0,6 C 3,9 C 97 % 992,7 hPa 0,0 l/m 13,1 km/h (3 Bft) O-NO 78 0 min 0,000 mm 0,0 UV-I 0 W/m -1,0 C -6,5 C 17,7 km/h (3 Bft) 95,74 %
11.12.2017 00:06 -0,6 C 3,9 C 96 % 993,0 hPa 0,0 l/m 8,2 km/h (2 Bft) O 89 0 min 0,000 mm 0,0 UV-I 0 W/m -1,2 C -2,5 C 16,1 km/h (3 Bft) 95,45 %
11.12.2017 00:08 -0,6 C 3,9 C 97 % 993,4 hPa 0,0 l/m 1,6 km/h (1 Bft) S-SO 161 0 min 0,000 mm 0,0 UV-I 0 W/m -1,0 C -0,6 C 6,4 km/h (2 Bft) 96,00 %
11.12.2017 00:10 -0,4 C 3,9 C 97 % 993,3 hPa 0,0 l/m 0,8 km/h (0 Bft) S-SO 161 0 min 0,000 mm 0,0 UV-I 0 W/m -0,8 C -0,4 C 6,4 km/h (2 Bft) 95,74 %
11.12.2017 00:12 -0,3 C 3,9 C 97 % 993,3 hPa 0,0 l/m 0,6 km/h (0 Bft) S-SO 159 0 min 0,000 mm 0,0 UV-I 0 W/m -0,7 C -0,3 C 3,2 km/h (1 Bft) 100,00 %
11.12.2017 00:14 -0,3 C 3,9 C 97 % 993,2 hPa 0,0 l/m 3,1 km/h (1 Bft) N-NO 26 0 min 0,000 mm 0,0 UV-I 0 W/m -0,7 C -0,3 C 6,4 km/h (2 Bft) 94,34 %
11.12.2017 00:16 -0,4 C 3,9 C 97 % 993,0 hPa 0,0 l/m 6,6 km/h (2 Bft) O-NO 57 0 min 0,000 mm 0,0 UV-I 0 W/m -0,8 C -0,6 C 8,0 km/h (2 Bft) 98,00 %
11.12.2017 00:18 -0,3 C 3,9 C 97 % 993,0 hPa 0,0 l/m 6,6 km/h (2 Bft) NO 53 0 min 0,000 mm 0,0 UV-I 0 W/m -0,7 C -0,5 C 8,0 km/h (2 Bft) 97,87 %
11.12.2017 00:20 -0,4 C 3,9 C 97 % 992,8 hPa 0,0 l/m 6,8 km/h (2 Bft) NO 40 0 min 0,000 mm 0,0 UV-I 0 W/m -0,8 C -0,8 C 9,7 km/h (2 Bft) 97,37 %
11.12.2017 00:22 -0,3 C 3,9 C 97 % 992,8 hPa 0,0 l/m 7,5 km/h (2 Bft) NO 39 0 min 0,000 mm 0,0 UV-I 0 W/m -0,7 C -1,5 C 11,3 km/h (2 Bft) 98,00 %
11.12.2017 00:24 -0,2 C 3,9 C 97 % 992,7 hPa 0,0 l/m 5,8 km/h (2 Bft) NO 50 0 min 0,000 mm 0,0 UV-I 0 W/m -0,6 C -0,2 C 9,7 km/h (2 Bft) 97,87 %
11.12.2017 00:26 -0,2 C 3,9 C 97 % 992,8 hPa 0,0 l/m 0,9 km/h (0 Bft) NO 49 0 min 0,000 mm 0,0 UV-I 0 W/m -0,6 C -0,2 C 1,6 km/h (1 Bft) 100,00 %
11.12.2017 00:28 -0,3 C 3,9 C 97 % 992,8 hPa 0,0 l/m 1,4 km/h (1 Bft) N-NO 14 0 min 0,000 mm 0,0 UV-I 0 W/m -0,7 C -0,3 C 3,2 km/h (1 Bft) 100,00 %
11.12.2017 00:30 -0,3 C 3,9 C 96 % 992,8 hPa 0,0 l/m 4,0 km/h (1 Bft) N-NO 21 0 min 0,000 mm 0,0 UV-I 0 W/m -0,9 C -0,3 C 6,4 km/h (2 Bft) 100,00 %
11.12.2017 00:32 -0,3 C 3,9 C 96 % 992,8 hPa 0,0 l/m 1,7 km/h (1 Bft) N-NO 20 0 min 0,000 mm 0,0 UV-I 0 W/m -0,9 C -0,3 C 4,8 km/h (1 Bft) 100,00 %
11.12.2017 00:34 -0,3 C 3,9 C 96 % 992,7 hPa 0,0 l/m 3,8 km/h (1 Bft) O-SO 103 0 min 0,000 mm 0,0 UV-I 0 W/m -0,9 C -0,3 C 6,4 km/h (2 Bft) 100,00 %
11.12.2017 00:36 -0,3 C 3,9 C 96 % 992,5 hPa 0,0 l/m 4,1 km/h (1 Bft) O 101 0 min 0,000 mm 0,0 UV-I 0 W/m -0,9 C -0,3 C 6,4 km/h (2 Bft) 100,00 %
11.12.2017 00:38 -0,3 C 3,9 C 97 % 992,5 hPa 0,0 l/m 3,3 km/h (1 Bft) O-NO 63 0 min 0,000 mm 0,0 UV-I 0 W/m -0,7 C -0,3 C 6,4 km/h (2 Bft) 100,00 %
11.12.2017 00:40 -0,2 C 3,9 C 96 % 992,5 hPa 0,0 l/m 5,5 km/h (1 Bft) O-NO 69 0 min 0,000 mm 0,0 UV-I 0 W/m -0,8 C -0,2 C 8,0 km/h (2 Bft) 100,00 %
11.12.2017 00:42 -0,2 C 3,9 C 96 % 992,6 hPa 0,0 l/m 5,1 km/h (1 Bft) NO 38 0 min 0,000 mm 0,0 UV-I 0 W/m -0,8 C -0,2 C 8,0 km/h (2 Bft) 100,00 %
11.12.2017 00:44 -0,2 C 3,9 C 96 % 992,6 hPa 0,0 l/m 6,1 km/h (2 Bft) NO 53 0 min 0,000 mm 0,0 UV-I 0 W/m -0,8 C -0,2 C 8,0 km/h (2 Bft) 100,00 %
11.12.2017 00:46 -0,2 C 3,9 C 96 % 992,6 hPa 0,0 l/m 7,9 km/h (2 Bft) NO 55 0 min 0,000 mm 0,0 UV-I 0 W/m -0,8 C -1,8 C 9,7 km/h (2 Bft) 100,00 %
11.12.2017 00:48 -0,2 C 3,9 C 96 % 992,5 hPa 0,0 l/m 7,6 km/h (2 Bft) NO 54 0 min 0,000 mm 0,0 UV-I 0 W/m -0,8 C -1,5 C 9,7 km/h (2 Bft) 100,00 %
11.12.2017 00:50 -0,2 C 3,9 C 96 % 992,5 hPa 0,0 l/m 6,7 km/h (2 Bft) O-NO 59 0 min 0,000 mm 0,0 UV-I 0 W/m -0,8 C -0,5 C 9,7 km/h (2 Bft) 97,44 %
11.12.2017 00:52 -0,3 C 3,9 C 96 % 992,5 hPa 0,0 l/m 4,5 km/h (1 Bft) N-NO 25 0 min 0,000 mm 0,0 UV-I 0 W/m -0,9 C -0,3 C 6,4 km/h (2 Bft) 100,00 %
11.12.2017 00:54 -0,4 C 3,9 C 96 % 992,5 hPa 0,0 l/m 5,4 km/h (1 Bft) N-NO 29 0 min 0,000 mm 0,0 UV-I 0 W/m -1,0 C -0,4 C 8,0 km/h (2 Bft) 100,00 %
11.12.2017 00:56 -0,4 C 3,9 C 96 % 992,6 hPa 0,0 l/m 6,4 km/h (2 Bft) N-NO 21 0 min 0,000 mm 0,0 UV-I 0 W/m -1,0 C -0,4 C 9,7 km/h (2 Bft) 100,00 %
11.12.2017 00:58 -0,4 C 3,9 C 96 % 992,6 hPa 0,0 l/m 6,2 km/h (2 Bft) NO 52 0 min 0,000 mm 0,0 UV-I 0 W/m -1,0 C -0,4 C 9,7 km/h (2 Bft) 96,00 %
11.12.2017 01:00 -0,4 C 3,9 C 96 % 992,5 hPa 0,0 l/m 6,3 km/h (2 Bft) NO 43 0 min 0,000 mm 0,0 UV-I 0 W/m -1,0 C -0,4 C 8,0 km/h (2 Bft) 100,00 %
11.12.2017 01:02 -0,3 C 3,9 C 96 % 992,4 hPa 0,0 l/m 7,8 km/h (2 Bft) O-NO 61 0 min 0,000 mm 0,0 UV-I 0 W/m -0,9 C -1,8 C 9,7 km/h (2 Bft) 100,00 %
11.12.2017 01:04 -0,3 C 3,9 C 96 % 992,4 hPa 0,0 l/m 7,6 km/h (2 Bft) NO 49 0 min 0,000 mm 0,0 UV-I 0 W/m -0,9 C -1,6 C 9,7 km/h (2 Bft) 100,00 %
11.12.2017 01:06 -0,3 C 3,9 C 96 % 992,4 hPa 0,0 l/m 6,0 km/h (2 Bft) O-NO 71 0 min 0,000 mm 0,0 UV-I 0 W/m -0,9 C -0,3 C 8,0 km/h (2 Bft) 100,00 %
11.12.2017 01:08 -0,3 C 3,9 C 96 % 992,4 hPa 0,0 l/m 7,7 km/h (2 Bft) O-NO 75 0 min 0,000 mm 0,0 UV-I 0 W/m -0,9 C -1,7 C 11,3 km/h (2 Bft) 100,00 %
11.12.2017 01:10 -0,4 C 3,9 C 96 % 992,2 hPa 0,0 l/m 7,6 km/h (2 Bft) NO 54 0 min 0,000 mm 0,0 UV-I 0 W/m -1,0 C -1,7 C 12,9 km/h (3 Bft) 98,11 %
11.12.2017 01:12 -0,4 C 3,9 C 96 % 992,1 hPa 0,0 l/m 7,5 km/h (2 Bft) NO 49 0 min 0,000 mm 0,0 UV-I 0 W/m -1,0 C -1,6 C 9,7 km/h (2 Bft) 100,00 %
11.12.2017 01:14 -0,4 C 3,9 C 96 % 992,2 hPa 0,0 l/m 6,0 km/h (2 Bft) NO 54 0 min 0,000 mm 0,0 UV-I 0 W/m -1,0 C -0,4 C 8,0 km/h (2 Bft) 100,00 %
11.12.2017 01:16 -0,4 C 3,9 C 96 % 992,2 hPa 0,0 l/m 6,6 km/h (2 Bft) O-NO 77 0 min 0,000 mm 0,0 UV-I 0 W/m -1,0 C -0,6 C 9,7 km/h (2 Bft) 98,00 %
11.12.2017 01:18 -0,4 C 3,9 C 96 % 992,2 hPa 0,0 l/m 6,9 km/h (2 Bft) O-NO 66 0 min 0,000 mm 0,0 UV-I 0 W/m -1,0 C -0,9 C 9,7 km/h (2 Bft) 100,00 %
11.12.2017 01:20 -0,3 C 3,9 C 96 % 992,2 hPa 0,0 l/m 5,5 km/h (1 Bft) O-NO 67 0 min 0,000 mm 0,0 UV-I 0 W/m -0,9 C -0,3 C 6,4 km/h (2 Bft) 98,21 %
11.12.2017 01:22 -0,3 C 3,9 C 96 % 992,1 hPa 0,0 l/m 5,5 km/h (1 Bft) NO 49 0 min 0,000 mm 0,0 UV-I 0 W/m -0,9 C -0,3 C 8,0 km/h (2 Bft) 100,00 %
11.12.2017 01:24 -0,2 C 3,9 C 96 % 992,0 hPa 0,0 l/m 4,4 km/h (1 Bft) NO 44 0 min 0,000 mm 0,0 UV-I 0 W/m -0,8 C -0,2 C 6,4 km/h (2 Bft) 100,00 %
11.12.2017 01:26 -0,3 C 3,9 C 96 % 992,0 hPa 0,0 l/m 3,3 km/h (1 Bft) NO 51 0 min 0,000 mm 0,0 UV-I 0 W/m -0,9 C -0,3 C 8,0 km/h (2 Bft) 100,00 %
11.12.2017 01:28 -0,4 C 3,9 C 96 % 992,0 hPa 0,0 l/m 4,7 km/h (1 Bft) NO 38 0 min 0,000 mm 0,0 UV-I 0 W/m -1,0 C -0,4 C 6,4 km/h (2 Bft) 100,00 %
11.12.2017 01:30 -0,4 C 3,9 C 96 % 992,0 hPa 0,0 l/m 5,3 km/h (1 Bft) O-NO 58 0 min 0,000 mm 0,0 UV-I 0 W/m -1,0 C -0,4 C 8,0 km/h (2 Bft) 100,00 %
11.12.2017 01:32 -0,4 C 3,9 C 96 % 991,9 hPa 0,0 l/m 6,5 km/h (2 Bft) O-NO 64 0 min 0,000 mm 0,0 UV-I 0 W/m -1,0 C -0,5 C 8,0 km/h (2 Bft) 100,00 %
11.12.2017 01:34 -0,5 C 3,9 C 96 % 991,8 hPa 0,0 l/m 7,3 km/h (2 Bft) O 82 0 min 0,000 mm 0,0 UV-I 0 W/m -1,1 C -1,5 C 11,3 km/h (2 Bft) 100,00 %
11.12.2017 01:36 -0,5 C 3,9 C 96 % 991,9 hPa 0,0 l/m 2,9 km/h (1 Bft) O 93 0 min 0,000 mm 0,0 UV-I 0 W/m -1,1 C -0,5 C 6,4 km/h (2 Bft) 100,00 %
11.12.2017 01:38 -0,4 C 3,9 C 96 % 992,0 hPa 0,0 l/m 1,5 km/h (1 Bft) O 90 0 min 0,000 mm 0,0 UV-I 0 W/m -1,0 C -0,4 C 4,8 km/h (1 Bft) 100,00 %
11.12.2017 01:40 -0,6 C 3,9 C 96 % 992,0 hPa 0,0 l/m 1,3 km/h (1 Bft) O 90 0 min 0,000 mm 0,0 UV-I 0 W/m -1,2 C -0,6 C 3,2 km/h (1 Bft) 96,23 %
11.12.2017 01:42 -0,8 C 3,9 C 95 % 991,8 hPa 0,0 l/m 0,5 km/h (0 Bft) O 90 0 min 0,000 mm 0,0 UV-I 0 W/m -1,5 C -0,8 C 1,6 km/h (1 Bft) 100,00 %
11.12.2017 01:44 -0,9 C 3,9 C 95 % 991,8 hPa 0,0 l/m 2,3 km/h (1 Bft) O-NO 78 0 min 0,000 mm 0,0 UV-I 0 W/m -1,6 C -0,9 C 6,4 km/h (2 Bft) 96,00 %
11.12.2017 01:46 -0,7 C 3,9 C 96 % 991,8 hPa 0,0 l/m 4,6 km/h (1 Bft) O-NO 71 0 min 0,000 mm 0,0 UV-I 0 W/m -1,3 C -0,7 C 8,0 km/h (2 Bft) 97,87 %
11.12.2017 01:48 -0,4 C 3,9 C 96 % 991,6 hPa 0,0 l/m 5,6 km/h (1 Bft) O-NO 59 0 min 0,000 mm 0,0 UV-I 0 W/m -1,0 C -0,4 C 8,0 km/h (2 Bft) 98,21 %
11.12.2017 01:50 -0,4 C 3,9 C 96 % 991,6 hPa 0,0 l/m 3,3 km/h (1 Bft) O-NO 64 0 min 0,000 mm 0,0 UV-I 0 W/m -1,0 C -0,4 C 6,4 km/h (2 Bft) 97,87 %
11.12.2017 01:52 -0,6 C 3,9 C 96 % 991,6 hPa 0,0 l/m 1,7 km/h (1 Bft) O-NO 64 0 min 0,000 mm 0,0 UV-I 0 W/m -1,2 C -0,6 C 3,2 km/h (1 Bft) 97,56 %
11.12.2017 01:54 -0,8 C 3,9 C 95 % 991,5 hPa 0,0 l/m 2,3 km/h (1 Bft) O-NO 64 0 min 0,000 mm 0,0 UV-I 0 W/m -1,5 C -0,8 C 3,2 km/h (1 Bft) 94,74 %
11.12.2017 01:56 -0,9 C 3,9 C 96 % 991,5 hPa 0,0 l/m 3,1 km/h (1 Bft) O-NO 64 0 min 0,000 mm 0,0 UV-I 0 W/m -1,5 C -0,9 C 4,8 km/h (1 Bft) 96,00 %
11.12.2017 01:58 -0,9 C 3,9 C 96 % 991,5 hPa 0,0 l/m 2,3 km/h (1 Bft) O-NO 64 0 min 0,000 mm 0,0 UV-I 0 W/m -1,5 C -0,9 C 3,2 km/h (1 Bft) 93,62 %
11.12.2017 02:00 -0,9 C 3,9 C 96 % 991,6 hPa 0,0 l/m 2,5 km/h (1 Bft) O-NO 64 0 min 0,000 mm 0,0 UV-I 0 W/m -1,5 C -0,9 C 3,2 km/h (1 Bft) 97,87 %
11.12.2017 02:02 -0,8 C 3,9 C 96 % 991,6 hPa 0,0 l/m 3,4 km/h (1 Bft) O-NO 64 0 min 0,000 mm 0,0 UV-I 0 W/m -1,4 C -0,8 C 4,8 km/h (1 Bft) 96,00 %
11.12.2017 02:04 -0,8 C 3,9 C 96 % 991,5 hPa 0,0 l/m 3,5 km/h (1 Bft) O-NO 64 0 min 0,000 mm 0,0 UV-I 0 W/m -1,4 C -0,8 C 4,8 km/h (1 Bft) 97,87 %
11.12.2017 02:06 -0,8 C 3,9 C 96 % 991,6 hPa 0,0 l/m 2,4 km/h (1 Bft) O-NO 64 0 min 0,000 mm 0,0 UV-I 0 W/m -1,4 C -0,8 C 4,8 km/h (1 Bft) 98,00 %
11.12.2017 02:08 -0,8 C 3,9 C 96 % 991,7 hPa 0,0 l/m 1,7 km/h (1 Bft) O-NO 64 0 min 0,000 mm 0,0 UV-I 0 W/m -1,4 C -0,8 C 3,2 km/h (1 Bft) 97,56 %
11.12.2017 02:10 -0,8 C 3,9 C 96 % 991,8 hPa 0,0 l/m 1,0 km/h (0 Bft) O-NO 64 0 min 0,000 mm 0,0 UV-I 0 W/m -1,4 C -0,8 C 3,2 km/h (1 Bft) 96,00 %
11.12.2017 02:12 -0,8 C 3,9 C 96 % 991,9 hPa 0,0 l/m 0,1 km/h (0 Bft) O-NO 64 0 min 0,000 mm 0,0 UV-I 0 W/m -1,4 C -0,8 C 1,6 km/h (1 Bft) 98,00 %
11.12.2017 02:14 -0,8 C 3,9 C 96 % 992,0 hPa 0,0 l/m 0,0 km/h (0 Bft) O-NO 64 0 min 0,000 mm 0,0 UV-I 0 W/m -1,4 C -0,8 C 0,0 km/h (0 Bft) 98,00 %
11.12.2017 02:16 -0,8 C 3,9 C 96 % 992,1 hPa 0,0 l/m 0,0 km/h (0 Bft) O-NO 64 0 min 0,000 mm 0,0 UV-I 0 W/m -1,4 C -0,8 C 0,0 km/h (0 Bft) 95,74 %
11.12.2017 02:18 -0,8 C 3,9 C 96 % 992,2 hPa 0,0 l/m 0,5 km/h (0 Bft) O-NO 64 0 min 0,000 mm 0,0 UV-I 0 W/m -1,4 C -0,8 C 1,6 km/h (1 Bft) 97,22 %
11.12.2017 02:20 -0,8 C 3,9 C 96 % 992,1 hPa 0,0 l/m 0,5 km/h (0 Bft) O-NO 64 0 min 0,000 mm 0,0 UV-I 0 W/m -1,4 C -0,8 C 1,6 km/h (1 Bft) 96,43 %
11.12.2017 02:22 -0,9 C 3,9 C 96 % 991,9 hPa 0,0 l/m 0,0 km/h (0 Bft) O-NO 64 0 min 0,000 mm 0,0 UV-I 0 W/m -1,5 C -0,9 C 0,0 km/h (0 Bft) 100,00 %
11.12.2017 02:24 -1,1 C 3,9 C 96 % 991,8 hPa 0,0 l/m 0,7 km/h (0 Bft) O-NO 64 0 min 0,000 mm 0,0 UV-I 0 W/m -1,7 C -1,1 C 3,2 km/h (1 Bft) 98,46 %
11.12.2017 02:26 -1,1 C 3,9 C 96 % 991,9 hPa 0,0 l/m 0,0 km/h (0 Bft) O-NO 64 0 min 0,000 mm 0,0 UV-I 0 W/m -1,7 C -1,1 C 1,6 km/h (1 Bft) 100,00 %
11.12.2017 02:28 -1,1 C 3,9 C 96 % 992,0 hPa 0,0 l/m 0,0 km/h (0 Bft) O-NO 64 0 min 0,000 mm 0,0 UV-I 0 W/m -1,7 C -1,1 C 0,0 km/h (0 Bft) 97,37 %
11.12.2017 02:30 -0,9 C 3,9 C 96 % 992,0 hPa 0,0 l/m 0,0 km/h (0 Bft) O-NO 64 0 min 0,000 mm 0,0 UV-I 0 W/m -1,5 C -0,9 C 1,6 km/h (1 Bft) 100,00 %
11.12.2017 02:32 -0,9 C 3,9 C 96 % 992,0 hPa 0,0 l/m 0,0 km/h (0 Bft) O-NO 64 0 min 0,000 mm 0,0 UV-I 0 W/m -1,5 C -0,9 C 1,6 km/h (1 Bft) 98,11 %
11.12.2017 02:34 -1,0 C 3,9 C 96 % 991,9 hPa 0,0 l/m 2,3 km/h (1 Bft) O-NO 64 0 min 0,000 mm 0,0 UV-I 0 W/m -1,6 C -1,0 C 3,2 km/h (1 Bft) 100,00 %
11.12.2017 02:36 -1,0 C 3,9 C 96 % 992,0 hPa 0,0 l/m 1,1 km/h (1 Bft) O-NO 64 0 min 0,000 mm 0,0 UV-I 0 W/m -1,6 C -1,0 C 3,2 km/h (1 Bft) 100,00 %
11.12.2017 02:38 -1,0 C 3,9 C 96 % 991,9 hPa 0,0 l/m 2,5 km/h (1 Bft) O-NO 64 0 min 0,000 mm 0,0 UV-I 0 W/m -1,6 C -1,0 C 4,8 km/h (1 Bft) 98,11 %
11.12.2017 02:40 -1,0 C 3,9 C 96 % 991,9 hPa 0,0 l/m 0,2 km/h (0 Bft) O-NO 64 0 min 0,000 mm 0,0 UV-I 0 W/m -1,6 C -1,0 C 1,6 km/h (1 Bft) 100,00 %
11.12.2017 02:42 -1,1 C 3,9 C 96 % 991,9 hPa 0,0 l/m 0,0 km/h (0 Bft) O-NO 64 0 min 0,000 mm 0,0 UV-I 0 W/m -1,7 C -1,1 C 1,6 km/h (1 Bft) 100,00 %
11.12.2017 02:44 -1,2 C 3,9 C 96 % 991,9 hPa 0,0 l/m 0,1 km/h (0 Bft) O-NO 64 0 min 0,000 mm 0,0 UV-I 0 W/m -1,8 C -1,2 C 1,6 km/h (1 Bft) 100,00 %
11.12.2017 02:46 -1,3 C 3,9 C 96 % 991,9 hPa 0,0 l/m 0,0 km/h (0 Bft) O-NO 64 0 min 0,000 mm 0,0 UV-I 0 W/m -1,9 C -1,3 C 0,0 km/h (0 Bft) 100,00 %
11.12.2017 02:48 -1,5 C 3,9 C 96 % 991,8 hPa 0,0 l/m 0,4 km/h (0 Bft) NO 47 0 min 0,000 mm 0,0 UV-I 0 W/m -2,1 C -1,5 C 1,6 km/h (1 Bft) 100,00 %
11.12.2017 02:50 -1,6 C 3,9 C 96 % 991,8 hPa 0,0 l/m 1,6 km/h (1 Bft) N-NO 28 0 min 0,000 mm 0,0 UV-I 0 W/m -2,2 C -1,6 C 3,2 km/h (1 Bft) 98,00 %
11.12.2017 02:52 -1,6 C 3,9 C 96 % 991,8 hPa 0,0 l/m 4,8 km/h (1 Bft) NO 38 0 min 0,000 mm 0,0 UV-I 0 W/m -2,2 C -1,6 C 6,4 km/h (2 Bft) 100,00 %
11.12.2017 02:54 -1,5 C 3,9 C 96 % 991,9 hPa 0,0 l/m 2,2 km/h (1 Bft) NO 38 0 min 0,000 mm 0,0 UV-I 0 W/m -2,1 C -1,5 C 4,8 km/h (1 Bft) 100,00 %
11.12.2017 02:56 -1,5 C 3,9 C 97 % 991,8 hPa 0,0 l/m 3,9 km/h (1 Bft) NO 52 0 min 0,000 mm 0,0 UV-I 0 W/m -1,9 C -1,5 C 4,8 km/h (1 Bft) 100,00 %
11.12.2017 02:58 -1,5 C 3,9 C 97 % 991,8 hPa 0,0 l/m 3,5 km/h (1 Bft) NO 51 0 min 0,000 mm 0,0 UV-I 0 W/m -1,9 C -1,5 C 4,8 km/h (1 Bft) 100,00 %
11.12.2017 03:00 -1,4 C 3,9 C 97 % 991,9 hPa 0,0 l/m 3,0 km/h (1 Bft) NO 51 0 min 0,000 mm 0,0 UV-I 0 W/m -1,8 C -1,4 C 4,8 km/h (1 Bft) 100,00 %
11.12.2017 03:02 -1,4 C 3,9 C 97 % 992,0 hPa 0,0 l/m 3,1 km/h (1 Bft) NO 51 0 min 0,000 mm 0,0 UV-I 0 W/m -1,8 C -1,4 C 4,8 km/h (1 Bft) 100,00 %
11.12.2017 03:04 -1,4 C 3,9 C 97 % 992,1 hPa 0,0 l/m 3,3 km/h (1 Bft) NO 51 0 min 0,000 mm 0,0 UV-I 0 W/m -1,8 C -1,4 C 4,8 km/h (1 Bft) 100,00 %
11.12.2017 03:06 -1,4 C 3,9 C 97 % 992,1 hPa 0,0 l/m 3,6 km/h (1 Bft) NO 51 0 min 0,000 mm 0,0 UV-I 0 W/m -1,8 C -1,4 C 4,8 km/h (1 Bft) 100,00 %
11.12.2017 03:08 -1,3 C 3,9 C 97 % 992,1 hPa 0,0 l/m 4,0 km/h (1 Bft) NO 51 0 min 0,000 mm 0,0 UV-I 0 W/m -1,7 C -1,3 C 4,8 km/h (1 Bft) 100,00 %
11.12.2017 03:10 -1,3 C 3,9 C 97 % 992,1 hPa 0,0 l/m 4,4 km/h (1 Bft) NO 40 0 min 0,000 mm 0,0 UV-I 0 W/m -1,7 C -1,3 C 6,4 km/h (2 Bft) 100,00 %
11.12.2017 03:12 -1,2 C 3,9 C 97 % 992,1 hPa 0,0 l/m 3,6 km/h (1 Bft) NO 40 0 min 0,000 mm 0,0 UV-I 0 W/m -1,6 C -1,2 C 4,8 km/h (1 Bft) 98,00 %
11.12.2017 03:14 -1,2 C 3,9 C 97 % 992,1 hPa 0,0 l/m 2,6 km/h (1 Bft) NO 40 0 min 0,000 mm 0,0 UV-I 0 W/m -1,6 C -1,2 C 4,8 km/h (1 Bft) 100,00 %
11.12.2017 03:16 -1,1 C 3,9 C 97 % 992,1 hPa 0,0 l/m 3,4 km/h (1 Bft) NO 40 0 min 0,000 mm 0,0 UV-I 0 W/m -1,5 C -1,1 C 4,8 km/h (1 Bft) 100,00 %
11.12.2017 03:18 -1,1 C 3,9 C 97 % 992,0 hPa 0,0 l/m 3,1 km/h (1 Bft) NO 40 0 min 0,000 mm 0,0 UV-I 0 W/m -1,5 C -1,1 C 4,8 km/h (1 Bft) 98,11 %
11.12.2017 03:20 -1,1 C 3,9 C 97 % 992,1 hPa 0,0 l/m 2,0 km/h (1 Bft) NO 40 0 min 0,000 mm 0,0 UV-I 0 W/m -1,5 C -1,1 C 3,2 km/h (1 Bft) 97,73 %
11.12.2017 03:22 -1,1 C 3,9 C 97 % 992,2 hPa 0,0 l/m 2,9 km/h (1 Bft) NO 40 0 min 0,000 mm 0,0 UV-I 0 W/m -1,5 C -1,1 C 4,8 km/h (1 Bft) 96,00 %
11.12.2017 03:24 -1,1 C 3,9 C 97 % 992,1 hPa 0,0 l/m 1,6 km/h (1 Bft) NO 40 0 min 0,000 mm 0,0 UV-I 0 W/m -1,5 C -1,1 C 3,2 km/h (1 Bft) 95,74 %
11.12.2017 03:26 -1,2 C 3,9 C 97 % 992,1 hPa 0,0 l/m 2,5 km/h (1 Bft) NO 40 0 min 0,000 mm 0,0 UV-I 0 W/m -1,6 C -1,2 C 4,8 km/h (1 Bft) 97,56 %
11.12.2017 03:28 -1,1 C 3,9 C 97 % 992,1 hPa 0,0 l/m 2,8 km/h (1 Bft) NO 40 0 min 0,000 mm 0,0 UV-I 0 W/m -1,5 C -1,1 C 4,8 km/h (1 Bft) 95,74 %
11.12.2017 03:30 -1,1 C 3,9 C 97 % 992,2 hPa 0,0 l/m 2,5 km/h (1 Bft) NO 40 0 min 0,000 mm 0,0 UV-I 0 W/m -1,5 C -1,1 C 4,8 km/h (1 Bft) 97,22 %
11.12.2017 03:32 -0,9 C 3,9 C 97 % 992,3 hPa 0,0 l/m 2,8 km/h (1 Bft) NO 40 0 min 0,000 mm 0,0 UV-I 0 W/m -1,3 C -0,9 C 4,8 km/h (1 Bft) 98,00 %
11.12.2017 03:34 -0,9 C 3,9 C 97 % 992,4 hPa 0,0 l/m 3,1 km/h (1 Bft) NO 40 0 min 0,000 mm 0,0 UV-I 0 W/m -1,3 C -0,9 C 4,8 km/h (1 Bft) 98,21 %
11.12.2017 03:36 -0,9 C 3,9 C 97 % 992,4 hPa 0,0 l/m 2,3 km/h (1 Bft) NO 40 0 min 0,000 mm 0,0 UV-I 0 W/m -1,3 C -0,9 C 4,8 km/h (1 Bft) 97,87 %
11.12.2017 03:38 -0,8 C 3,9 C 97 % 992,4 hPa 0,0 l/m 2,8 km/h (1 Bft) NO 40 0 min 0,000 mm 0,0 UV-I 0 W/m -1,2 C -0,8 C 4,8 km/h (1 Bft) 97,87 %
11.12.2017 03:40 -0,8 C 3,9 C 97 % 992,4 hPa 0,0 l/m 1,4 km/h (1 Bft) NO 40 0 min 0,000 mm 0,0 UV-I 0 W/m -1,2 C -0,8 C 3,2 km/h (1 Bft) 97,87 %
11.12.2017 03:42 -0,8 C 3,9 C 97 % 992,6 hPa 0,0 l/m 0,0 km/h (0 Bft) NO 40 0 min 0,000 mm 0,0 UV-I 0 W/m -1,2 C -0,8 C 0,0 km/h (0 Bft) 98,00 %
11.12.2017 03:44 -1,1 C 3,9 C 96 % 992,6 hPa 0,0 l/m 1,8 km/h (1 Bft) NO 40 0 min 0,000 mm 0,0 UV-I 0 W/m -1,7 C -1,1 C 3,2 km/h (1 Bft) 96,00 %
11.12.2017 03:46 -1,2 C 3,9 C 96 % 992,7 hPa 0,0 l/m 1,4 km/h (1 Bft) NO 40 0 min 0,000 mm 0,0 UV-I 0 W/m -1,8 C -1,2 C 3,2 km/h (1 Bft) 94,74 %
11.12.2017 03:48 -1,2 C 3,9 C 96 % 992,6 hPa 0,0 l/m 0,7 km/h (0 Bft) NO 40 0 min 0,000 mm 0,0 UV-I 0 W/m -1,8 C -1,2 C 1,6 km/h (1 Bft) 96,43 %
11.12.2017 03:50 -1,3 C 3,9 C 96 % 992,5 hPa 0,0 l/m 0,2 km/h (0 Bft) NO 40 0 min 0,000 mm 0,0 UV-I 0 W/m -1,9 C -1,3 C 1,6 km/h (1 Bft) 97,87 %
11.12.2017 03:52 -1,4 C 3,9 C 96 % 992,4 hPa 0,0 l/m 0,0 km/h (0 Bft) NO 40 0 min 0,000 mm 0,0 UV-I 0 W/m -2,0 C -1,4 C 0,0 km/h (0 Bft) 95,74 %
11.12.2017 03:54 -1,4 C 3,9 C 96 % 992,4 hPa 0,0 l/m 0,0 km/h (0 Bft) NO 40 0 min 0,000 mm 0,0 UV-I 0 W/m -2,0 C -1,4 C 0,0 km/h (0 Bft) 94,74 %
11.12.2017 03:56 -1,5 C 3,9 C 96 % 992,4 hPa 0,0 l/m 0,0 km/h (0 Bft) NO 40 0 min 0,000 mm 0,0 UV-I 0 W/m -2,1 C -1,5 C 0,0 km/h (0 Bft) 93,62 %
11.12.2017 03:58 -1,4 C 3,9 C 96 % 992,4 hPa 0,0 l/m 0,1 km/h (0 Bft) NO 40 0 min 0,000 mm 0,0 UV-I 0 W/m -2,0 C -1,4 C 1,6 km/h (1 Bft) 96,00 %
11.12.2017 04:00 -1,4 C 3,9 C 97 % 992,4 hPa 0,0 l/m 0,0 km/h (0 Bft) NO 40 0 min 0,000 mm 0,0 UV-I 0 W/m -1,8 C -1,4 C 0,0 km/h (0 Bft) 95,74 %
11.12.2017 04:02 -1,3 C 3,9 C 97 % 992,4 hPa 0,0 l/m 0,0 km/h (0 Bft) NO 40 0 min 0,000 mm 0,0 UV-I 0 W/m -1,7 C -1,3 C 0,0 km/h (0 Bft) 89,66 %
11.12.2017 04:04 -1,3 C 3,9 C 97 % 992,4 hPa 0,0 l/m 0,9 km/h (0 Bft) NO 40 0 min 0,000 mm 0,0 UV-I 0 W/m -1,7 C -1,3 C 1,6 km/h (1 Bft) 95,12 %
11.12.2017 04:06 -1,4 C 3,9 C 97 % 992,4 hPa 0,0 l/m 1,4 km/h (1 Bft) NO 40 0 min 0,000 mm 0,0 UV-I 0 W/m -1,8 C -1,4 C 3,2 km/h (1 Bft) 93,62 %
11.12.2017 04:08 -1,4 C 3,9 C 97 % 992,5 hPa 0,0 l/m 2,4 km/h (1 Bft) NO 40 0 min 0,000 mm 0,0 UV-I 0 W/m -1,8 C -1,4 C 3,2 km/h (1 Bft) 92,45 %
11.12.2017 04:10 -1,4 C 3,9 C 97 % 992,6 hPa 0,0 l/m 2,9 km/h (1 Bft) NO 40 0 min 0,000 mm 0,0 UV-I 0 W/m -1,8 C -1,4 C 3,2 km/h (1 Bft) 97,44 %
11.12.2017 04:12 -1,4 C 3,9 C 97 % 992,6 hPa 0,0 l/m 1,6 km/h (1 Bft) NO 40 0 min 0,000 mm 0,0 UV-I 0 W/m -1,8 C -1,4 C 3,2 km/h (1 Bft) 94,00 %
11.12.2017 04:14 -1,3 C 3,9 C 97 % 992,5 hPa 0,0 l/m 1,6 km/h (1 Bft) NO 40 0 min 0,000 mm 0,0 UV-I 0 W/m -1,7 C -1,3 C 3,2 km/h (1 Bft) 96,00 %
11.12.2017 04:16 -1,4 C 3,9 C 97 % 992,5 hPa 0,0 l/m 0,0 km/h (0 Bft) NO 40 0 min 0,000 mm 0,0 UV-I 0 W/m -1,8 C -1,4 C 1,6 km/h (1 Bft) 93,62 %
11.12.2017 04:18 -1,3 C 3,9 C 97 % 992,7 hPa 0,0 l/m 1,6 km/h (1 Bft) NO 40 0 min 0,000 mm 0,0 UV-I 0 W/m -1,7 C -1,3 C 3,2 km/h (1 Bft) 94,00 %
11.12.2017 04:20 -1,3 C 3,9 C 97 % 992,7 hPa 0,0 l/m 2,8 km/h (1 Bft) NO 40 0 min 0,000 mm 0,0 UV-I 0 W/m -1,7 C -1,3 C 3,2 km/h (1 Bft) 95,12 %
11.12.2017 04:22 -1,2 C 3,9 C 97 % 992,4 hPa 0,0 l/m 1,6 km/h (1 Bft) NO 40 0 min 0,000 mm 0,0 UV-I 0 W/m -1,6 C -1,2 C 3,2 km/h (1 Bft) 93,18 %
11.12.2017 04:24 -1,3 C 3,9 C 97 % 992,4 hPa 0,0 l/m 1,8 km/h (1 Bft) NO 40 0 min 0,000 mm 0,0 UV-I 0 W/m -1,7 C -1,3 C 3,2 km/h (1 Bft) 96,00 %
11.12.2017 04:26 -1,3 C 3,9 C 97 % 992,4 hPa 0,0 l/m 0,6 km/h (0 Bft) NO 51 0 min 0,000 mm 0,0 UV-I 0 W/m -1,7 C -1,3 C 3,2 km/h (1 Bft) 95,74 %
11.12.2017 04:28 -1,4 C 3,9 C 97 % 992,3 hPa 0,0 l/m 0,0 km/h (0 Bft) NO 51 0 min 0,000 mm 0,0 UV-I 0 W/m -1,8 C -1,4 C 0,0 km/h (0 Bft) 97,87 %
11.12.2017 04:30 -1,5 C 3,9 C 97 % 992,4 hPa 0,0 l/m 1,2 km/h (1 Bft) NO 50 0 min 0,000 mm 0,0 UV-I 0 W/m -1,9 C -1,5 C 3,2 km/h (1 Bft) 100,00 %
11.12.2017 04:32 -1,4 C 3,9 C 97 % 992,4 hPa 0,0 l/m 2,1 km/h (1 Bft) NO 50 0 min 0,000 mm 0,0 UV-I 0 W/m -1,8 C -1,4 C 3,2 km/h (1 Bft) 98,00 %
11.12.2017 04:34 -1,4 C 3,9 C 97 % 992,4 hPa 0,0 l/m 3,1 km/h (1 Bft) NO 51 0 min 0,000 mm 0,0 UV-I 0 W/m -1,8 C -1,4 C 4,8 km/h (1 Bft) 97,37 %
11.12.2017 04:36 -1,4 C 3,9 C 97 % 992,6 hPa 0,0 l/m 3,0 km/h (1 Bft) NO 51 0 min 0,000 mm 0,0 UV-I 0 W/m -1,8 C -1,4 C 4,8 km/h (1 Bft) 100,00 %
11.12.2017 04:38 -1,4 C 3,9 C 97 % 992,7 hPa 0,0 l/m 2,4 km/h (1 Bft) NO 51 0 min 0,000 mm 0,0 UV-I 0 W/m -1,8 C -1,4 C 4,8 km/h (1 Bft) 97,56 %
11.12.2017 04:40 -1,4 C 3,9 C 97 % 992,6 hPa 0,0 l/m 1,7 km/h (1 Bft) NO 51 0 min 0,000 mm 0,0 UV-I 0 W/m -1,8 C -1,4 C 3,2 km/h (1 Bft) 98,11 %
11.12.2017 04:42 -1,4 C 3,9 C 97 % 992,4 hPa 0,0 l/m 0,9 km/h (0 Bft) NO 51 0 min 0,000 mm 0,0 UV-I 0 W/m -1,8 C -1,4 C 3,2 km/h (1 Bft) 98,00 %
11.12.2017 04:44 -1,4 C 3,9 C 97 % 992,3 hPa 0,0 l/m 0,0 km/h (0 Bft) NO 51 0 min 0,000 mm 0,0 UV-I 0 W/m -1,8 C -1,4 C 0,0 km/h (0 Bft) 100,00 %
11.12.2017 04:46 -1,4 C 3,9 C 97 % 992,3 hPa 0,0 l/m 0,0 km/h (0 Bft) NO 51 0 min 0,000 mm 0,0 UV-I 0 W/m -1,8 C -1,4 C 0,0 km/h (0 Bft) 100,00 %
11.12.2017 04:48 -1,5 C 3,9 C 97 % 992,3 hPa 0,0 l/m 0,0 km/h (0 Bft) NO 51 0 min 0,000 mm 0,0 UV-I 0 W/m -1,9 C -1,5 C 0,0 km/h (0 Bft) 100,00 %
11.12.2017 04:50 -1,6 C 3,9 C 97 % 992,3 hPa 0,0 l/m 0,8 km/h (0 Bft) O-NO 71 0 min 0,000 mm 0,0 UV-I 0 W/m -2,0 C -1,6 C 1,6 km/h (1 Bft) 100,00 %
11.12.2017 04:52 -1,6 C 3,9 C 97 % 992,2 hPa 0,0 l/m 2,7 km/h (1 Bft) O-NO 72 0 min 0,000 mm 0,0 UV-I 0 W/m -2,0 C -1,6 C 4,8 km/h (1 Bft) 100,00 %
11.12.2017 04:54 -1,6 C 3,9 C 97 % 992,2 hPa 0,0 l/m 2,1 km/h (1 Bft) O 92 0 min 0,000 mm 0,0 UV-I 0 W/m -2,0 C -1,6 C 4,8 km/h (1 Bft) 100,00 %
11.12.2017 04:56 -1,7 C 3,9 C 97 % 992,0 hPa 0,0 l/m 5,1 km/h (1 Bft) O-SO 105 0 min 0,000 mm 0,0 UV-I 0 W/m -2,1 C -1,7 C 6,4 km/h (2 Bft) 100,00 %
11.12.2017 04:58 -1,7 C 3,9 C 97 % 992,0 hPa 0,0 l/m 2,6 km/h (1 Bft) O-SO 115 0 min 0,000 mm 0,0 UV-I 0 W/m -2,1 C -1,7 C 4,8 km/h (1 Bft) 98,00 %
11.12.2017 05:00 -1,6 C 3,9 C 97 % 992,0 hPa 0,0 l/m 2,4 km/h (1 Bft) O-SO 115 0 min 0,000 mm 0,0 UV-I 0 W/m -2,0 C -1,6 C 3,2 km/h (1 Bft) 100,00 %
11.12.2017 05:02 -1,6 C 3,9 C 97 % 991,9 hPa 0,0 l/m 1,7 km/h (1 Bft) O-SO 115 0 min 0,000 mm 0,0 UV-I 0 W/m -2,0 C -1,6 C 3,2 km/h (1 Bft) 100,00 %
11.12.2017 05:04 -1,4 C 3,9 C 97 % 992,0 hPa 0,0 l/m 0,7 km/h (0 Bft) O-SO 115 0 min 0,000 mm 0,0 UV-I 0 W/m -1,8 C -1,4 C 1,6 km/h (1 Bft) 97,87 %
11.12.2017 05:06 -1,4 C 3,9 C 97 % 992,2 hPa 0,0 l/m 0,8 km/h (0 Bft) O-SO 115 0 min 0,000 mm 0,0 UV-I 0 W/m -1,8 C -1,4 C 3,2 km/h (1 Bft) 97,56 %
11.12.2017 05:08 -1,4 C 3,9 C 97 % 992,1 hPa 0,0 l/m 0,1 km/h (0 Bft) O-SO 115 0 min 0,000 mm 0,0 UV-I 0 W/m -1,8 C -1,4 C 1,6 km/h (1 Bft) 100,00 %
11.12.2017 05:10 -1,4 C 3,9 C 97 % 992,0 hPa 0,0 l/m 2,9 km/h (1 Bft) O-SO 114 0 min 0,000 mm 0,0 UV-I 0 W/m -1,8 C -1,4 C 4,8 km/h (1 Bft) 100,00 %
11.12.2017 05:12 -1,4 C 3,9 C 97 % 992,0 hPa 0,0 l/m 0,9 km/h (0 Bft) O-SO 114 0 min 0,000 mm 0,0 UV-I 0 W/m -1,8 C -1,4 C 3,2 km/h (1 Bft) 100,00 %
11.12.2017 05:14 -1,4 C 3,9 C 97 % 992,0 hPa 0,0 l/m 1,9 km/h (1 Bft) O-SO 114 0 min 0,000 mm 0,0 UV-I 0 W/m -1,8 C -1,4 C 3,2 km/h (1 Bft) 98,53 %
11.12.2017 05:16 -1,4 C 3,9 C 97 % 992,0 hPa 0,0 l/m 0,8 km/h (0 Bft) O-SO 114 0 min 0,000 mm 0,0 UV-I 0 W/m -1,8 C -1,4 C 3,2 km/h (1 Bft) 100,00 %
11.12.2017 05:18 -1,5 C 3,9 C 97 % 991,9 hPa 0,0 l/m 1,5 km/h (1 Bft) O-SO 114 0 min 0,000 mm 0,0 UV-I 0 W/m -1,9 C -1,5 C 3,2 km/h (1 Bft) 96,00 %
11.12.2017 05:20 -1,6 C 3,9 C 97 % 991,8 hPa 0,0 l/m 2,5 km/h (1 Bft) O-SO 119 0 min 0,000 mm 0,0 UV-I 0 W/m -2,0 C -1,6 C 4,8 km/h (1 Bft) 100,00 %
11.12.2017 05:22 -1,4 C 3,9 C 96 % 991,9 hPa 0,0 l/m 3,3 km/h (1 Bft) O-SO 119 0 min 0,000 mm 0,0 UV-I 0 W/m -2,0 C -1,4 C 4,8 km/h (1 Bft) 100,00 %
11.12.2017 05:24 -1,2 C 3,9 C 97 % 991,7 hPa 0,0 l/m 4,7 km/h (1 Bft) O 86 0 min 0,000 mm 0,0 UV-I 0 W/m -1,6 C -1,2 C 9,7 km/h (2 Bft) 100,00 %
11.12.2017 05:26 -1,1 C 3,9 C 97 % 991,6 hPa 0,0 l/m 6,3 km/h (2 Bft) O 81 0 min 0,000 mm 0,0 UV-I 0 W/m -1,5 C -1,1 C 9,7 km/h (2 Bft) 100,00 %
11.12.2017 05:28 -0,7 C 3,9 C 97 % 991,6 hPa 0,0 l/m 2,7 km/h (1 Bft) O-NO 71 0 min 0,000 mm 0,0 UV-I 0 W/m -1,1 C -0,7 C 8,0 km/h (2 Bft) 100,00 %
11.12.2017 05:30 -0,9 C 3,9 C 97 % 991,6 hPa 0,0 l/m 0,0 km/h (0 Bft) O-NO 71 0 min 0,000 mm 0,0 UV-I 0 W/m -1,3 C -0,9 C 0,0 km/h (0 Bft) 100,00 %
11.12.2017 05:32 -1,1 C 3,9 C 96 % 991,6 hPa 0,0 l/m 0,5 km/h (0 Bft) O-NO 71 0 min 0,000 mm 0,0 UV-I 0 W/m -1,7 C -1,1 C 3,2 km/h (1 Bft) 94,87 %
11.12.2017 05:34 -1,1 C 3,9 C 96 % 991,6 hPa 0,0 l/m 0,7 km/h (0 Bft) O-NO 71 0 min 0,000 mm 0,0 UV-I 0 W/m -1,7 C -1,1 C 1,6 km/h (1 Bft) 98,11 %
11.12.2017 05:36 -1,4 C 3,9 C 95 % 991,6 hPa 0,0 l/m 0,8 km/h (0 Bft) O-NO 71 0 min 0,000 mm 0,0 UV-I 0 W/m -2,1 C -1,4 C 3,2 km/h (1 Bft) 100,00 %
11.12.2017 05:38 -1,6 C 3,9 C 95 % 991,6 hPa 0,0 l/m 0,2 km/h (0 Bft) O-NO 71 0 min 0,000 mm 0,0 UV-I 0 W/m -2,3 C -1,6 C 1,6 km/h (1 Bft) 100,00 %
11.12.2017 05:40 -1,7 C 3,9 C 96 % 991,6 hPa 0,0 l/m 0,0 km/h (0 Bft) O-NO 71 0 min 0,000 mm 0,0 UV-I 0 W/m -2,3 C -1,7 C 1,6 km/h (1 Bft) 100,00 %
11.12.2017 05:42 -1,7 C 3,9 C 96 % 991,5 hPa 0,0 l/m 0,8 km/h (0 Bft) O-NO 71 0 min 0,000 mm 0,0 UV-I 0 W/m -2,3 C -1,7 C 1,6 km/h (1 Bft) 98,04 %
11.12.2017 05:44 -1,6 C 3,9 C 96 % 991,5 hPa 0,0 l/m 0,0 km/h (0 Bft) O-NO 71 0 min 0,000 mm 0,0 UV-I 0 W/m -2,2 C -1,6 C 1,6 km/h (1 Bft) 97,87 %
11.12.2017 05:46 -1,6 C 3,9 C 96 % 991,5 hPa 0,0 l/m 0,0 km/h (0 Bft) O-NO 71 0 min 0,000 mm 0,0 UV-I 0 W/m -2,2 C -1,6 C 0,0 km/h (0 Bft) 97,87 %
11.12.2017 05:48 -1,6 C 3,9 C 96 % 991,4 hPa 0,0 l/m 0,0 km/h (0 Bft) O-NO 71 0 min 0,000 mm 0,0 UV-I 0 W/m -2,2 C -1,6 C 0,0 km/h (0 Bft) 100,00 %
11.12.2017 05:50 -1,8 C 3,9 C 96 % 991,5 hPa 0,0 l/m 0,0 km/h (0 Bft) O-NO 71 0 min 0,000 mm 0,0 UV-I 0 W/m -2,4 C -1,8 C 0,0 km/h (0 Bft) 100,00 %
11.12.2017 05:52 -1,8 C 3,9 C 96 % 991,6 hPa 0,0 l/m 0,0 km/h (0 Bft) O-NO 71 0 min 0,000 mm 0,0 UV-I 0 W/m -2,4 C -1,8 C 0,0 km/h (0 Bft) 97,92 %
11.12.2017 05:54 -1,8 C 3,9 C 96 % 991,5 hPa 0,0 l/m 0,0 km/h (0 Bft) O-NO 71 0 min 0,000 mm 0,0 UV-I 0 W/m -2,4 C -1,8 C 0,0 km/h (0 Bft) 100,00 %
11.12.2017 05:56 -1,8 C 3,9 C 96 % 991,4 hPa 0,0 l/m 0,0 km/h (0 Bft) O-NO 71 0 min 0,000 mm 0,0 UV-I 0 W/m -2,4 C -1,8 C 0,0 km/h (0 Bft) 100,00 %
11.12.2017 05:58 -2,0 C 3,9 C 96 % 991,4 hPa 0,0 l/m 0,3 km/h (0 Bft) O-NO 71 0 min 0,000 mm 0,0 UV-I 0 W/m -2,6 C -2,0 C 1,6 km/h (1 Bft) 100,00 %
11.12.2017 06:00 -2,1 C 3,9 C 96 % 991,4 hPa 0,0 l/m 0,3 km/h (0 Bft) O-NO 71 0 min 0,000 mm 0,0 UV-I 0 W/m -2,6 C -2,1 C 1,6 km/h (1 Bft) 98,11 %
11.12.2017 06:02 -2,1 C 3,9 C 96 % 991,4 hPa 0,0 l/m 1,2 km/h (1 Bft) O-NO 71 0 min 0,000 mm 0,0 UV-I 0 W/m -2,6 C -2,1 C 3,2 km/h (1 Bft) 97,67 %
11.12.2017 06:04 -2,0 C 3,9 C 96 % 991,4 hPa 0,0 l/m 1,7 km/h (1 Bft) O-NO 71 0 min 0,000 mm 0,0 UV-I 0 W/m -2,6 C -2,0 C 3,2 km/h (1 Bft) 98,00 %
11.12.2017 06:06 -1,9 C 3,9 C 96 % 991,4 hPa 0,0 l/m 1,6 km/h (1 Bft) O-NO 71 0 min 0,000 mm 0,0 UV-I 0 W/m -2,5 C -1,9 C 3,2 km/h (1 Bft) 98,00 %
11.12.2017 06:08 -1,9 C 3,9 C 97 % 991,5 hPa 0,0 l/m 2,1 km/h (1 Bft) O-NO 71 0 min 0,000 mm 0,0 UV-I 0 W/m -2,3 C -1,9 C 3,2 km/h (1 Bft) 97,37 %
11.12.2017 06:10 -1,9 C 3,9 C 97 % 991,4 hPa 0,0 l/m 4,2 km/h (1 Bft) SW 236 0 min 0,000 mm 0,0 UV-I 0 W/m -2,3 C -1,9 C 6,4 km/h (2 Bft) 96,43 %
11.12.2017 06:12 -1,9 C 3,9 C 97 % 991,4 hPa 0,0 l/m 4,5 km/h (1 Bft) SW 236 0 min 0,000 mm 0,0 UV-I 0 W/m -2,3 C -1,9 C 6,4 km/h (2 Bft) 97,44 %
11.12.2017 06:14 -1,9 C 3,9 C 97 % 991,5 hPa 0,0 l/m 4,4 km/h (1 Bft) SW 236 0 min 0,000 mm 0,0 UV-I 0 W/m -2,3 C -1,9 C 6,4 km/h (2 Bft) 98,00 %
11.12.2017 06:16 -1,9 C 3,9 C 96 % 991,4 hPa 0,0 l/m 4,2 km/h (1 Bft) SW 236 0 min 0,000 mm 0,0 UV-I 0 W/m -2,5 C -1,9 C 6,4 km/h (2 Bft) 96,00 %
11.12.2017 06:18 -2,1 C 3,9 C 96 % 991,4 hPa 0,0 l/m 4,2 km/h (1 Bft) SW 236 0 min 0,000 mm 0,0 UV-I 0 W/m -2,6 C -2,1 C 6,4 km/h (2 Bft) 97,56 %
11.12.2017 06:20 -2,0 C 3,9 C 96 % 991,3 hPa 0,0 l/m 2,0 km/h (1 Bft) SW 223 0 min 0,000 mm 0,0 UV-I 0 W/m -2,6 C -2,0 C 4,8 km/h (1 Bft) 97,56 %
11.12.2017 06:22 -2,1 C 3,9 C 96 % 991,3 hPa 0,0 l/m 2,3 km/h (1 Bft) SW 223 0 min 0,000 mm 0,0 UV-I 0 W/m -2,6 C -2,1 C 3,2 km/h (1 Bft) 94,12 %
11.12.2017 06:24 -2,2 C 3,9 C 96 % 991,4 hPa 0,0 l/m 0,4 km/h (0 Bft) SW 223 0 min 0,000 mm 0,0 UV-I 0 W/m -2,7 C -2,2 C 3,2 km/h (1 Bft) 96,00 %
11.12.2017 06:26 -2,2 C 3,9 C 96 % 991,3 hPa 0,0 l/m 0,8 km/h (0 Bft) SW 223 0 min 0,000 mm 0,0 UV-I 0 W/m -2,7 C -2,2 C 1,6 km/h (1 Bft) 98,00 %
11.12.2017 06:28 -2,2 C 3,9 C 97 % 991,3 hPa 0,0 l/m 1,3 km/h (1 Bft) SW 223 0 min 0,000 mm 0,0 UV-I 0 W/m -2,6 C -2,2 C 1,6 km/h (1 Bft) 97,56 %
11.12.2017 06:30 -2,2 C 3,9 C 97 % 991,2 hPa 0,0 l/m 0,4 km/h (0 Bft) SW 223 0 min 0,000 mm 0,0 UV-I 0 W/m -2,6 C -2,2 C 1,6 km/h (1 Bft) 98,00 %
11.12.2017 06:32 -2,2 C 3,9 C 97 % 991,1 hPa 0,0 l/m 0,9 km/h (0 Bft) SW 223 0 min 0,000 mm 0,0 UV-I 0 W/m -2,6 C -2,2 C 3,2 km/h (1 Bft) 96,23 %
11.12.2017 06:34 -2,2 C 3,9 C 97 % 991,2 hPa 0,0 l/m 1,3 km/h (1 Bft) SW 223 0 min 0,000 mm 0,0 UV-I 0 W/m -2,6 C -2,2 C 3,2 km/h (1 Bft) 97,56 %
11.12.2017 06:36 -2,1 C 3,9 C 97 % 991,3 hPa 0,0 l/m 1,9 km/h (1 Bft) W-NW 289 0 min 0,000 mm 0,0 UV-I 0 W/m -2,5 C -2,1 C 4,8 km/h (1 Bft) 92,45 %
11.12.2017 06:38 -2,2 C 3,9 C 97 % 991,2 hPa 0,0 l/m 1,8 km/h (1 Bft) W-NW 289 0 min 0,000 mm 0,0 UV-I 0 W/m -2,6 C -2,2 C 3,2 km/h (1 Bft) 97,37 %
11.12.2017 06:40 -2,3 C 3,9 C 96 % 991,3 hPa 0,0 l/m 0,0 km/h (0 Bft) W-NW 289 0 min 0,000 mm 0,0 UV-I 0 W/m -2,8 C -2,3 C 0,0 km/h (0 Bft) 97,87 %
11.12.2017 06:42 -2,3 C 3,9 C 96 % 991,4 hPa 0,0 l/m 1,2 km/h (1 Bft) W-NW 289 0 min 0,000 mm 0,0 UV-I 0 W/m -2,8 C -2,3 C 3,2 km/h (1 Bft) 95,74 %
11.12.2017 06:44 -2,3 C 3,9 C 96 % 991,3 hPa 0,0 l/m 0,7 km/h (0 Bft) W-NW 289 0 min 0,000 mm 0,0 UV-I 0 W/m -2,8 C -2,3 C 3,2 km/h (1 Bft) 100,00 %
11.12.2017 06:46 -2,3 C 3,9 C 96 % 991,3 hPa 0,0 l/m 0,6 km/h (0 Bft) W-NW 289 0 min 0,000 mm 0,0 UV-I 0 W/m -2,8 C -2,3 C 3,2 km/h (1 Bft) 100,00 %
11.12.2017 06:48 -2,3 C 3,9 C 96 % 991,3 hPa 0,0 l/m 3,4 km/h (1 Bft) S 184 0 min 0,000 mm 0,0 UV-I 0 W/m -2,8 C -2,3 C 4,8 km/h (1 Bft) 96,00 %
11.12.2017 06:50 -2,3 C 3,9 C 96 % 991,2 hPa 0,0 l/m 2,7 km/h (1 Bft) S 184 0 min 0,000 mm 0,0 UV-I 0 W/m -2,8 C -2,3 C 3,2 km/h (1 Bft) 100,00 %
11.12.2017 06:52 -2,3 C 3,9 C 97 % 991,2 hPa 0,0 l/m 2,4 km/h (1 Bft) S 184 0 min 0,000 mm 0,0 UV-I 0 W/m -2,7 C -2,3 C 3,2 km/h (1 Bft) 98,00 %
11.12.2017 06:54 -2,3 C 3,9 C 97 % 991,1 hPa 0,0 l/m 2,8 km/h (1 Bft) S 184 0 min 0,000 mm 0,0 UV-I 0 W/m -2,7 C -2,3 C 3,2 km/h (1 Bft) 100,00 %
11.12.2017 06:56 -2,3 C 3,9 C 97 % 991,0 hPa 0,0 l/m 2,4 km/h (1 Bft) S 184 0 min 0,000 mm 0,0 UV-I 0 W/m -2,7 C -2,3 C 3,2 km/h (1 Bft) 100,00 %
11.12.2017 06:58 -2,2 C 3,9 C 97 % 991,0 hPa 0,0 l/m 0,2 km/h (0 Bft) S 184 0 min 0,000 mm 0,0 UV-I 0 W/m -2,6 C -2,2 C 1,6 km/h (1 Bft) 98,11 %
11.12.2017 07:00 -2,1 C 3,9 C 97 % 991,1 hPa 0,0 l/m 0,0 km/h (0 Bft) S 184 0 min 0,000 mm 0,0 UV-I 0 W/m -2,5 C -2,1 C 0,0 km/h (0 Bft) 100,00 %
11.12.2017 07:02 -2,1 C 3,9 C 97 % 991,2 hPa 0,0 l/m 0,8 km/h (0 Bft) S 184 0 min 0,000 mm 0,0 UV-I 0 W/m -2,5 C -2,1 C 3,2 km/h (1 Bft) 100,00 %
11.12.2017 07:04 -2,1 C 3,9 C 97 % 991,2 hPa 0,0 l/m 2,5 km/h (1 Bft) S 184 0 min 0,000 mm 0,0 UV-I 0 W/m -2,5 C -2,1 C 3,2 km/h (1 Bft) 95,12 %
11.12.2017 07:06 -2,4 C 3,9 C 96 % 991,2 hPa 0,0 l/m 2,7 km/h (1 Bft) S 184 0 min 0,000 mm 0,0 UV-I 0 W/m -2,9 C -2,4 C 3,2 km/h (1 Bft) 98,11 %
11.12.2017 07:08 -2,5 C 3,9 C 96 % 991,2 hPa 0,0 l/m 2,0 km/h (1 Bft) S 184 0 min 0,000 mm 0,0 UV-I 0 W/m -3,0 C -2,5 C 3,2 km/h (1 Bft) 100,00 %
11.12.2017 07:10 -2,5 C 3,9 C 96 % 991,2 hPa 0,0 l/m 0,5 km/h (0 Bft) S 184 0 min 0,000 mm 0,0 UV-I 0 W/m -3,0 C -2,5 C 1,6 km/h (1 Bft) 100,00 %
11.12.2017 07:12 -2,3 C 3,9 C 97 % 991,2 hPa 0,0 l/m 0,0 km/h (0 Bft) S 184 0 min 0,000 mm 0,0 UV-I 0 W/m -2,7 C -2,3 C 0,0 km/h (0 Bft) 98,11 %
11.12.2017 07:14 -2,3 C 3,9 C 97 % 991,2 hPa 0,0 l/m 0,1 km/h (0 Bft) S 184 0 min 0,000 mm 0,0 UV-I 0 W/m -2,7 C -2,3 C 1,6 km/h (1 Bft) 97,87 %
11.12.2017 07:16 -2,3 C 3,9 C 97 % 991,1 hPa 0,0 l/m 0,0 km/h (0 Bft) S 184 0 min 0,000 mm 0,0 UV-I 0 W/m -2,7 C -2,3 C 1,6 km/h (1 Bft) 100,00 %
11.12.2017 07:18 -2,3 C 3,9 C 97 % 991,0 hPa 0,0 l/m 0,0 km/h (0 Bft) S 184 0 min 0,000 mm 0,0 UV-I 0 W/m -2,7 C -2,3 C 0,0 km/h (0 Bft) 97,56 %
11.12.2017 07:20 -2,2 C 3,9 C 97 % 991,0 hPa 0,0 l/m 1,3 km/h (1 Bft) S 184 0 min 0,000 mm 0,0 UV-I 0 W/m -2,6 C -2,2 C 3,2 km/h (1 Bft) 93,62 %
11.12.2017 07:22 -2,2 C 3,9 C 97 % 990,9 hPa 0,0 l/m 1,0 km/h (0 Bft) S 184 0 min 0,000 mm 0,0 UV-I 0 W/m -2,6 C -2,2 C 3,2 km/h (1 Bft) 91,49 %
11.12.2017 07:24 -2,2 C 3,9 C 97 % 990,9 hPa 0,0 l/m 0,0 km/h (0 Bft) S 184 0 min 0,000 mm 0,0 UV-I 0 W/m -2,6 C -2,2 C 0,0 km/h (0 Bft) 97,87 %
11.12.2017 07:26 -2,3 C 3,9 C 97 % 991,0 hPa 0,0 l/m 0,0 km/h (0 Bft) S 184 0 min 0,000 mm 0,0 UV-I 0 W/m -2,7 C -2,3 C 1,6 km/h (1 Bft) 97,87 %
11.12.2017 07:28 -2,3 C 3,9 C 97 % 991,1 hPa 0,0 l/m 2,2 km/h (1 Bft) S 184 0 min 0,000 mm 0,0 UV-I 0 W/m -2,7 C -2,3 C 3,2 km/h (1 Bft) 96,00 %
11.12.2017 07:30 -2,2 C 3,9 C 97 % 991,0 hPa 0,0 l/m 1,0 km/h (0 Bft) S 184 0 min 0,000 mm 0,0 UV-I 0 W/m -2,6 C -2,2 C 3,2 km/h (1 Bft) 97,87 %
11.12.2017 07:32 -2,3 C 3,9 C 97 % 991,1 hPa 0,0 l/m 1,2 km/h (1 Bft) S-SW 200 0 min 0,000 mm 0,0 UV-I 0 W/m -2,7 C -2,3 C 3,2 km/h (1 Bft) 98,00 %
11.12.2017 07:34 -2,3 C 3,9 C 97 % 991,1 hPa 0,0 l/m 0,9 km/h (0 Bft) S-SW 200 0 min 0,000 mm 0,0 UV-I 0 W/m -2,7 C -2,3 C 3,2 km/h (1 Bft) 97,62 %
11.12.2017 07:36 -2,4 C 3,9 C 97 % 991,2 hPa 0,0 l/m 1,0 km/h (0 Bft) S-SW 200 0 min 0,000 mm 0,0 UV-I 0 W/m -2,8 C -2,4 C 3,2 km/h (1 Bft) 95,74 %
11.12.2017 07:38 -2,4 C 3,9 C 97 % 991,0 hPa 0,0 l/m 1,1 km/h (1 Bft) S-SW 200 0 min 0,000 mm 0,0 UV-I 1 W/m -2,8 C -2,4 C 3,2 km/h (1 Bft) 96,00 %
11.12.2017 07:40 -2,4 C 3,9 C 97 % 991,0 hPa 0,0 l/m 1,1 km/h (1 Bft) S-SW 200 0 min 0,000 mm 0,0 UV-I 5 W/m -2,8 C -2,4 C 3,2 km/h (1 Bft) 96,00 %
11.12.2017 07:42 -2,4 C 3,9 C 97 % 991,0 hPa 0,0 l/m 1,2 km/h (1 Bft) S-SW 202 0 min 0,000 mm 0,0 UV-I 5 W/m -2,8 C -2,4 C 3,2 km/h (1 Bft) 97,87 %
11.12.2017 07:44 -2,3 C 3,9 C 97 % 991,1 hPa 0,0 l/m 0,1 km/h (0 Bft) S-SW 202 0 min 0,000 mm 0,0 UV-I 5 W/m -2,7 C -2,3 C 1,6 km/h (1 Bft) 97,56 %
11.12.2017 07:46 -2,4 C 3,9 C 97 % 991,1 hPa 0,0 l/m 1,4 km/h (1 Bft) S-SW 202 0 min 0,000 mm 0,0 UV-I 5 W/m -2,8 C -2,4 C 4,8 km/h (1 Bft) 98,11 %
11.12.2017 07:48 -2,5 C 3,9 C 96 % 991,0 hPa 0,0 l/m 0,3 km/h (0 Bft) S-SW 201 0 min 0,000 mm 0,0 UV-I 5 W/m -3,0 C -2,5 C 3,2 km/h (1 Bft) 94,74 %
11.12.2017 07:50 -2,6 C 3,9 C 96 % 990,9 hPa 0,0 l/m 3,5 km/h (1 Bft) S-SO 147 0 min 0,000 mm 0,0 UV-I 7 W/m -3,1 C -2,6 C 6,4 km/h (2 Bft) 96,08 %
11.12.2017 07:52 -2,4 C 3,9 C 96 % 990,9 hPa 0,0 l/m 0,6 km/h (0 Bft) S-SO 147 0 min 0,000 mm 0,0 UV-I 7 W/m -2,9 C -2,4 C 1,6 km/h (1 Bft) 97,56 %
11.12.2017 07:54 -2,3 C 3,9 C 97 % 991,0 hPa 0,0 l/m 0,1 km/h (0 Bft) S-SO 147 0 min 0,000 mm 0,0 UV-I 7 W/m -2,7 C -2,3 C 1,6 km/h (1 Bft) 96,00 %
11.12.2017 07:56 -2,3 C 3,9 C 97 % 990,9 hPa 0,0 l/m 0,1 km/h (0 Bft) S-SO 147 0 min 0,000 mm 0,0 UV-I 9 W/m -2,7 C -2,3 C 1,6 km/h (1 Bft) 96,00 %
11.12.2017 07:58 -2,3 C 3,9 C 97 % 990,9 hPa 0,0 l/m 0,0 km/h (0 Bft) S-SO 147 0 min 0,000 mm 0,0 UV-I 9 W/m -2,7 C -2,3 C 0,0 km/h (0 Bft) 98,00 %
11.12.2017 08:00 -2,2 C 3,9 C 97 % 990,9 hPa 0,0 l/m 0,0 km/h (0 Bft) S-SO 147 0 min 0,000 mm 0,0 UV-I 10 W/m -2,6 C -2,2 C 0,0 km/h (0 Bft) 94,74 %
11.12.2017 08:02 -2,3 C 3,9 C 97 % 991,0 hPa 0,0 l/m 0,7 km/h (0 Bft) S-SO 159 0 min 0,000 mm 0,0 UV-I 11 W/m -2,7 C -2,3 C 3,2 km/h (1 Bft) 96,23 %
11.12.2017 08:04 -2,3 C 3,9 C 97 % 991,0 hPa 0,0 l/m 1,4 km/h (1 Bft) S-SO 159 0 min 0,000 mm 0,0 UV-I 12 W/m -2,7 C -2,3 C 3,2 km/h (1 Bft) 98,00 %
11.12.2017 08:06 -2,3 C 3,9 C 97 % 991,1 hPa 0,0 l/m 0,0 km/h (0 Bft) S-SO 159 0 min 0,000 mm 0,0 UV-I 12 W/m -2,7 C -2,3 C 0,0 km/h (0 Bft) 100,00 %
11.12.2017 08:08 -2,2 C 3,9 C 97 % 991,0 hPa 0,0 l/m 0,0 km/h (0 Bft) S-SO 159 0 min 0,000 mm 0,0 UV-I 14 W/m -2,6 C -2,2 C 0,0 km/h (0 Bft) 92,11 %
11.12.2017 08:10 -2,2 C 3,9 C 97 % 991,1 hPa 0,0 l/m 0,0 km/h (0 Bft) S-SO 159 0 min 0,000 mm 0,0 UV-I 15 W/m -2,6 C -2,2 C 0,0 km/h (0 Bft) 98,11 %
11.12.2017 08:12 -2,2 C 3,9 C 97 % 990,9 hPa 0,0 l/m 0,0 km/h (0 Bft) S-SO 159 0 min 0,000 mm 0,0 UV-I 17 W/m -2,6 C -2,2 C 0,0 km/h (0 Bft) 95,74 %
11.12.2017 08:14 -2,2 C 3,9 C 97 % 991,1 hPa 0,0 l/m 0,0 km/h (0 Bft) S-SO 159 0 min 0,000 mm 0,0 UV-I 18 W/m -2,6 C -2,2 C 0,0 km/h (0 Bft) 97,78 %
11.12.2017 08:16 -2,2 C 3,9 C 97 % 990,9 hPa 0,0 l/m 0,0 km/h (0 Bft) S-SO 159 0 min 0,000 mm 0,0 UV-I 18 W/m -2,6 C -2,2 C 0,0 km/h (0 Bft) 98,00 %
11.12.2017 08:18 -2,1 C 3,9 C 97 % 991,1 hPa 0,0 l/m 0,5 km/h (0 Bft) S-SO 159 0 min 0,000 mm 0,0 UV-I 19 W/m -2,5 C -2,1 C 1,6 km/h (1 Bft) 96,00 %
11.12.2017 08:20 -2,1 C 3,9 C 97 % 991,1 hPa 0,0 l/m 0,4 km/h (0 Bft) S-SO 159 0 min 0,000 mm 0,0 UV-I 20 W/m -2,5 C -2,1 C 1,6 km/h (1 Bft) 97,56 %
11.12.2017 08:22 -2,0 C 3,9 C 97 % 991,2 hPa 0,0 l/m 0,4 km/h (0 Bft) S-SO 159 0 min 0,000 mm 0,0 UV-I 22 W/m -2,4 C -2,0 C 1,6 km/h (1 Bft) 93,62 %
11.12.2017 08:24 -2,0 C 3,9 C 97 % 991,2 hPa 0,0 l/m 0,9 km/h (0 Bft) S-SO 160 0 min 0,000 mm 0,0 UV-I 25 W/m -2,4 C -2,0 C 3,2 km/h (1 Bft) 94,00 %
11.12.2017 08:26 -1,9 C 3,9 C 97 % 991,1 hPa 0,0 l/m 3,5 km/h (1 Bft) S-SO 159 0 min 0,000 mm 0,0 UV-I 25 W/m -2,3 C -1,9 C 6,4 km/h (2 Bft) 97,37 %
11.12.2017 08:28 -1,9 C 3,9 C 97 % 991,1 hPa 0,0 l/m 3,3 km/h (1 Bft) S-SO 159 0 min 0,000 mm 0,0 UV-I 27 W/m -2,3 C -1,9 C 6,4 km/h (2 Bft) 98,21 %
11.12.2017 08:30 -1,9 C 3,9 C 96 % 991,0 hPa 0,0 l/m 0,0 km/h (0 Bft) S-SO 159 0 min 0,000 mm 0,0 UV-I 29 W/m -2,5 C -1,9 C 0,0 km/h (0 Bft) 97,37 %
11.12.2017 08:32 -1,8 C 3,9 C 97 % 991,1 hPa 0,0 l/m 0,1 km/h (0 Bft) S-SO 159 0 min 0,000 mm 0,0 UV-I 31 W/m -2,2 C -1,8 C 1,6 km/h (1 Bft) 97,87 %
11.12.2017 08:34 -1,8 C 3,9 C 97 % 991,2 hPa 0,0 l/m 0,9 km/h (0 Bft) S-SO 159 0 min 0,000 mm 0,0 UV-I 32 W/m -2,2 C -1,8 C 1,6 km/h (1 Bft) 98,11 %
11.12.2017 08:36 -1,7 C 3,9 C 97 % 991,2 hPa 0,0 l/m 0,8 km/h (0 Bft) S-SO 159 0 min 0,000 mm 0,0 UV-I 34 W/m -2,1 C -1,7 C 1,6 km/h (1 Bft) 95,74 %
11.12.2017 08:38 -1,8 C 3,9 C 97 % 991,2 hPa 0,0 l/m 0,8 km/h (0 Bft) S-SO 159 0 min 0,000 mm 0,0 UV-I 37 W/m -2,2 C -1,8 C 3,2 km/h (1 Bft) 94,00 %
11.12.2017 08:40 -1,8 C 3,9 C 96 % 991,1 hPa 0,0 l/m 0,0 km/h (0 Bft) S-SO 159 0 min 0,000 mm 0,0 UV-I 40 W/m -2,4 C -1,8 C 0,0 km/h (0 Bft) 97,87 %
11.12.2017 08:42 -1,8 C 3,9 C 96 % 991,1 hPa 0,0 l/m 0,8 km/h (0 Bft) S-SO 159 0 min 0,000 mm 0,0 UV-I 42 W/m -2,4 C -1,8 C 3,2 km/h (1 Bft) 94,74 %
11.12.2017 08:44 -1,7 C 3,9 C 97 % 991,2 hPa 0,0 l/m 3,5 km/h (1 Bft) S-SO 159 0 min 0,000 mm 0,0 UV-I 45 W/m -2,1 C -1,7 C 6,4 km/h (2 Bft) 95,45 %
11.12.2017 08:46 -1,6 C 3,9 C 97 % 991,2 hPa 0,0 l/m 1,6 km/h (1 Bft) S-SO 159 0 min 0,000 mm 0,0 UV-I 47 W/m -2,0 C -1,6 C 3,2 km/h (1 Bft) 98,04 %
11.12.2017 08:48 -1,6 C 3,9 C 97 % 991,2 hPa 0,0 l/m 0,2 km/h (0 Bft) S-SO 159 0 min 0,000 mm 0,0 UV-I 50 W/m -2,0 C -1,6 C 1,6 km/h (1 Bft) 97,87 %
11.12.2017 08:50 -1,6 C 3,9 C 96 % 991,1 hPa 0,0 l/m 0,1 km/h (0 Bft) S-SO 159 0 min 0,000 mm 0,0 UV-I 53 W/m -2,2 C -1,6 C 1,6 km/h (1 Bft) 93,62 %
11.12.2017 08:52 -1,6 C 3,9 C 96 % 991,0 hPa 0,0 l/m 0,0 km/h (0 Bft) S-SO 159 0 min 0,000 mm 0,0 UV-I 54 W/m -2,2 C -1,6 C 0,0 km/h (0 Bft) 96,00 %
11.12.2017 08:54 -1,5 C 3,9 C 97 % 990,8 hPa 0,0 l/m 0,4 km/h (0 Bft) S-SO 159 0 min 0,000 mm 0,0 UV-I 54 W/m -1,9 C -1,5 C 1,6 km/h (1 Bft) 97,22 %
11.12.2017 08:56 -1,3 C 3,9 C 97 % 990,7 hPa 0,0 l/m 1,6 km/h (1 Bft) S-SO 159 0 min 0,000 mm 0,0 UV-I 56 W/m -1,7 C -1,3 C 3,2 km/h (1 Bft) 96,00 %
11.12.2017 08:58 -1,3 C 3,9 C 97 % 990,7 hPa 0,0 l/m 0,9 km/h (0 Bft) S-SO 159 0 min 0,000 mm 0,0 UV-I 58 W/m -1,7 C -1,3 C 3,2 km/h (1 Bft) 100,00 %
11.12.2017 09:00 -1,3 C 3,9 C 97 % 990,6 hPa 0,0 l/m 0,0 km/h (0 Bft) S-SO 159 0 min 0,000 mm 0,0 UV-I 62 W/m -1,7 C -1,3 C 0,0 km/h (0 Bft) 97,87 %
11.12.2017 09:02 -1,3 C 3,9 C 97 % 990,6 hPa 0,0 l/m 1,4 km/h (1 Bft) S-SO 159 0 min 0,000 mm 0,0 UV-I 64 W/m -1,7 C -1,3 C 6,4 km/h (2 Bft) 95,12 %
11.12.2017 09:04 -1,3 C 3,9 C 96 % 990,5 hPa 0,0 l/m 4,9 km/h (1 Bft) O-SO 115 0 min 0,000 mm 0,0 UV-I 67 W/m -1,9 C -1,3 C 6,4 km/h (2 Bft) 100,00 %
11.12.2017 09:06 -1,3 C 3,9 C 97 % 990,4 hPa 0,0 l/m 3,4 km/h (1 Bft) O 101 0 min 0,000 mm 0,0 UV-I 69 W/m -1,7 C -1,3 C 6,4 km/h (2 Bft) 100,00 %
11.12.2017 09:08 -1,1 C 3,9 C 97 % 990,3 hPa 0,0 l/m 6,2 km/h (2 Bft) O 89 0 min 0,000 mm 0,0 UV-I 72 W/m -1,5 C -1,1 C 11,3 km/h (2 Bft) 100,00 %
11.12.2017 09:10 -0,7 C 3,9 C 97 % 990,2 hPa 0,0 l/m 7,0 km/h (2 Bft) NO 38 0 min 0,000 mm 0,0 UV-I 74 W/m -1,1 C -1,3 C 11,3 km/h (2 Bft) 98,00 %
11.12.2017 09:12 -0,5 C 3,9 C 97 % 990,2 hPa 0,0 l/m 9,4 km/h (2 Bft) O-NO 69 0 min 0,000 mm 0,0 UV-I 74 W/m -0,9 C -3,5 C 12,9 km/h (3 Bft) 100,00 %
11.12.2017 09:14 -0,3 C 3,9 C 96 % 990,2 hPa 0,0 l/m 9,9 km/h (2 Bft) O-NO 78 0 min 0,000 mm 0,0 UV-I 73 W/m -0,9 C -3,7 C 14,5 km/h (3 Bft) 100,00 %
11.12.2017 09:16 -0,3 C 3,9 C 95 % 990,1 hPa 0,0 l/m 10,6 km/h (2 Bft) NO 42 0 min 0,000 mm 0,0 UV-I 75 W/m -1,0 C -4,3 C 16,1 km/h (3 Bft) 100,00 %
11.12.2017 09:18 -0,2 C 3,9 C 94 % 990,2 hPa 0,0 l/m 9,7 km/h (2 Bft) O 92 0 min 0,000 mm 0,0 UV-I 77 W/m -1,0 C -3,4 C 14,5 km/h (3 Bft) 98,11 %
11.12.2017 09:20 -0,3 C 3,9 C 94 % 990,2 hPa 0,0 l/m 8,2 km/h (2 Bft) O 80 0 min 0,000 mm 0,0 UV-I 80 W/m -1,1 C -2,2 C 14,5 km/h (3 Bft) 100,00 %
11.12.2017 09:22 -0,2 C 3,9 C 94 % 990,2 hPa 0,0 l/m 8,0 km/h (2 Bft) O-NO 59 0 min 0,000 mm 0,0 UV-I 82 W/m -1,0 C -1,9 C 14,5 km/h (3 Bft) 97,87 %
11.12.2017 09:24 -0,1 C 3,9 C 93 % 990,2 hPa 0,0 l/m 7,7 km/h (2 Bft) O-NO 59 0 min 0,000 mm 0,0 UV-I 82 W/m -1,1 C -1,5 C 9,7 km/h (2 Bft) 100,00 %
11.12.2017 09:26 -0,1 C 3,9 C 92 % 990,2 hPa 0,0 l/m 6,0 km/h (2 Bft) NO 49 0 min 0,000 mm 0,0 UV-I 80 W/m -1,2 C -0,1 C 8,0 km/h (2 Bft) 97,37 %
11.12.2017 09:28 -0,1 C 3,9 C 92 % 990,2 hPa 0,0 l/m 7,8 km/h (2 Bft) NO 49 0 min 0,000 mm 0,0 UV-I 78 W/m -1,2 C -1,6 C 12,9 km/h (3 Bft) 100,00 %
11.12.2017 09:30 -0,1 C 3,9 C 92 % 990,1 hPa 0,0 l/m 8,5 km/h (2 Bft) NO 42 0 min 0,000 mm 0,0 UV-I 76 W/m -1,2 C -2,2 C 14,5 km/h (3 Bft) 100,00 %
11.12.2017 09:32 -0,1 C 3,9 C 91 % 990,3 hPa 0,0 l/m 8,4 km/h (2 Bft) O-NO 78 0 min 0,000 mm 0,0 UV-I 77 W/m -1,4 C -2,1 C 12,9 km/h (3 Bft) 98,08 %
11.12.2017 09:34 -0,1 C 3,9 C 92 % 990,2 hPa 0,0 l/m 8,0 km/h (2 Bft) O-NO 65 0 min 0,000 mm 0,0 UV-I 78 W/m -1,2 C -1,8 C 14,5 km/h (3 Bft) 97,87 %
11.12.2017 09:36 0,1 C 3,9 C 91 % 990,4 hPa 0,0 l/m 5,6 km/h (1 Bft) O-NO 78 0 min 0,000 mm 0,0 UV-I 81 W/m -1,2 C 0,1 C 9,7 km/h (2 Bft) 100,00 %
11.12.2017 09:38 0,1 C 3,9 C 91 % 990,5 hPa 0,0 l/m 4,7 km/h (1 Bft) O-NO 69 0 min 0,000 mm 0,0 UV-I 81 W/m -1,2 C 0,1 C 8,0 km/h (2 Bft) 100,00 %
11.12.2017 09:40 0,1 C 3,9 C 91 % 990,7 hPa 0,0 l/m 3,1 km/h (1 Bft) O-NO 68 0 min 0,000 mm 0,0 UV-I 81 W/m -1,2 C 0,1 C 4,8 km/h (1 Bft) 97,56 %
11.12.2017 09:42 0,1 C 3,9 C 91 % 990,6 hPa 0,0 l/m 2,7 km/h (1 Bft) O-NO 67 0 min 0,000 mm 0,0 UV-I 81 W/m -1,2 C 0,1 C 6,4 km/h (2 Bft) 96,00 %
11.12.2017 09:44 -0,1 C 3,9 C 91 % 990,6 hPa 0,0 l/m 3,2 km/h (1 Bft) NO 48 0 min 0,000 mm 0,0 UV-I 82 W/m -1,4 C -0,1 C 4,8 km/h (1 Bft) 100,00 %
11.12.2017 09:46 -0,2 C 3,9 C 92 % 990,5 hPa 0,0 l/m 4,6 km/h (1 Bft) NO 43 0 min 0,000 mm 0,0 UV-I 84 W/m -1,3 C -0,2 C 6,4 km/h (2 Bft) 100,00 %
11.12.2017 09:48 -0,1 C 3,9 C 92 % 990,4 hPa 0,0 l/m 3,4 km/h (1 Bft) NO 43 0 min 0,000 mm 0,0 UV-I 86 W/m -1,2 C -0,1 C 4,8 km/h (1 Bft) 100,00 %
11.12.2017 09:50 -0,1 C 3,9 C 92 % 990,5 hPa 0,0 l/m 2,6 km/h (1 Bft) NO 43 0 min 0,000 mm 0,0 UV-I 86 W/m -1,2 C -0,1 C 3,2 km/h (1 Bft) 100,00 %
11.12.2017 09:52 -0,1 C 3,9 C 92 % 990,5 hPa 0,0 l/m 4,9 km/h (1 Bft) O-NO 57 0 min 0,000 mm 0,0 UV-I 83 W/m -1,2 C -0,1 C 8,0 km/h (2 Bft) 97,87 %
11.12.2017 09:54 -0,1 C 3,9 C 93 % 990,6 hPa 0,0 l/m 0,6 km/h (0 Bft) O-NO 57 0 min 0,000 mm 0,0 UV-I 80 W/m -1,1 C -0,1 C 3,2 km/h (1 Bft) 97,87 %
11.12.2017 09:56 -0,1 C 3,9 C 92 % 990,7 hPa 0,0 l/m 0,0 km/h (0 Bft) O-NO 57 0 min 0,000 mm 0,0 UV-I 79 W/m -1,2 C -0,1 C 0,0 km/h (0 Bft) 100,00 %
11.12.2017 09:58 0,0 C 3,9 C 93 % 990,6 hPa 0,0 l/m 2,5 km/h (1 Bft) O-NO 57 0 min 0,000 mm 0,0 UV-I 77 W/m -1,0 C 0,0 C 4,8 km/h (1 Bft) 97,73 %
11.12.2017 10:00 0,1 C 3,9 C 92 % 990,3 hPa 0,0 l/m 4,9 km/h (1 Bft) O-NO 57 0 min 0,025 mm 0,0 UV-I 78 W/m -1,0 C 0,1 C 6,4 km/h (2 Bft) 100,00 %
11.12.2017 10:02 0,1 C 3,9 C 92 % 990,3 hPa 0,0 l/m 5,7 km/h (1 Bft) O-NO 69 0 min 0,000 mm 0,0 UV-I 79 W/m -1,0 C 0,1 C 8,0 km/h (2 Bft) 100,00 %
11.12.2017 10:04 0,2 C 3,9 C 92 % 990,3 hPa 0,0 l/m 5,0 km/h (1 Bft) O-NO 67 0 min 0,000 mm 0,0 UV-I 79 W/m -0,9 C 0,2 C 8,0 km/h (2 Bft) 100,00 %
11.12.2017 10:06 0,2 C 3,9 C 92 % 990,2 hPa 0,0 l/m 4,5 km/h (1 Bft) NO 51 0 min 0,000 mm 0,0 UV-I 79 W/m -0,9 C 0,2 C 6,4 km/h (2 Bft) 100,00 %
11.12.2017 10:08 0,2 C 3,9 C 91 % 990,2 hPa 0,0 l/m 4,3 km/h (1 Bft) O-NO 57 0 min 0,000 mm 0,0 UV-I 79 W/m -1,1 C 0,2 C 8,0 km/h (2 Bft) 100,00 %
11.12.2017 10:10 0,3 C 3,9 C 91 % 990,2 hPa 0,0 l/m 6,7 km/h (2 Bft) NO 56 0 min 0,000 mm 0,0 UV-I 78 W/m -1,0 C 0,0 C 12,9 km/h (3 Bft) 98,08 %
11.12.2017 10:12 0,4 C 3,9 C 91 % 990,2 hPa 0,0 l/m 4,9 km/h (1 Bft) NO 55 0 min 0,000 mm 0,0 UV-I 76 W/m -0,9 C 0,4 C 8,0 km/h (2 Bft) 100,00 %
11.12.2017 10:14 0,4 C 3,9 C 91 % 990,1 hPa 0,0 l/m 6,7 km/h (2 Bft) O-NO 77 0 min 0,000 mm 0,0 UV-I 74 W/m -0,9 C 0,1 C 14,5 km/h (3 Bft) 96,00 %
11.12.2017 10:16 0,6 C 3,9 C 90 % 990,1 hPa 0,0 l/m 10,8 km/h (2 Bft) O-NO 71 0 min 0,000 mm 0,0 UV-I 76 W/m -0,8 C -3,4 C 16,1 km/h (3 Bft) 100,00 %
11.12.2017 10:18 0,8 C 3,9 C 90 % 990,2 hPa 0,0 l/m 7,1 km/h (2 Bft) O 84 0 min 0,000 mm 0,0 UV-I 79 W/m -0,6 C 0,1 C 12,9 km/h (3 Bft) 100,00 %
11.12.2017 10:20 0,8 C 3,9 C 89 % 990,2 hPa 0,0 l/m 10,0 km/h (2 Bft) O 95 0 min 0,000 mm 0,0 UV-I 79 W/m -0,8 C -2,6 C 16,1 km/h (3 Bft) 100,00 %
11.12.2017 10:22 0,9 C 3,9 C 89 % 990,1 hPa 0,0 l/m 12,0 km/h (2 Bft) O 88 0 min 0,000 mm 0,0 UV-I 84 W/m -0,7 C -4,0 C 16,1 km/h (3 Bft) 100,00 %
11.12.2017 10:24 1,0 C 3,9 C 89 % 990,2 hPa 0,0 l/m 10,2 km/h (2 Bft) O-NO 67 0 min 0,000 mm 0,0 UV-I 91 W/m -0,6 C -2,5 C 17,7 km/h (3 Bft) 100,00 %
11.12.2017 10:25 1,1 C 3,9 C 89 % 990,2 hPa 0,0 l/m 11,3 km/h (2 Bft) O-NO 67 0 min 0,000 mm 0,0 UV-I 91 W/m -0,5 C -3,2 C 17,7 km/h (3 Bft) 100,00 %
11.12.2017 10:30 1,2 C 3,9 C 88 % 990,0 hPa 0,0 l/m 9,7 km/h (2 Bft) O-NO 67 0 min 0,000 mm 0,0 UV-I 98 W/m -0,6 C -1,9 C 16,1 km/h (3 Bft) 100,00 %
11.12.2017 10:32 1,2 C 3,9 C 88 % 990,0 hPa 0,0 l/m 10,4 km/h (2 Bft) O-NO 61 0 min 0,000 mm 0,0 UV-I 97 W/m -0,6 C -2,4 C 14,5 km/h (3 Bft) 97,25 %
11.12.2017 10:34 1,1 C 3,9 C 88 % 990,0 hPa 0,0 l/m 11,2 km/h (2 Bft) O-NO 76 0 min 0,000 mm 0,0 UV-I 98 W/m -0,7 C -3,2 C 16,1 km/h (3 Bft) 97,62 %
11.12.2017 10:36 1,1 C 3,9 C 88 % 990,0 hPa 0,0 l/m 11,2 km/h (2 Bft) NO 55 0 min 0,000 mm 0,0 UV-I 98 W/m -0,7 C -3,2 C 17,7 km/h (3 Bft) 98,18 %
11.12.2017 10:38 1,1 C 3,9 C 88 % 989,9 hPa 0,0 l/m 9,4 km/h (2 Bft) O-NO 76 0 min 0,000 mm 0,0 UV-I 98 W/m -0,7 C -1,7 C 14,5 km/h (3 Bft) 96,23 %
11.12.2017 10:40 1,1 C 3,9 C 88 % 989,9 hPa 0,0 l/m 11,3 km/h (2 Bft) O-NO 67 0 min 0,000 mm 0,0 UV-I 98 W/m -0,7 C -3,2 C 16,1 km/h (3 Bft) 100,00 %
11.12.2017 10:42 1,1 C 3,9 C 88 % 989,8 hPa 0,0 l/m 9,7 km/h (2 Bft) NO 53 0 min 0,000 mm 0,0 UV-I 99 W/m -0,7 C -2,0 C 14,5 km/h (3 Bft) 95,74 %
11.12.2017 10:44 1,1 C 3,9 C 88 % 989,7 hPa 0,0 l/m 7,9 km/h (2 Bft) O-NO 68 0 min 0,000 mm 0,0 UV-I 105 W/m -0,7 C -0,4 C 12,9 km/h (3 Bft) 98,00 %
11.12.2017 10:46 1,1 C 3,9 C 88 % 989,7 hPa 0,0 l/m 10,6 km/h (2 Bft) O-NO 65 0 min 0,000 mm 0,0 UV-I 103 W/m -0,7 C -2,7 C 14,5 km/h (3 Bft) 96,15 %
11.12.2017 10:48 1,1 C 3,9 C 88 % 989,7 hPa 0,0 l/m 10,5 km/h (2 Bft) O-NO 72 0 min 0,000 mm 0,0 UV-I 102 W/m -0,7 C -2,6 C 14,5 km/h (3 Bft) 97,62 %
11.12.2017 10:50 1,1 C 3,9 C 88 % 989,5 hPa 0,0 l/m 11,6 km/h (2 Bft) O-NO 59 0 min 0,000 mm 0,0 UV-I 101 W/m -0,7 C -3,5 C 16,1 km/h (3 Bft) 96,00 %
11.12.2017 10:52 1,1 C 3,9 C 88 % 989,5 hPa 0,0 l/m 11,8 km/h (2 Bft) NO 53 0 min 0,000 mm 0,0 UV-I 98 W/m -0,7 C -3,6 C 16,1 km/h (3 Bft) 97,37 %
11.12.2017 10:54 1,1 C 3,9 C 88 % 989,4 hPa 0,0 l/m 12,8 km/h (3 Bft) O-NO 69 0 min 0,000 mm 0,0 UV-I 97 W/m -0,7 C -4,3 C 16,1 km/h (3 Bft) 98,00 %
11.12.2017 10:56 1,1 C 3,9 C 88 % 989,3 hPa 0,0 l/m 11,2 km/h (2 Bft) O-NO 77 0 min 0,000 mm 0,0 UV-I 94 W/m -0,7 C -3,2 C 14,5 km/h (3 Bft) 98,00 %
11.12.2017 10:58 1,0 C 3,9 C 88 % 989,4 hPa 0,0 l/m 11,7 km/h (2 Bft) O-NO 64 0 min 0,000 mm 0,0 UV-I 92 W/m -0,8 C -3,6 C 19,3 km/h (3 Bft) 97,56 %
11.12.2017 11:00 1,0 C 3,9 C 88 % 989,3 hPa 0,0 l/m 8,6 km/h (2 Bft) O-NO 78 0 min 0,051 mm 0,0 UV-I 92 W/m -0,8 C -1,2 C 12,9 km/h (3 Bft) 96,23 %
11.12.2017 11:02 1,0 C 3,9 C 88 % 989,3 hPa 0,0 l/m 6,3 km/h (2 Bft) O-NO 65 0 min 0,000 mm 0,0 UV-I 98 W/m -0,8 C 1,0 C 12,9 km/h (3 Bft) 95,74 %
11.12.2017 11:04 1,0 C 3,9 C 88 % 989,2 hPa 0,0 l/m 6,6 km/h (2 Bft) NO 37 0 min 0,000 mm 0,0 UV-I 105 W/m -0,8 C 0,8 C 8,0 km/h (2 Bft) 97,56 %
11.12.2017 11:06 1,0 C 3,9 C 89 % 989,2 hPa 0,0 l/m 8,8 km/h (2 Bft) NO 49 0 min 0,000 mm 0,0 UV-I 110 W/m -0,6 C -1,3 C 14,5 km/h (3 Bft) 98,21 %
11.12.2017 11:08 1,0 C 3,9 C 89 % 989,2 hPa 0,0 l/m 7,7 km/h (2 Bft) NO 53 0 min 0,000 mm 0,0 UV-I 112 W/m -0,6 C -0,3 C 9,7 km/h (2 Bft) 97,37 %
11.12.2017 11:10 1,0 C 3,9 C 89 % 989,1 hPa 0,0 l/m 8,5 km/h (2 Bft) O-NO 76 0 min 0,000 mm 0,0 UV-I 110 W/m -0,6 C -1,1 C 14,5 km/h (3 Bft) 100,00 %
11.12.2017 11:12 1,0 C 3,9 C 88 % 989,1 hPa 0,0 l/m 10,0 km/h (2 Bft) O-NO 64 0 min 0,000 mm 0,0 UV-I 111 W/m -0,8 C -2,3 C 16,1 km/h (3 Bft) 100,00 %
11.12.2017 11:14 1,0 C 3,9 C 89 % 989,2 hPa 0,0 l/m 6,8 km/h (2 Bft) O-NO 59 0 min 0,000 mm 0,0 UV-I 115 W/m -0,6 C 0,6 C 12,9 km/h (3 Bft) 100,00 %
11.12.2017 11:16 0,9 C 3,9 C 89 % 989,1 hPa 0,0 l/m 5,9 km/h (2 Bft) NO 42 0 min 0,000 mm 0,0 UV-I 114 W/m -0,7 C 0,9 C 8,0 km/h (2 Bft) 100,00 %
11.12.2017 11:18 1,0 C 3,9 C 89 % 989,1 hPa 0,0 l/m 8,3 km/h (2 Bft) NO 42 0 min 0,000 mm 0,0 UV-I 109 W/m -0,6 C -0,9 C 12,9 km/h (3 Bft) 100,00 %
11.12.2017 11:20 1,0 C 3,9 C 89 % 989,0 hPa 0,0 l/m 7,3 km/h (2 Bft) NO 38 0 min 0,000 mm 0,0 UV-I 105 W/m -0,6 C 0,1 C 9,7 km/h (2 Bft) 98,21 %
11.12.2017 11:22 1,0 C 3,9 C 89 % 988,9 hPa 0,0 l/m 5,7 km/h (1 Bft) O-NO 57 0 min 0,000 mm 0,0 UV-I 104 W/m -0,6 C 1,0 C 8,0 km/h (2 Bft) 100,00 %
11.12.2017 11:24 1,0 C 3,9 C 89 % 988,9 hPa 0,0 l/m 7,6 km/h (2 Bft) NO 56 0 min 0,000 mm 0,0 UV-I 103 W/m -0,6 C -0,2 C 9,7 km/h (2 Bft) 100,00 %
11.12.2017 11:26 1,0 C 3,9 C 89 % 988,7 hPa 0,0 l/m 7,8 km/h (2 Bft) NO 55 0 min 0,000 mm 0,0 UV-I 103 W/m -0,6 C -0,4 C 11,3 km/h (2 Bft) 100,00 %
11.12.2017 11:28 1,0 C 3,9 C 89 % 988,7 hPa 0,0 l/m 8,4 km/h (2 Bft) O-NO 59 0 min 0,000 mm 0,0 UV-I 103 W/m -0,6 C -1,0 C 12,9 km/h (3 Bft) 100,00 %
11.12.2017 11:30 0,9 C 3,9 C 89 % 988,6 hPa 0,0 l/m 7,1 km/h (2 Bft) NO 51 0 min 0,000 mm 0,0 UV-I 100 W/m -0,7 C 0,2 C 9,7 km/h (2 Bft) 100,00 %
11.12.2017 11:32 1,0 C 3,9 C 90 % 988,5 hPa 0,0 l/m 6,1 km/h (2 Bft) O-NO 57 0 min 0,000 mm 0,0 UV-I 97 W/m -0,5 C 1,0 C 8,0 km/h (2 Bft) 100,00 %
11.12.2017 11:34 0,9 C 3,9 C 90 % 988,6 hPa 0,0 l/m 6,2 km/h (2 Bft) O-NO 78 0 min 0,000 mm 0,0 UV-I 92 W/m -0,6 C 0,9 C 12,9 km/h (3 Bft) 97,73 %
11.12.2017 11:36 0,9 C 3,9 C 90 % 988,6 hPa 0,0 l/m 6,3 km/h (2 Bft) O-NO 76 0 min 0,000 mm 0,0 UV-I 88 W/m -0,6 C 0,9 C 9,7 km/h (2 Bft) 98,00 %
11.12.2017 11:38 0,9 C 3,9 C 90 % 988,6 hPa 0,0 l/m 5,1 km/h (1 Bft) O-NO 71 0 min 0,000 mm 0,0 UV-I 84 W/m -0,6 C 0,9 C 9,7 km/h (2 Bft) 96,23 %
11.12.2017 11:40 0,9 C 3,9 C 90 % 988,4 hPa 0,0 l/m 7,1 km/h (2 Bft) NO 48 0 min 0,000 mm 0,0 UV-I 82 W/m -0,6 C 0,2 C 9,7 km/h (2 Bft) 98,00 %
11.12.2017 11:42 0,9 C 3,9 C 90 % 988,4 hPa 0,0 l/m 7,0 km/h (2 Bft) O-NO 57 0 min 0,000 mm 0,0 UV-I 83 W/m -0,6 C 0,3 C 12,9 km/h (3 Bft) 97,14 %
11.12.2017 11:44 1,0 C 3,9 C 90 % 988,4 hPa 0,0 l/m 6,0 km/h (2 Bft) O-NO 58 0 min 0,000 mm 0,0 UV-I 84 W/m -0,5 C 1,0 C 8,0 km/h (2 Bft) 96,23 %
11.12.2017 11:46 1,0 C 3,9 C 90 % 988,5 hPa 0,0 l/m 6,3 km/h (2 Bft) O 84 0 min 0,000 mm 0,0 UV-I 84 W/m -0,5 C 1,0 C 11,3 km/h (2 Bft) 97,37 %
11.12.2017 11:48 1,1 C 3,9 C 90 % 988,2 hPa 0,0 l/m 5,0 km/h (1 Bft) NO 52 0 min 0,000 mm 0,0 UV-I 88 W/m -0,4 C 1,1 C 6,4 km/h (2 Bft) 98,21 %
11.12.2017 11:50 1,1 C 3,9 C 90 % 988,2 hPa 0,0 l/m 4,2 km/h (1 Bft) NO 53 0 min 0,000 mm 0,0 UV-I 95 W/m -0,4 C 1,1 C 6,4 km/h (2 Bft) 97,56 %
11.12.2017 11:52 1,1 C 3,9 C 90 % 988,1 hPa 0,0 l/m 5,0 km/h (1 Bft) NO 55 0 min 0,000 mm 0,0 UV-I 101 W/m -0,4 C 1,1 C 8,0 km/h (2 Bft) 98,00 %
11.12.2017 11:54 1,0 C 3,9 C 90 % 988,2 hPa 0,0 l/m 5,7 km/h (1 Bft) NO 53 0 min 0,000 mm 0,0 UV-I 102 W/m -0,5 C 1,0 C 8,0 km/h (2 Bft) 96,00 %
11.12.2017 11:56 1,0 C 3,9 C 90 % 988,0 hPa 0,0 l/m 4,4 km/h (1 Bft) O-NO 58 0 min 0,000 mm 0,0 UV-I 100 W/m -0,5 C 1,0 C 8,0 km/h (2 Bft) 97,87 %
11.12.2017 11:58 1,1 C 3,9 C 90 % 988,0 hPa 0,0 l/m 6,0 km/h (2 Bft) O-NO 69 0 min 0,000 mm 0,0 UV-I 95 W/m -0,4 C 1,1 C 9,7 km/h (2 Bft) 97,73 %
11.12.2017 12:00 1,1 C 3,9 C 90 % 988,0 hPa 0,0 l/m 7,7 km/h (2 Bft) NO 40 0 min 0,000 mm 0,0 UV-I 88 W/m -0,4 C -0,2 C 11,3 km/h (2 Bft) 96,08 %
11.12.2017 12:02 1,0 C 3,9 C 90 % 987,9 hPa 0,0 l/m 6,6 km/h (2 Bft) O-NO 58 0 min 0,051 mm 0,0 UV-I 83 W/m -0,5 C 0,8 C 9,7 km/h (2 Bft) 97,62 %
11.12.2017 12:04 1,1 C 3,9 C 90 % 987,9 hPa 0,0 l/m 6,1 km/h (2 Bft) O-NO 58 0 min 0,000 mm 0,0 UV-I 80 W/m -0,4 C 1,1 C 9,7 km/h (2 Bft) 90,24 %
11.12.2017 12:06 1,0 C 3,9 C 90 % 987,8 hPa 0,0 l/m 6,1 km/h (2 Bft) NO 51 0 min 0,000 mm 0,0 UV-I 80 W/m -0,5 C 1,0 C 11,3 km/h (2 Bft) 98,00 %
11.12.2017 12:09 1,0 C 3,9 C 91 % 987,6 hPa 0,0 l/m 7,3 km/h (2 Bft) N-NO 28 0 min 0,000 mm 0,0 UV-I 83 W/m -0,3 C 0,1 C 12,9 km/h (3 Bft) 96,20 %
11.12.2017 12:10 1,0 C 3,9 C 91 % 987,5 hPa 0,0 l/m 4,6 km/h (1 Bft) NO 34 0 min 0,000 mm 0,0 UV-I 86 W/m -0,3 C 1,0 C 6,4 km/h (2 Bft) 100,00 %
11.12.2017 12:12 1,0 C 3,9 C 91 % 987,5 hPa 0,0 l/m 6,7 km/h (2 Bft) NO 36 0 min 0,000 mm 0,0 UV-I 86 W/m -0,3 C 0,7 C 9,7 km/h (2 Bft) 98,00 %
11.12.2017 12:14 1,0 C 3,9 C 91 % 987,5 hPa 0,0 l/m 4,9 km/h (1 Bft) NO 55 0 min 0,000 mm 0,0 UV-I 81 W/m -0,3 C 1,0 C 8,0 km/h (2 Bft) 96,23 %
11.12.2017 12:16 1,1 C 3,9 C 91 % 987,5 hPa 0,0 l/m 4,3 km/h (1 Bft) NO 49 0 min 0,000 mm 0,0 UV-I 76 W/m -0,2 C 1,1 C 8,0 km/h (2 Bft) 95,12 %
11.12.2017 12:18 1,1 C 3,9 C 91 % 987,6 hPa 0,0 l/m 3,5 km/h (1 Bft) NO 34 0 min 0,000 mm 0,0 UV-I 70 W/m -0,2 C 1,1 C 6,4 km/h (2 Bft) 98,11 %
11.12.2017 12:20 1,1 C 3,9 C 91 % 987,6 hPa 0,0 l/m 4,0 km/h (1 Bft) O-NO 67 0 min 0,000 mm 0,0 UV-I 68 W/m -0,2 C 1,1 C 6,4 km/h (2 Bft) 92,11 %
11.12.2017 12:22 1,1 C 3,9 C 90 % 987,5 hPa 0,0 l/m 9,0 km/h (2 Bft) O-NO 59 0 min 0,000 mm 0,0 UV-I 65 W/m -0,4 C -1,4 C 12,9 km/h (3 Bft) 96,23 %
11.12.2017 12:24 1,1 C 3,9 C 91 % 987,4 hPa 0,0 l/m 9,0 km/h (2 Bft) NO 36 0 min 0,000 mm 0,0 UV-I 63 W/m -0,2 C -1,4 C 12,9 km/h (3 Bft) 98,00 %
11.12.2017 12:26 1,1 C 3,9 C 91 % 987,4 hPa 0,0 l/m 6,2 km/h (2 Bft) N-NO 32 0 min 0,000 mm 0,0 UV-I 62 W/m -0,2 C 1,1 C 9,7 km/h (2 Bft) 97,56 %
11.12.2017 12:28 1,1 C 3,9 C 91 % 987,4 hPa 0,0 l/m 7,0 km/h (2 Bft) NO 38 0 min 0,000 mm 0,0 UV-I 62 W/m -0,2 C 0,5 C 9,7 km/h (2 Bft) 98,00 %
11.12.2017 12:30 1,1 C 3,9 C 91 % 987,4 hPa 0,0 l/m 5,8 km/h (2 Bft) NO 54 0 min 0,000 mm 0,0 UV-I 62 W/m -0,2 C 1,1 C 9,7 km/h (2 Bft) 95,74 %
11.12.2017 12:33 1,1 C 3,9 C 91 % 987,2 hPa 0,0 l/m 6,6 km/h (2 Bft) NO 39 0 min 0,000 mm 0,0 UV-I 67 W/m -0,2 C 0,9 C 9,7 km/h (2 Bft) 98,53 %
11.12.2017 12:34 1,1 C 3,9 C 91 % 987,2 hPa 0,0 l/m 6,3 km/h (2 Bft) NO 34 0 min 0,000 mm 0,0 UV-I 71 W/m -0,2 C 1,1 C 8,0 km/h (2 Bft) 100,00 %
11.12.2017 12:36 1,1 C 3,9 C 91 % 987,2 hPa 0,0 l/m 5,8 km/h (2 Bft) O-NO 61 0 min 0,000 mm 0,0 UV-I 75 W/m -0,2 C 1,1 C 8,0 km/h (2 Bft) 93,18 %
11.12.2017 12:38 1,1 C 3,9 C 91 % 987,2 hPa 0,0 l/m 5,8 km/h (2 Bft) NO 51 0 min 0,000 mm 0,0 UV-I 80 W/m -0,2 C 1,1 C 9,7 km/h (2 Bft) 93,94 %
11.12.2017 12:40 1,1 C 3,9 C 91 % 987,3 hPa 0,0 l/m 4,8 km/h (1 Bft) O-NO 67 0 min 0,000 mm 0,0 UV-I 85 W/m -0,2 C 1,1 C 6,4 km/h (2 Bft) 96,88 %
11.12.2017 12:42 1,1 C 3,9 C 91 % 987,1 hPa 0,0 l/m 5,6 km/h (1 Bft) N-NO 30 0 min 0,000 mm 0,0 UV-I 89 W/m -0,2 C 1,1 C 8,0 km/h (2 Bft) 93,62 %
11.12.2017 12:44 1,1 C 3,9 C 92 % 986,9 hPa 0,0 l/m 6,5 km/h (2 Bft) N-NO 18 0 min 0,000 mm 0,0 UV-I 91 W/m -0,1 C 1,0 C 9,7 km/h (2 Bft) 92,86 %
11.12.2017 12:46 1,1 C 3,9 C 92 % 986,9 hPa 0,0 l/m 8,4 km/h (2 Bft) N-NO 15 0 min 0,000 mm 0,0 UV-I 91 W/m -0,1 C -0,9 C 12,9 km/h (3 Bft) 93,18 %
11.12.2017 12:48 1,1 C 3,9 C 92 % 987,0 hPa 0,0 l/m 6,5 km/h (2 Bft) N-NO 24 0 min 0,000 mm 0,0 UV-I 94 W/m -0,1 C 1,0 C 9,7 km/h (2 Bft) 98,21 %
11.12.2017 12:50 1,1 C 3,9 C 91 % 987,1 hPa 0,2 l/m 4,9 km/h (1 Bft) N-NO 26 0 min 0,000 mm 0,0 UV-I 95 W/m -0,2 C 1,1 C 8,0 km/h (2 Bft) 97,87 %
11.12.2017 12:52 1,1 C 3,9 C 92 % 987,1 hPa 0,0 l/m 2,8 km/h (1 Bft) N-NO 26 0 min 0,000 mm 0,0 UV-I 93 W/m -0,1 C 1,1 C 4,8 km/h (1 Bft) 95,12 %
11.12.2017 12:54 1,1 C 3,9 C 92 % 987,0 hPa 0,0 l/m 4,9 km/h (1 Bft) N-NO 16 0 min 0,000 mm 0,0 UV-I 89 W/m -0,1 C 1,1 C 8,0 km/h (2 Bft) 98,00 %
11.12.2017 12:56 1,1 C 3,9 C 92 % 987,0 hPa 0,0 l/m 5,7 km/h (1 Bft) N-NO 24 0 min 0,000 mm 0,0 UV-I 89 W/m -0,1 C 1,1 C 8,0 km/h (2 Bft) 98,00 %
11.12.2017 12:58 1,1 C 3,9 C 92 % 986,9 hPa 0,0 l/m 6,8 km/h (2 Bft) N-NO 28 0 min 0,000 mm 0,0 UV-I 92 W/m -0,1 C 0,7 C 9,7 km/h (2 Bft) 97,56 %
11.12.2017 13:00 1,1 C 3,9 C 92 % 987,0 hPa 0,0 l/m 5,6 km/h (1 Bft) NO 47 0 min 0,025 mm 0,0 UV-I 94 W/m -0,1 C 1,1 C 8,0 km/h (2 Bft) 94,00 %
11.12.2017 13:02 1,1 C 3,9 C 91 % 987,0 hPa 0,2 l/m 4,6 km/h (1 Bft) NO 42 0 min 0,000 mm 0,0 UV-I 96 W/m -0,2 C 1,1 C 8,0 km/h (2 Bft) 97,56 %
11.12.2017 13:04 1,2 C 3,9 C 91 % 986,9 hPa 0,0 l/m 6,3 km/h (2 Bft) N 11 0 min 0,000 mm 0,0 UV-I 97 W/m -0,1 C 1,2 C 11,3 km/h (2 Bft) 96,00 %
11.12.2017 13:06 1,2 C 3,9 C 91 % 987,0 hPa 0,0 l/m 5,5 km/h (1 Bft) NO 34 0 min 0,000 mm 0,0 UV-I 98 W/m -0,1 C 1,2 C 8,0 km/h (2 Bft) 96,00 %
11.12.2017 13:08 1,2 C 3,9 C 91 % 986,9 hPa 0,0 l/m 5,0 km/h (1 Bft) N-NO 23 0 min 0,000 mm 0,0 UV-I 101 W/m -0,1 C 1,2 C 8,0 km/h (2 Bft) 98,00 %
11.12.2017 13:10 1,2 C 3,9 C 91 % 987,0 hPa 0,0 l/m 1,6 km/h (1 Bft) N-NO 22 0 min 0,000 mm 0,0 UV-I 107 W/m -0,1 C 1,2 C 6,4 km/h (2 Bft) 95,74 %
11.12.2017 13:12 1,2 C 3,9 C 92 % 987,0 hPa 0,0 l/m 1,9 km/h (1 Bft) N-NO 22 0 min 0,000 mm 0,0 UV-I 113 W/m 0,0 C 1,2 C 4,8 km/h (1 Bft) 100,00 %
11.12.2017 13:14 1,2 C 3,9 C 91 % 987,1 hPa 0,0 l/m 2,7 km/h (1 Bft) N-NO 22 0 min 0,000 mm 0,0 UV-I 113 W/m -0,1 C 1,2 C 4,8 km/h (1 Bft) 97,87 %
11.12.2017 13:16 1,3 C 3,9 C 92 % 986,9 hPa 0,0 l/m 2,2 km/h (1 Bft) N-NO 22 0 min 0,000 mm 0,0 UV-I 108 W/m 0,1 C 1,3 C 4,8 km/h (1 Bft) 100,00 %
11.12.2017 13:18 1,3 C 3,9 C 91 % 986,8 hPa 0,2 l/m 3,6 km/h (1 Bft) N-NO 22 0 min 0,000 mm 0,0 UV-I 99 W/m -0,0 C 1,3 C 4,8 km/h (1 Bft) 97,87 %
11.12.2017 13:20 1,3 C 3,9 C 92 % 986,8 hPa 0,0 l/m 0,8 km/h (0 Bft) N-NO 22 0 min 0,000 mm 0,0 UV-I 89 W/m 0,1 C 1,3 C 3,2 km/h (1 Bft) 100,00 %
11.12.2017 13:22 1,3 C 3,9 C 91 % 986,8 hPa 0,0 l/m 0,0 km/h (0 Bft) N-NO 22 0 min 0,000 mm 0,0 UV-I 81 W/m -0,0 C 1,3 C 0,0 km/h (0 Bft) 98,00 %
11.12.2017 13:24 1,3 C 3,9 C 92 % 986,9 hPa 0,0 l/m 0,9 km/h (0 Bft) N-NO 22 0 min 0,000 mm 0,0 UV-I 75 W/m 0,1 C 1,3 C 3,2 km/h (1 Bft) 97,37 %
11.12.2017 13:26 1,3 C 3,9 C 91 % 986,8 hPa 0,0 l/m 3,3 km/h (1 Bft) N-NO 22 0 min 0,000 mm 0,0 UV-I 68 W/m -0,0 C 1,3 C 4,8 km/h (1 Bft) 100,00 %
11.12.2017 13:28 1,3 C 3,9 C 91 % 986,8 hPa 0,0 l/m 2,9 km/h (1 Bft) NO 49 0 min 0,000 mm 0,0 UV-I 64 W/m -0,0 C 1,3 C 4,8 km/h (1 Bft) 100,00 %
11.12.2017 13:30 1,3 C 3,9 C 92 % 986,9 hPa 0,0 l/m 2,3 km/h (1 Bft) O 101 0 min 0,000 mm 0,0 UV-I 62 W/m 0,1 C 1,3 C 4,8 km/h (1 Bft) 100,00 %
11.12.2017 13:32 1,3 C 3,9 C 92 % 986,8 hPa 0,0 l/m 0,9 km/h (0 Bft) O 101 0 min 0,000 mm 0,0 UV-I 61 W/m 0,1 C 1,3 C 3,2 km/h (1 Bft) 95,12 %
11.12.2017 13:34 1,4 C 3,9 C 92 % 986,8 hPa 0,0 l/m 0,6 km/h (0 Bft) O 101 0 min 0,000 mm 0,0 UV-I 62 W/m 0,2 C 1,4 C 3,2 km/h (1 Bft) 100,00 %
11.12.2017 13:36 1,4 C 3,9 C 91 % 987,0 hPa 0,0 l/m 3,4 km/h (1 Bft) S 180 0 min 0,000 mm 0,0 UV-I 63 W/m 0,1 C 1,4 C 6,4 km/h (2 Bft) 100,00 %
11.12.2017 13:38 1,4 C 3,9 C 91 % 987,0 hPa 0,2 l/m 4,5 km/h (1 Bft) S-SW 201 0 min 0,000 mm 0,0 UV-I 63 W/m 0,1 C 1,4 C 6,4 km/h (2 Bft) 100,00 %
11.12.2017 13:40 1,4 C 3,9 C 92 % 986,8 hPa 0,0 l/m 1,2 km/h (1 Bft) S-SW 201 0 min 0,000 mm 0,0 UV-I 62 W/m 0,2 C 1,4 C 3,2 km/h (1 Bft) 100,00 %
11.12.2017 13:42 1,4 C 3,9 C 92 % 986,9 hPa 0,0 l/m 1,2 km/h (1 Bft) S-SW 201 0 min 0,000 mm 0,0 UV-I 62 W/m 0,2 C 1,4 C 3,2 km/h (1 Bft) 98,00 %
11.12.2017 13:44 1,4 C 3,9 C 92 % 986,9 hPa 0,0 l/m 0,5 km/h (0 Bft) S-SW 201 0 min 0,000 mm 0,0 UV-I 60 W/m 0,2 C 1,4 C 1,6 km/h (1 Bft) 100,00 %
11.12.2017 13:46 1,4 C 3,9 C 92 % 986,6 hPa 0,0 l/m 2,2 km/h (1 Bft) S-SW 201 0 min 0,000 mm 0,0 UV-I 60 W/m 0,2 C 1,4 C 4,8 km/h (1 Bft) 100,00 %
11.12.2017 13:48 1,3 C 3,9 C 92 % 986,7 hPa 0,0 l/m 2,1 km/h (1 Bft) S-SW 201 0 min 0,000 mm 0,0 UV-I 59 W/m 0,1 C 1,3 C 6,4 km/h (2 Bft) 100,00 %
11.12.2017 13:50 1,3 C 3,9 C 92 % 986,8 hPa 0,0 l/m 3,2 km/h (1 Bft) S-SW 201 0 min 0,000 mm 0,0 UV-I 55 W/m 0,1 C 1,3 C 6,4 km/h (2 Bft) 97,37 %
11.12.2017 13:52 1,3 C 3,9 C 92 % 986,8 hPa 0,0 l/m 2,2 km/h (1 Bft) S-SW 201 0 min 0,000 mm 0,0 UV-I 51 W/m 0,1 C 1,3 C 3,2 km/h (1 Bft) 100,00 %
11.12.2017 13:54 1,3 C 3,9 C 92 % 986,8 hPa 0,0 l/m 2,7 km/h (1 Bft) S-SW 201 0 min 0,000 mm 0,0 UV-I 48 W/m 0,1 C 1,3 C 4,8 km/h (1 Bft) 97,87 %
11.12.2017 13:56 1,3 C 3,9 C 92 % 986,7 hPa 0,0 l/m 2,0 km/h (1 Bft) S-SW 201 0 min 0,000 mm 0,0 UV-I 45 W/m 0,1 C 1,3 C 3,2 km/h (1 Bft) 100,00 %
11.12.2017 13:58 1,3 C 3,9 C 93 % 986,8 hPa 0,0 l/m 1,4 km/h (1 Bft) S-SW 201 0 min 0,000 mm 0,0 UV-I 43 W/m 0,3 C 1,3 C 3,2 km/h (1 Bft) 97,44 %
11.12.2017 14:00 1,2 C 3,9 C 93 % 987,0 hPa 0,0 l/m 2,8 km/h (1 Bft) S-SW 201 0 min 0,000 mm 0,0 UV-I 40 W/m 0,2 C 1,2 C 4,8 km/h (1 Bft) 98,18 %
11.12.2017 14:02 1,2 C 3,9 C 92 % 987,1 hPa 0,0 l/m 4,8 km/h (1 Bft) S-SW 201 0 min 0,026 mm 0,0 UV-I 39 W/m 0,0 C 1,2 C 6,4 km/h (2 Bft) 100,00 %
11.12.2017 14:04 1,2 C 3,9 C 93 % 987,0 hPa 0,0 l/m 0,9 km/h (0 Bft) S-SW 201 0 min 0,000 mm 0,0 UV-I 36 W/m 0,2 C 1,2 C 4,8 km/h (1 Bft) 100,00 %
11.12.2017 14:06 1,2 C 3,9 C 92 % 986,9 hPa 0,0 l/m 2,1 km/h (1 Bft) S-SW 201 0 min 0,000 mm 0,0 UV-I 35 W/m 0,0 C 1,2 C 3,2 km/h (1 Bft) 100,00 %
11.12.2017 14:08 1,2 C 3,9 C 93 % 987,0 hPa 0,0 l/m 2,9 km/h (1 Bft) S-SW 201 0 min 0,000 mm 0,0 UV-I 33 W/m 0,2 C 1,2 C 4,8 km/h (1 Bft) 100,00 %
11.12.2017 14:10 1,1 C 3,9 C 93 % 987,0 hPa 0,0 l/m 4,3 km/h (1 Bft) S-SW 201 0 min 0,000 mm 0,0 UV-I 31 W/m 0,1 C 1,1 C 6,4 km/h (2 Bft) 100,00 %
11.12.2017 14:12 1,1 C 3,9 C 93 % 987,0 hPa 0,0 l/m 1,3 km/h (1 Bft) S-SW 201 0 min 0,000 mm 0,0 UV-I 30 W/m 0,1 C 1,1 C 3,2 km/h (1 Bft) 100,00 %
11.12.2017 14:14 1,1 C 3,9 C 93 % 987,1 hPa 0,0 l/m 1,8 km/h (1 Bft) S-SW 200 0 min 0,000 mm 0,0 UV-I 30 W/m 0,1 C 1,1 C 3,2 km/h (1 Bft) 100,00 %
11.12.2017 14:16 1,1 C 3,9 C 93 % 987,1 hPa 0,0 l/m 2,2 km/h (1 Bft) S-SW 192 0 min 0,000 mm 0,0 UV-I 29 W/m 0,1 C 1,1 C 4,8 km/h (1 Bft) 100,00 %
11.12.2017 14:18 1,1 C 3,9 C 93 % 987,1 hPa 0,0 l/m 3,8 km/h (1 Bft) S 180 0 min 0,000 mm 0,0 UV-I 28 W/m 0,1 C 1,1 C 6,4 km/h (2 Bft) 100,00 %
11.12.2017 14:20 1,1 C 3,9 C 93 % 987,0 hPa 0,0 l/m 2,0 km/h (1 Bft) S 180 0 min 0,000 mm 0,0 UV-I 28 W/m 0,1 C 1,1 C 4,8 km/h (1 Bft) 97,87 %
11.12.2017 14:22 1,1 C 3,9 C 93 % 986,9 hPa 0,0 l/m 1,6 km/h (1 Bft) S 179 0 min 0,000 mm 0,0 UV-I 28 W/m 0,1 C 1,1 C 4,8 km/h (1 Bft) 97,87 %
11.12.2017 14:24 1,1 C 3,9 C 93 % 986,7 hPa 0,2 l/m 1,6 km/h (1 Bft) S 179 0 min 0,000 mm 0,0 UV-I 28 W/m 0,1 C 1,1 C 4,8 km/h (1 Bft) 100,00 %
11.12.2017 14:26 1,1 C 3,9 C 93 % 986,7 hPa 0,0 l/m 1,5 km/h (1 Bft) S 179 0 min 0,000 mm 0,0 UV-I 30 W/m 0,1 C 1,1 C 4,8 km/h (1 Bft) 100,00 %
11.12.2017 14:28 1,1 C 3,9 C 93 % 986,9 hPa 0,0 l/m 3,0 km/h (1 Bft) S-SW 199 0 min 0,000 mm 0,0 UV-I 30 W/m 0,1 C 1,1 C 6,4 km/h (2 Bft) 100,00 %
11.12.2017 14:30 1,1 C 3,9 C 93 % 986,8 hPa 0,0 l/m 1,4 km/h (1 Bft) S-SW 199 0 min 0,000 mm 0,0 UV-I 32 W/m 0,1 C 1,1 C 4,8 km/h (1 Bft) 96,00 %
11.12.2017 14:32 1,1 C 3,9 C 93 % 986,9 hPa 0,0 l/m 1,7 km/h (1 Bft) S-SW 198 0 min 0,000 mm 0,0 UV-I 35 W/m 0,1 C 1,1 C 3,2 km/h (1 Bft) 100,00 %
11.12.2017 14:34 1,1 C 3,9 C 93 % 986,9 hPa 0,0 l/m 1,9 km/h (1 Bft) S-SW 199 0 min 0,000 mm 0,0 UV-I 42 W/m 0,1 C 1,1 C 3,2 km/h (1 Bft) 100,00 %
11.12.2017 14:36 1,1 C 3,9 C 93 % 987,0 hPa 0,0 l/m 0,9 km/h (0 Bft) S-SW 199 0 min 0,000 mm 0,0 UV-I 48 W/m 0,1 C 1,1 C 3,2 km/h (1 Bft) 100,00 %
11.12.2017 14:38 1,1 C 3,9 C 93 % 987,0 hPa 0,0 l/m 1,7 km/h (1 Bft) S-SW 199 0 min 0,000 mm 0,0 UV-I 40 W/m 0,1 C 1,1 C 3,2 km/h (1 Bft) 100,00 %
11.12.2017 14:40 1,1 C 3,9 C 93 % 987,1 hPa 0,0 l/m 4,7 km/h (1 Bft) S-SW 206 0 min 0,000 mm 0,0 UV-I 37 W/m 0,1 C 1,1 C 6,4 km/h (2 Bft) 98,00 %
11.12.2017 14:42 1,1 C 3,9 C 93 % 987,0 hPa 0,0 l/m 2,0 km/h (1 Bft) S-SW 206 0 min 0,000 mm 0,0 UV-I 35 W/m 0,1 C 1,1 C 4,8 km/h (1 Bft) 95,74 %
11.12.2017 14:44 1,0 C 3,9 C 93 % 987,1 hPa 0,0 l/m 0,0 km/h (0 Bft) S-SW 206 0 min 0,000 mm 0,0 UV-I 35 W/m -0,0 C 1,0 C 0,0 km/h (0 Bft) 97,56 %
11.12.2017 14:46 1,0 C 3,9 C 93 % 987,1 hPa 0,0 l/m 0,0 km/h (0 Bft) S-SW 206 0 min 0,000 mm 0,0 UV-I 35 W/m -0,0 C 1,0 C 1,6 km/h (1 Bft) 96,00 %
11.12.2017 14:48 0,9 C 3,9 C 93 % 987,1 hPa 0,0 l/m 0,0 km/h (0 Bft) S-SW 206 0 min 0,000 mm 0,0 UV-I 37 W/m -0,1 C 0,9 C 0,0 km/h (0 Bft) 95,74 %
11.12.2017 14:50 1,0 C 3,9 C 93 % 986,9 hPa 0,0 l/m 0,0 km/h (0 Bft) S-SW 206 0 min 0,000 mm 0,0 UV-I 39 W/m -0,0 C 1,0 C 0,0 km/h (0 Bft) 97,87 %
11.12.2017 14:52 0,9 C 3,9 C 93 % 986,9 hPa 0,0 l/m 0,0 km/h (0 Bft) S-SW 206 0 min 0,000 mm 0,0 UV-I 41 W/m -0,1 C 0,9 C 0,0 km/h (0 Bft) 98,11 %
11.12.2017 14:54 0,9 C 3,9 C 93 % 987,0 hPa 0,0 l/m 2,2 km/h (1 Bft) S-SW 206 0 min 0,000 mm 0,0 UV-I 45 W/m -0,1 C 0,9 C 4,8 km/h (1 Bft) 97,50 %
11.12.2017 14:56 0,9 C 3,9 C 94 % 987,0 hPa 0,0 l/m 1,3 km/h (1 Bft) S-SW 206 0 min 0,000 mm 0,0 UV-I 49 W/m 0,0 C 0,9 C 3,2 km/h (1 Bft) 94,00 %
11.12.2017 14:58 0,9 C 3,9 C 94 % 987,1 hPa 0,0 l/m 1,8 km/h (1 Bft) S-SW 206 0 min 0,000 mm 0,0 UV-I 53 W/m 0,0 C 0,9 C 3,2 km/h (1 Bft) 97,73 %
11.12.2017 15:00 0,9 C 3,9 C 94 % 987,1 hPa 0,0 l/m 1,4 km/h (1 Bft) S-SW 206 0 min 0,000 mm 0,0 UV-I 54 W/m 0,0 C 0,9 C 3,2 km/h (1 Bft) 97,87 %
11.12.2017 15:02 0,9 C 3,9 C 93 % 987,0 hPa 0,0 l/m 0,0 km/h (0 Bft) S-SW 206 0 min 0,025 mm 0,0 UV-I 53 W/m -0,1 C 0,9 C 1,6 km/h (1 Bft) 93,62 %
11.12.2017 15:04 0,8 C 3,9 C 94 % 987,0 hPa 0,0 l/m 0,0 km/h (0 Bft) S-SW 206 0 min 0,000 mm 0,0 UV-I 63 W/m -0,1 C 0,8 C 0,0 km/h (0 Bft) 98,11 %
11.12.2017 15:06 0,8 C 3,9 C 94 % 987,0 hPa 0,0 l/m 0,0 km/h (0 Bft) S-SW 206 0 min 0,000 mm 0,0 UV-I 66 W/m -0,1 C 0,8 C 0,0 km/h (0 Bft) 97,87 %
11.12.2017 15:08 0,8 C 3,9 C 94 % 987,0 hPa 0,0 l/m 0,3 km/h (0 Bft) S-SW 206 2 min 0,000 mm 0,0 UV-I 76 W/m -0,1 C 0,8 C 3,2 km/h (1 Bft) 97,37 %
11.12.2017 15:10 0,9 C 3,9 C 94 % 987,0 hPa 0,0 l/m 2,2 km/h (1 Bft) S-SW 206 2 min 0,000 mm 0,0 UV-I 88 W/m 0,0 C 0,9 C 3,2 km/h (1 Bft) 96,23 %
11.12.2017 15:12 1,1 C 3,9 C 94 % 986,9 hPa 0,0 l/m 2,6 km/h (1 Bft) S-SW 206 2 min 0,000 mm 0,0 UV-I 82 W/m 0,2 C 1,1 C 3,2 km/h (1 Bft) 94,74 %
11.12.2017 15:14 1,1 C 3,9 C 94 % 986,9 hPa 0,0 l/m 1,6 km/h (1 Bft) S-SW 206 0 min 0,000 mm 0,0 UV-I 61 W/m 0,2 C 1,1 C 3,2 km/h (1 Bft) 98,00 %
11.12.2017 15:16 1,2 C 3,9 C 94 % 986,9 hPa 0,0 l/m 0,1 km/h (0 Bft) S-SW 206 0 min 0,000 mm 0,0 UV-I 54 W/m 0,3 C 1,2 C 1,6 km/h (1 Bft) 98,11 %
11.12.2017 15:18 1,2 C 3,9 C 93 % 986,9 hPa 0,0 l/m 0,0 km/h (0 Bft) S-SW 206 2 min 0,000 mm 0,0 UV-I 58 W/m 0,2 C 1,2 C 0,0 km/h (0 Bft) 93,62 %
11.12.2017 15:20 1,2 C 3,9 C 93 % 987,0 hPa 0,0 l/m 0,0 km/h (0 Bft) S-SW 206 2 min 0,000 mm 0,0 UV-I 63 W/m 0,2 C 1,2 C 0,0 km/h (0 Bft) 100,00 %
11.12.2017 15:22 1,2 C 3,9 C 93 % 987,0 hPa 0,0 l/m 0,0 km/h (0 Bft) S-SW 206 2 min 0,000 mm 0,0 UV-I 59 W/m 0,2 C 1,2 C 1,6 km/h (1 Bft) 100,00 %
11.12.2017 15:24 1,2 C 3,9 C 93 % 986,9 hPa 0,0 l/m 1,3 km/h (1 Bft) S-SW 206 0 min 0,000 mm 0,0 UV-I 46 W/m 0,2 C 1,2 C 3,2 km/h (1 Bft) 95,83 %
11.12.2017 15:26 1,2 C 3,9 C 93 % 986,9 hPa 0,0 l/m 0,0 km/h (0 Bft) S-SW 206 0 min 0,000 mm 0,0 UV-I 40 W/m 0,2 C 1,2 C 0,0 km/h (0 Bft) 100,00 %
11.12.2017 15:28 1,2 C 3,9 C 93 % 986,8 hPa 0,2 l/m 1,4 km/h (1 Bft) S-SW 206 0 min 0,000 mm 0,0 UV-I 37 W/m 0,2 C 1,2 C 3,2 km/h (1 Bft) 98,00 %
11.12.2017 15:30 1,2 C 3,9 C 93 % 986,8 hPa 0,0 l/m 1,7 km/h (1 Bft) S-SW 206 0 min 0,000 mm 0,0 UV-I 35 W/m 0,2 C 1,2 C 4,8 km/h (1 Bft) 97,87 %
11.12.2017 15:32 1,2 C 3,9 C 93 % 987,0 hPa 0,0 l/m 2,8 km/h (1 Bft) S-SW 206 0 min 0,000 mm 0,0 UV-I 35 W/m 0,2 C 1,2 C 4,8 km/h (1 Bft) 98,00 %
11.12.2017 15:34 1,2 C 3,9 C 93 % 987,1 hPa 0,0 l/m 1,8 km/h (1 Bft) S-SW 206 0 min 0,000 mm 0,0 UV-I 33 W/m 0,2 C 1,2 C 4,8 km/h (1 Bft) 100,00 %
11.12.2017 15:36 1,2 C 3,9 C 93 % 987,0 hPa 0,0 l/m 3,2 km/h (1 Bft) NO 49 0 min 0,000 mm 0,0 UV-I 33 W/m 0,2 C 1,2 C 4,8 km/h (1 Bft) 98,00 %
11.12.2017 15:38 1,2 C 3,9 C 93 % 986,8 hPa 0,0 l/m 4,9 km/h (1 Bft) NO 49 2 min 0,000 mm 0,0 UV-I 34 W/m 0,2 C 1,2 C 6,4 km/h (2 Bft) 100,00 %
11.12.2017 15:40 1,2 C 3,9 C 93 % 986,8 hPa 0,0 l/m 1,7 km/h (1 Bft) NO 49 2 min 0,000 mm 0,0 UV-I 41 W/m 0,2 C 1,2 C 4,8 km/h (1 Bft) 97,56 %
11.12.2017 15:42 1,1 C 3,9 C 93 % 986,9 hPa 0,0 l/m 0,0 km/h (0 Bft) NO 49 2 min 0,000 mm 0,0 UV-I 38 W/m 0,1 C 1,1 C 0,0 km/h (0 Bft) 100,00 %
11.12.2017 15:44 1,2 C 3,9 C 93 % 986,9 hPa 0,0 l/m 0,3 km/h (0 Bft) NO 49 2 min 0,000 mm 0,0 UV-I 30 W/m 0,2 C 1,2 C 1,6 km/h (1 Bft) 100,00 %
11.12.2017 15:46 1,1 C 3,9 C 93 % 986,8 hPa 0,0 l/m 2,4 km/h (1 Bft) NO 49 2 min 0,000 mm 0,0 UV-I 30 W/m 0,1 C 1,1 C 3,2 km/h (1 Bft) 100,00 %
11.12.2017 15:48 1,1 C 3,9 C 93 % 986,6 hPa 0,0 l/m 3,0 km/h (1 Bft) NO 49 2 min 0,000 mm 0,0 UV-I 27 W/m 0,1 C 1,1 C 3,2 km/h (1 Bft) 100,00 %
11.12.2017 15:50 1,1 C 3,9 C 93 % 986,7 hPa 0,0 l/m 2,0 km/h (1 Bft) NO 49 2 min 0,000 mm 0,0 UV-I 23 W/m 0,1 C 1,1 C 3,2 km/h (1 Bft) 100,00 %
11.12.2017 15:52 1,1 C 3,9 C 93 % 986,6 hPa 0,0 l/m 0,6 km/h (0 Bft) NO 49 2 min 0,000 mm 0,0 UV-I 20 W/m 0,1 C 1,1 C 3,2 km/h (1 Bft) 97,87 %
11.12.2017 15:54 1,0 C 3,9 C 93 % 986,6 hPa 0,0 l/m 0,7 km/h (0 Bft) NO 49 2 min 0,000 mm 0,0 UV-I 18 W/m -0,0 C 1,0 C 3,2 km/h (1 Bft) 100,00 %
11.12.2017 15:56 0,9 C 3,9 C 93 % 986,6 hPa 0,0 l/m 1,8 km/h (1 Bft) NO 49 2 min 0,000 mm 0,0 UV-I 17 W/m -0,1 C 0,9 C 4,8 km/h (1 Bft) 100,00 %
11.12.2017 15:58 0,9 C 3,9 C 94 % 986,6 hPa 0,0 l/m 4,6 km/h (1 Bft) O-NO 61 0 min 0,000 mm 0,0 UV-I 16 W/m 0,0 C 0,9 C 6,4 km/h (2 Bft) 100,00 %
11.12.2017 16:00 0,8 C 3,9 C 94 % 986,7 hPa 0,0 l/m 4,4 km/h (1 Bft) O-NO 61 0 min 0,026 mm 0,0 UV-I 14 W/m -0,1 C 0,8 C 6,4 km/h (2 Bft) 100,00 %
11.12.2017 16:03 0,7 C 3,9 C 94 % 986,6 hPa 0,0 l/m 1,1 km/h (1 Bft) O-NO 61 0 min 0,000 mm 0,0 UV-I 12 W/m -0,2 C 0,7 C 3,2 km/h (1 Bft) 96,92 %
11.12.2017 16:04 0,8 C 3,9 C 94 % 986,6 hPa 0,0 l/m 1,7 km/h (1 Bft) O-NO 61 0 min 0,000 mm 0,0 UV-I 12 W/m -0,1 C 0,8 C 3,2 km/h (1 Bft) 100,00 %
11.12.2017 16:06 0,8 C 3,9 C 94 % 986,6 hPa 0,0 l/m 1,0 km/h (0 Bft) O-NO 61 0 min 0,000 mm 0,0 UV-I 11 W/m -0,1 C 0,8 C 1,6 km/h (1 Bft) 100,00 %
11.12.2017 16:08 0,7 C 3,9 C 94 % 986,6 hPa 0,0 l/m 0,0 km/h (0 Bft) O-NO 61 0 min 0,000 mm 0,0 UV-I 11 W/m -0,2 C 0,7 C 0,0 km/h (0 Bft) 100,00 %
11.12.2017 16:10 0,7 C 3,9 C 94 % 986,5 hPa 0,0 l/m 0,0 km/h (0 Bft) O-NO 61 0 min 0,000 mm 0,0 UV-I 9 W/m -0,2 C 0,7 C 0,0 km/h (0 Bft) 97,37 %
11.12.2017 16:12 0,7 C 3,9 C 94 % 986,5 hPa 0,0 l/m 2,3 km/h (1 Bft) O-NO 61 0 min 0,000 mm 0,0 UV-I 9 W/m -0,2 C 0,7 C 4,8 km/h (1 Bft) 100,00 %
11.12.2017 16:14 0,5 C 3,9 C 94 % 986,4 hPa 0,0 l/m 3,6 km/h (1 Bft) O-NO 63 0 min 0,000 mm 0,0 UV-I 7 W/m -0,4 C 0,5 C 4,8 km/h (1 Bft) 100,00 %
11.12.2017 16:16 0,3 C 3,9 C 94 % 986,4 hPa 0,0 l/m 3,8 km/h (1 Bft) O-NO 63 0 min 0,000 mm 0,0 UV-I 5 W/m -0,5 C 0,3 C 4,8 km/h (1 Bft) 100,00 %
11.12.2017 16:18 0,3 C 3,9 C 95 % 986,4 hPa 0,0 l/m 1,5 km/h (1 Bft) O-NO 63 0 min 0,000 mm 0,0 UV-I 5 W/m -0,4 C 0,3 C 3,2 km/h (1 Bft) 96,00 %
11.12.2017 16:20 0,3 C 3,9 C 95 % 986,5 hPa 0,0 l/m 1,2 km/h (1 Bft) O-NO 63 0 min 0,000 mm 0,0 UV-I 5 W/m -0,4 C 0,3 C 3,2 km/h (1 Bft) 97,87 %
11.12.2017 16:22 0,3 C 3,9 C 95 % 986,4 hPa 0,0 l/m 1,4 km/h (1 Bft) O-NO 63 0 min 0,000 mm 0,0 UV-I 2 W/m -0,4 C 0,3 C 3,2 km/h (1 Bft) 96,00 %
11.12.2017 16:24 0,4 C 3,9 C 95 % 986,4 hPa 0,0 l/m 0,6 km/h (0 Bft) O-NO 63 0 min 0,000 mm 0,0 UV-I 0 W/m -0,3 C 0,4 C 3,2 km/h (1 Bft) 97,37 %
11.12.2017 16:26 0,4 C 3,9 C 95 % 986,4 hPa 0,0 l/m 0,3 km/h (0 Bft) O-NO 63 0 min 0,000 mm 0,0 UV-I 0 W/m -0,3 C 0,4 C 1,6 km/h (1 Bft) 98,00 %
11.12.2017 16:28 0,4 C 3,9 C 95 % 986,4 hPa 0,0 l/m 2,8 km/h (1 Bft) O-NO 63 0 min 0,000 mm 0,0 UV-I 0 W/m -0,3 C 0,4 C 4,8 km/h (1 Bft) 96,00 %
11.12.2017 16:30 0,3 C 3,9 C 95 % 986,4 hPa 0,0 l/m 2,9 km/h (1 Bft) O-NO 63 0 min 0,000 mm 0,0 UV-I 0 W/m -0,4 C 0,3 C 4,8 km/h (1 Bft) 97,56 %
11.12.2017 16:32 0,3 C 3,9 C 95 % 986,4 hPa 0,0 l/m 0,9 km/h (0 Bft) O-NO 63 0 min 0,000 mm 0,0 UV-I 0 W/m -0,4 C 0,3 C 3,2 km/h (1 Bft) 97,87 %
11.12.2017 16:34 0,4 C 3,9 C 95 % 986,4 hPa 0,0 l/m 0,0 km/h (0 Bft) O-NO 63 0 min 0,000 mm 0,0 UV-I 0 W/m -0,3 C 0,4 C 0,0 km/h (0 Bft) 94,00 %
11.12.2017 16:36 0,4 C 3,9 C 95 % 986,3 hPa 0,0 l/m 0,2 km/h (0 Bft) O-NO 63 0 min 0,000 mm 0,0 UV-I 0 W/m -0,3 C 0,4 C 3,2 km/h (1 Bft) 97,87 %
11.12.2017 16:38 0,4 C 3,9 C 95 % 986,2 hPa 0,0 l/m 3,3 km/h (1 Bft) O-NO 63 0 min 0,000 mm 0,0 UV-I 0 W/m -0,3 C 0,4 C 4,8 km/h (1 Bft) 97,78 %
11.12.2017 16:40 0,4 C 3,9 C 95 % 986,2 hPa 0,0 l/m 3,9 km/h (1 Bft) O-NO 64 0 min 0,000 mm 0,0 UV-I 0 W/m -0,3 C 0,4 C 6,4 km/h (2 Bft) 97,87 %
11.12.2017 16:42 0,5 C 3,9 C 95 % 986,2 hPa 0,0 l/m 5,3 km/h (1 Bft) SO 128 0 min 0,000 mm 0,0 UV-I 0 W/m -0,2 C 0,5 C 11,3 km/h (2 Bft) 92,45 %
11.12.2017 16:44 0,7 C 3,9 C 96 % 986,3 hPa 0,0 l/m 2,9 km/h (1 Bft) O 95 0 min 0,000 mm 0,0 UV-I 0 W/m 0,1 C 0,7 C 6,4 km/h (2 Bft) 97,37 %
11.12.2017 16:46 0,6 C 3,9 C 95 % 986,3 hPa 0,0 l/m 1,7 km/h (1 Bft) O 95 0 min 0,000 mm 0,0 UV-I 0 W/m -0,1 C 0,6 C 4,8 km/h (1 Bft) 94,34 %
11.12.2017 16:48 0,4 C 3,9 C 94 % 986,4 hPa 0,0 l/m 1,8 km/h (1 Bft) O 94 0 min 0,000 mm 0,0 UV-I 0 W/m -0,5 C 0,4 C 4,8 km/h (1 Bft) 97,87 %
11.12.2017 16:50 0,3 C 3,9 C 95 % 986,3 hPa 0,0 l/m 0,8 km/h (0 Bft) O 94 0 min 0,000 mm 0,0 UV-I 0 W/m -0,4 C 0,3 C 3,2 km/h (1 Bft) 97,37 %
11.12.2017 16:52 0,2 C 3,9 C 95 % 986,3 hPa 0,0 l/m 0,6 km/h (0 Bft) O 94 0 min 0,000 mm 0,0 UV-I 0 W/m -0,5 C 0,2 C 1,6 km/h (1 Bft) 96,00 %
11.12.2017 16:54 0,1 C 3,9 C 95 % 986,3 hPa 0,0 l/m 0,9 km/h (0 Bft) O 94 0 min 0,000 mm 0,0 UV-I 0 W/m -0,6 C 0,1 C 3,2 km/h (1 Bft) 98,00 %
11.12.2017 16:56 0,1 C 3,9 C 95 % 986,4 hPa 0,0 l/m 0,0 km/h (0 Bft) O 94 0 min 0,000 mm 0,0 UV-I 0 W/m -0,6 C 0,1 C 0,0 km/h (0 Bft) 98,00 %
11.12.2017 16:58 0,1 C 3,9 C 95 % 986,5 hPa 0,0 l/m 1,5 km/h (1 Bft) O 94 0 min 0,000 mm 0,0 UV-I 0 W/m -0,6 C 0,1 C 4,8 km/h (1 Bft) 100,00 %
11.12.2017 17:00 0,1 C 3,9 C 96 % 986,4 hPa 0,0 l/m 1,7 km/h (1 Bft) O 94 0 min 0,000 mm 0,0 UV-I 0 W/m -0,5 C 0,1 C 3,2 km/h (1 Bft) 98,11 %
11.12.2017 17:02 0,2 C 3,9 C 96 % 986,3 hPa 0,0 l/m 0,0 km/h (0 Bft) O 94 0 min 0,000 mm 0,0 UV-I 0 W/m -0,4 C 0,2 C 0,0 km/h (0 Bft) 88,00 %
11.12.2017 17:04 0,2 C 3,9 C 96 % 986,2 hPa 0,0 l/m 0,5 km/h (0 Bft) O 94 0 min 0,000 mm 0,0 UV-I 0 W/m -0,4 C 0,2 C 1,6 km/h (1 Bft) 93,62 %
11.12.2017 17:06 0,1 C 3,9 C 95 % 986,2 hPa 0,0 l/m 1,1 km/h (1 Bft) O 94 0 min 0,000 mm 0,0 UV-I 0 W/m -0,6 C 0,1 C 1,6 km/h (1 Bft) 93,62 %
11.12.2017 17:08 -0,1 C 3,9 C 95 % 986,1 hPa 0,0 l/m 3,1 km/h (1 Bft) O 94 0 min 0,000 mm 0,0 UV-I 0 W/m -0,8 C -0,1 C 4,8 km/h (1 Bft) 93,62 %
11.12.2017 17:10 0,0 C 3,9 C 96 % 986,2 hPa 0,0 l/m 3,4 km/h (1 Bft) O 94 0 min 0,000 mm 0,0 UV-I 0 W/m -0,6 C 0,0 C 4,8 km/h (1 Bft) 94,74 %
11.12.2017 17:12 0,0 C 3,9 C 96 % 986,1 hPa 0,0 l/m 4,1 km/h (1 Bft) O 94 0 min 0,000 mm 0,0 UV-I 0 W/m -0,6 C 0,0 C 6,4 km/h (2 Bft) 96,23 %
11.12.2017 17:14 0,3 C 3,9 C 96 % 986,1 hPa 0,0 l/m 4,3 km/h (1 Bft) NO 43 0 min 0,000 mm 0,0 UV-I 0 W/m -0,3 C 0,3 C 6,4 km/h (2 Bft) 92,59 %
11.12.2017 17:16 0,4 C 3,9 C 96 % 986,1 hPa 0,0 l/m 2,6 km/h (1 Bft) NO 43 0 min 0,000 mm 0,0 UV-I 0 W/m -0,2 C 0,4 C 4,8 km/h (1 Bft) 97,01 %
11.12.2017 17:18 0,6 C 3,9 C 96 % 986,3 hPa 0,0 l/m 1,4 km/h (1 Bft) NO 43 0 min 0,000 mm 0,0 UV-I 0 W/m 0,0 C 0,6 C 4,8 km/h (1 Bft) 93,62 %
11.12.2017 17:20 0,4 C 3,9 C 95 % 986,3 hPa 0,0 l/m 1,4 km/h (1 Bft) NO 43 0 min 0,000 mm 0,0 UV-I 0 W/m -0,3 C 0,4 C 3,2 km/h (1 Bft) 93,62 %
11.12.2017 17:22 0,3 C 3,9 C 95 % 986,4 hPa 0,0 l/m 0,2 km/h (0 Bft) NO 43 0 min 0,000 mm 0,0 UV-I 0 W/m -0,4 C 0,3 C 1,6 km/h (1 Bft) 94,44 %
11.12.2017 17:24 0,3 C 3,9 C 95 % 986,4 hPa 0,0 l/m 2,5 km/h (1 Bft) NO 43 0 min 0,000 mm 0,0 UV-I 0 W/m -0,4 C 0,3 C 3,2 km/h (1 Bft) 94,00 %
11.12.2017 17:26 0,3 C 3,9 C 95 % 986,4 hPa 0,0 l/m 4,5 km/h (1 Bft) O-NO 63 0 min 0,000 mm 0,0 UV-I 0 W/m -0,4 C 0,3 C 6,4 km/h (2 Bft) 94,00 %
11.12.2017 17:28 0,2 C 3,9 C 95 % 986,4 hPa 0,0 l/m 3,2 km/h (1 Bft) SO 124 0 min 0,000 mm 0,0 UV-I 0 W/m -0,5 C 0,2 C 8,0 km/h (2 Bft) 95,74 %
11.12.2017 17:30 0,2 C 3,9 C 95 % 986,4 hPa 0,0 l/m 1,4 km/h (1 Bft) SO 124 0 min 0,000 mm 0,0 UV-I 0 W/m -0,5 C 0,2 C 4,8 km/h (1 Bft) 97,87 %
11.12.2017 17:32 0,1 C 3,9 C 95 % 986,4 hPa 0,0 l/m 0,7 km/h (0 Bft) SO 124 0 min 0,000 mm 0,0 UV-I 0 W/m -0,6 C 0,1 C 3,2 km/h (1 Bft) 97,87 %
11.12.2017 17:34 0,1 C 3,9 C 95 % 986,3 hPa 0,0 l/m 2,3 km/h (1 Bft) S-SW 204 0 min 0,000 mm 0,0 UV-I 0 W/m -0,6 C 0,1 C 4,8 km/h (1 Bft) 98,00 %
11.12.2017 17:36 0,3 C 3,9 C 96 % 986,3 hPa 0,0 l/m 1,9 km/h (1 Bft) S-SW 195 0 min 0,000 mm 0,0 UV-I 0 W/m -0,3 C 0,3 C 3,2 km/h (1 Bft) 93,18 %
11.12.2017 17:38 0,4 C 3,9 C 96 % 986,3 hPa 0,0 l/m 3,1 km/h (1 Bft) NW 317 0 min 0,000 mm 0,0 UV-I 0 W/m -0,2 C 0,4 C 4,8 km/h (1 Bft) 98,11 %
11.12.2017 17:40 0,3 C 3,9 C 95 % 986,3 hPa 0,0 l/m 2,0 km/h (1 Bft) NW 318 0 min 0,000 mm 0,0 UV-I 0 W/m -0,4 C 0,3 C 4,8 km/h (1 Bft) 97,56 %
11.12.2017 17:42 0,0 C 3,9 C 95 % 986,4 hPa 0,0 l/m 0,6 km/h (0 Bft) NW 318 0 min 0,000 mm 0,0 UV-I 0 W/m -0,7 C 0,0 C 1,6 km/h (1 Bft) 98,00 %
11.12.2017 17:44 -0,2 C 3,9 C 95 % 986,5 hPa 0,0 l/m 0,5 km/h (0 Bft) N 355 0 min 0,000 mm 0,0 UV-I 0 W/m -0,9 C -0,2 C 1,6 km/h (1 Bft) 100,00 %
11.12.2017 17:46 -0,1 C 3,9 C 95 % 986,5 hPa 0,0 l/m 0,8 km/h (0 Bft) N 355 0 min 0,000 mm 0,0 UV-I 0 W/m -0,8 C -0,1 C 3,2 km/h (1 Bft) 100,00 %
11.12.2017 17:48 0,1 C 3,9 C 96 % 986,6 hPa 0,0 l/m 1,8 km/h (1 Bft) N 355 0 min 0,000 mm 0,0 UV-I 0 W/m -0,5 C 0,1 C 3,2 km/h (1 Bft) 100,00 %
11.12.2017 17:50 0,3 C 3,9 C 96 % 986,7 hPa 0,0 l/m 0,6 km/h (0 Bft) N-NW 348 0 min 0,000 mm 0,0 UV-I 0 W/m -0,3 C 0,3 C 3,2 km/h (1 Bft) 100,00 %
11.12.2017 17:52 0,4 C 3,9 C 96 % 986,6 hPa 0,0 l/m 0,7 km/h (0 Bft) N-NW 348 0 min 0,000 mm 0,0 UV-I 0 W/m -0,2 C 0,4 C 1,6 km/h (1 Bft) 97,87 %
11.12.2017 17:54 0,4 C 3,9 C 96 % 986,6 hPa 0,0 l/m 0,5 km/h (0 Bft) N-NW 348 0 min 0,000 mm 0,0 UV-I 0 W/m -0,2 C 0,4 C 1,6 km/h (1 Bft) 100,00 %
11.12.2017 17:56 0,6 C 3,9 C 96 % 986,7 hPa 0,0 l/m 0,0 km/h (0 Bft) N-NW 348 0 min 0,000 mm 0,0 UV-I 0 W/m 0,0 C 0,6 C 1,6 km/h (1 Bft) 100,00 %
11.12.2017 17:58 0,6 C 3,9 C 96 % 986,7 hPa 0,0 l/m 0,0 km/h (0 Bft) N-NW 348 0 min 0,000 mm 0,0 UV-I 0 W/m 0,0 C 0,6 C 0,0 km/h (0 Bft) 100,00 %
11.12.2017 18:00 0,5 C 3,9 C 95 % 986,6 hPa 0,0 l/m 1,5 km/h (1 Bft) N 5 0 min 0,000 mm 0,0 UV-I 0 W/m -0,2 C 0,5 C 4,8 km/h (1 Bft) 97,87 %
11.12.2017 18:03 0,4 C 3,9 C 94 % 986,5 hPa 0,0 l/m 5,0 km/h (1 Bft) SO 137 0 min 0,000 mm 0,0 UV-I 0 W/m -0,5 C 0,4 C 8,0 km/h (2 Bft) 100,00 %
11.12.2017 18:04 0,4 C 3,9 C 95 % 986,5 hPa 0,0 l/m 6,2 km/h (2 Bft) SO 136 0 min 0,000 mm 0,0 UV-I 0 W/m -0,3 C 0,4 C 8,0 km/h (2 Bft) 100,00 %
11.12.2017 18:06 0,3 C 3,9 C 95 % 986,5 hPa 0,0 l/m 4,8 km/h (1 Bft) SO 144 0 min 0,000 mm 0,0 UV-I 0 W/m -0,4 C 0,3 C 6,4 km/h (2 Bft) 100,00 %
11.12.2017 18:08 0,3 C 3,9 C 95 % 986,4 hPa 0,0 l/m 4,9 km/h (1 Bft) SO 144 0 min 0,000 mm 0,0 UV-I 0 W/m -0,4 C 0,3 C 6,4 km/h (2 Bft) 100,00 %
11.12.2017 18:10 0,2 C 3,9 C 95 % 986,4 hPa 0,0 l/m 3,9 km/h (1 Bft) SO 142 0 min 0,000 mm 0,0 UV-I 0 W/m -0,5 C 0,2 C 6,4 km/h (2 Bft) 97,73 %
11.12.2017 18:12 0,2 C 3,9 C 95 % 986,5 hPa 0,0 l/m 2,3 km/h (1 Bft) S-SO 147 0 min 0,000 mm 0,0 UV-I 0 W/m -0,5 C 0,2 C 3,2 km/h (1 Bft) 100,00 %
11.12.2017 18:14 0,3 C 3,9 C 95 % 986,5 hPa 0,0 l/m 1,3 km/h (1 Bft) S-SO 147 0 min 0,000 mm 0,0 UV-I 0 W/m -0,4 C 0,3 C 3,2 km/h (1 Bft) 100,00 %
11.12.2017 18:16 0,3 C 3,9 C 96 % 986,5 hPa 0,0 l/m 0,9 km/h (0 Bft) S-SO 147 0 min 0,000 mm 0,0 UV-I 0 W/m -0,3 C 0,3 C 3,2 km/h (1 Bft) 100,00 %
11.12.2017 18:18 0,3 C 3,9 C 95 % 986,6 hPa 0,0 l/m 2,4 km/h (1 Bft) NW 316 0 min 0,000 mm 0,0 UV-I 0 W/m -0,4 C 0,3 C 4,8 km/h (1 Bft) 100,00 %
11.12.2017 18:20 0,2 C 3,9 C 95 % 986,7 hPa 0,0 l/m 1,9 km/h (1 Bft) NW 315 0 min 0,000 mm 0,0 UV-I 0 W/m -0,5 C 0,2 C 3,2 km/h (1 Bft) 100,00 %
11.12.2017 18:22 -0,1 C 3,9 C 95 % 986,7 hPa 0,0 l/m 1,1 km/h (1 Bft) NW 315 0 min 0,000 mm 0,0 UV-I 0 W/m -0,8 C -0,1 C 3,2 km/h (1 Bft) 100,00 %
11.12.2017 18:24 -0,2 C 3,9 C 95 % 986,7 hPa 0,0 l/m 0,1 km/h (0 Bft) NW 323 0 min 0,000 mm 0,0 UV-I 0 W/m -0,9 C -0,2 C 1,6 km/h (1 Bft) 98,11 %
11.12.2017 18:26 -0,1 C 3,9 C 95 % 986,7 hPa 0,0 l/m 0,4 km/h (0 Bft) NW 323 0 min 0,000 mm 0,0 UV-I 0 W/m -0,8 C -0,1 C 3,2 km/h (1 Bft) 100,00 %
11.12.2017 18:28 0,3 C 3,9 C 96 % 986,7 hPa 0,0 l/m 3,5 km/h (1 Bft) O-NO 68 0 min 0,000 mm 0,0 UV-I 0 W/m -0,3 C 0,3 C 6,4 km/h (2 Bft) 100,00 %
11.12.2017 18:30 0,9 C 3,9 C 97 % 986,7 hPa 0,0 l/m 7,3 km/h (2 Bft) NO 43 0 min 0,000 mm 0,0 UV-I 0 W/m 0,5 C -0,0 C 9,7 km/h (2 Bft) 100,00 %
11.12.2017 18:32 1,3 C 3,9 C 97 % 986,7 hPa 0,0 l/m 8,2 km/h (2 Bft) O-NO 57 0 min 0,000 mm 0,0 UV-I 0 W/m 0,9 C -0,5 C 9,7 km/h (2 Bft) 100,00 %
11.12.2017 18:34 1,8 C 3,9 C 97 % 986,6 hPa 0,0 l/m 7,3 km/h (2 Bft) NO 53 0 min 0,000 mm 0,0 UV-I 0 W/m 1,4 C 0,9 C 9,7 km/h (2 Bft) 100,00 %
11.12.2017 18:36 2,2 C 3,9 C 96 % 986,8 hPa 0,0 l/m 6,3 km/h (2 Bft) NO 46 0 min 0,000 mm 0,0 UV-I 0 W/m 1,6 C 2,2 C 8,0 km/h (2 Bft) 97,62 %
11.12.2017 18:38 2,6 C 3,9 C 96 % 986,8 hPa 0,0 l/m 6,1 km/h (2 Bft) NO 40 0 min 0,000 mm 0,0 UV-I 0 W/m 2,0 C 2,6 C 8,0 km/h (2 Bft) 100,00 %
11.12.2017 18:40 2,6 C 3,9 C 94 % 986,9 hPa 0,0 l/m 3,7 km/h (1 Bft) NO 40 0 min 0,000 mm 0,0 UV-I 0 W/m 1,7 C 2,6 C 4,8 km/h (1 Bft) 100,00 %
11.12.2017 18:42 2,2 C 3,9 C 91 % 986,9 hPa 0,0 l/m 1,3 km/h (1 Bft) NO 40 0 min 0,000 mm 0,0 UV-I 0 W/m 0,9 C 2,2 C 3,2 km/h (1 Bft) 100,00 %
11.12.2017 18:44 1,7 C 3,9 C 91 % 986,9 hPa 0,0 l/m 0,2 km/h (0 Bft) NO 40 0 min 0,000 mm 0,0 UV-I 0 W/m 0,4 C 1,7 C 1,6 km/h (1 Bft) 100,00 %
11.12.2017 18:46 1,3 C 3,9 C 93 % 987,1 hPa 0,0 l/m 0,6 km/h (0 Bft) NO 40 0 min 0,000 mm 0,0 UV-I 0 W/m 0,3 C 1,3 C 1,6 km/h (1 Bft) 100,00 %
11.12.2017 18:48 1,1 C 3,9 C 93 % 987,0 hPa 0,0 l/m 2,7 km/h (1 Bft) NO 40 0 min 0,000 mm 0,0 UV-I 0 W/m 0,1 C 1,1 C 4,8 km/h (1 Bft) 100,00 %
11.12.2017 18:50 1,5 C 3,9 C 94 % 987,0 hPa 0,0 l/m 4,1 km/h (1 Bft) NO 48 0 min 0,000 mm 0,0 UV-I 0 W/m 0,6 C 1,5 C 4,8 km/h (1 Bft) 97,87 %
11.12.2017 18:52 2,2 C 3,9 C 96 % 986,9 hPa 0,0 l/m 7,1 km/h (2 Bft) NO 53 0 min 0,000 mm 0,0 UV-I 0 W/m 1,6 C 1,5 C 9,7 km/h (2 Bft) 100,00 %
11.12.2017 18:54 3,2 C 3,9 C 96 % 986,9 hPa 0,0 l/m 9,4 km/h (2 Bft) O-NO 71 0 min 0,000 mm 0,0 UV-I 0 W/m 2,6 C 0,5 C 12,9 km/h (3 Bft) 98,21 %
11.12.2017 18:56 3,8 C 3,9 C 94 % 987,0 hPa 0,0 l/m 8,7 km/h (2 Bft) O-NO 66 0 min 0,000 mm 0,0 UV-I 0 W/m 2,9 C 1,8 C 12,9 km/h (3 Bft) 94,74 %
11.12.2017 18:58 4,2 C 3,9 C 91 % 987,0 hPa 0,0 l/m 8,4 km/h (2 Bft) O-NO 61 0 min 0,000 mm 0,0 UV-I 0 W/m 2,9 C 2,4 C 12,9 km/h (3 Bft) 100,00 %
11.12.2017 19:00 4,6 C 3,9 C 90 % 987,0 hPa 0,0 l/m 10,0 km/h (2 Bft) NO 55 0 min 0,000 mm 0,0 UV-I 0 W/m 3,1 C 1,6 C 14,5 km/h (3 Bft) 100,00 %
11.12.2017 19:02 4,3 C 3,9 C 87 % 987,0 hPa 0,0 l/m 8,6 km/h (2 Bft) O 79 0 min 0,000 mm 0,0 UV-I 0 W/m 2,3 C 2,4 C 12,9 km/h (3 Bft) 100,00 %
11.12.2017 19:04 3,3 C 3,9 C 86 % 987,0 hPa 0,0 l/m 6,0 km/h (2 Bft) O-NO 69 0 min 0,000 mm 0,0 UV-I 0 W/m 1,2 C 3,3 C 12,9 km/h (3 Bft) 100,00 %
11.12.2017 19:06 3,0 C 3,9 C 90 % 987,0 hPa 0,0 l/m 11,2 km/h (2 Bft) O 86 0 min 0,000 mm 0,0 UV-I 0 W/m 1,5 C -1,0 C 16,1 km/h (3 Bft) 100,00 %
11.12.2017 19:08 4,1 C 3,9 C 92 % 987,0 hPa 0,0 l/m 14,6 km/h (3 Bft) O 82 0 min 0,000 mm 0,0 UV-I 0 W/m 2,9 C -1,8 C 19,3 km/h (3 Bft) 100,00 %
11.12.2017 19:10 6,1 C 3,9 C 90 % 987,0 hPa 0,0 l/m 12,6 km/h (3 Bft) O 80 0 min 0,000 mm 0,0 UV-I 0 W/m 4,6 C 1,7 C 17,7 km/h (3 Bft) 100,00 %
11.12.2017 19:12 7,3 C 3,9 C 84 % 986,9 hPa 0,0 l/m 12,9 km/h (3 Bft) O 86 0 min 0,000 mm 0,0 UV-I 0 W/m 4,8 C 2,9 C 17,7 km/h (3 Bft) 100,00 %
11.12.2017 19:14 8,2 C 3,9 C 81 % 986,9 hPa 0,0 l/m 16,5 km/h (3 Bft) O 81 0 min 0,000 mm 0,0 UV-I 0 W/m 5,1 C 2,3 C 24,1 km/h (4 Bft) 100,00 %
11.12.2017 19:16 8,7 C 3,9 C 77 % 987,0 hPa 0,0 l/m 15,4 km/h (3 Bft) O-NO 64 0 min 0,000 mm 0,0 UV-I 0 W/m 4,9 C 3,4 C 22,5 km/h (4 Bft) 100,00 %
11.12.2017 19:18 9,1 C 3,9 C 75 % 987,0 hPa 0,0 l/m 14,3 km/h (3 Bft) O 86 0 min 0,000 mm 0,0 UV-I 0 W/m 4,9 C 4,4 C 19,3 km/h (3 Bft) 100,00 %
11.12.2017 19:20 9,2 C 3,9 C 74 % 986,9 hPa 0,0 l/m 15,1 km/h (3 Bft) O 82 0 min 0,000 mm 0,0 UV-I 0 W/m 4,8 C 4,1 C 20,9 km/h (4 Bft) 100,00 %
11.12.2017 19:22 9,5 C 3,9 C 73 % 987,0 hPa 0,0 l/m 13,9 km/h (3 Bft) O 80 0 min 0,000 mm 0,0 UV-I 0 W/m 4,9 C 5,0 C 20,9 km/h (4 Bft) 100,00 %
11.12.2017 19:24 9,7 C 3,9 C 72 % 987,0 hPa 0,0 l/m 12,2 km/h (2 Bft) O 93 0 min 0,000 mm 0,0 UV-I 0 W/m 4,9 C 6,1 C 17,7 km/h (3 Bft) 97,73 %
11.12.2017 19:26 9,6 C 3,9 C 71 % 987,0 hPa 0,2 l/m 11,1 km/h (2 Bft) O-NO 59 0 min 0,000 mm 0,0 UV-I 0 W/m 4,6 C 6,5 C 16,1 km/h (3 Bft) 96,43 %
11.12.2017 19:28 8,4 C 3,9 C 69 % 987,0 hPa 0,0 l/m 9,3 km/h (2 Bft) NO 53 0 min 0,000 mm 0,0 UV-I 0 W/m 3,0 C 6,3 C 14,5 km/h (3 Bft) 97,87 %
11.12.2017 19:30 6,5 C 3,9 C 75 % 987,0 hPa 0,0 l/m 9,1 km/h (2 Bft) NO 50 0 min 0,000 mm 0,0 UV-I 0 W/m 2,4 C 4,4 C 11,3 km/h (2 Bft) 98,00 %
11.12.2017 19:32 5,4 C 3,9 C 79 % 987,0 hPa 0,0 l/m 9,6 km/h (2 Bft) NO 49 0 min 0,000 mm 0,0 UV-I 0 W/m 2,1 C 2,8 C 11,3 km/h (2 Bft) 94,74 %
11.12.2017 19:34 4,8 C 3,9 C 82 % 987,0 hPa 0,0 l/m 8,6 km/h (2 Bft) NO 51 0 min 0,000 mm 0,0 UV-I 0 W/m 2,0 C 2,9 C 11,3 km/h (2 Bft) 98,00 %
11.12.2017 19:36 4,6 C 3,9 C 84 % 987,0 hPa 0,0 l/m 7,2 km/h (2 Bft) NO 44 0 min 0,000 mm 0,0 UV-I 0 W/m 2,1 C 3,9 C 9,7 km/h (2 Bft) 94,34 %
11.12.2017 19:38 4,3 C 3,9 C 86 % 987,0 hPa 0,0 l/m 7,1 km/h (2 Bft) N-NO 32 0 min 0,000 mm 0,0 UV-I 0 W/m 2,2 C 3,7 C 9,7 km/h (2 Bft) 97,56 %
11.12.2017 19:40 4,2 C 3,9 C 86 % 987,0 hPa 0,0 l/m 5,1 km/h (1 Bft) N-NO 25 0 min 0,000 mm 0,0 UV-I 0 W/m 2,1 C 4,2 C 8,0 km/h (2 Bft) 98,00 %
11.12.2017 19:42 3,4 C 3,9 C 84 % 986,9 hPa 0,0 l/m 2,0 km/h (1 Bft) N-NO 25 0 min 0,000 mm 0,0 UV-I 0 W/m 1,0 C 3,4 C 4,8 km/h (1 Bft) 97,56 %
11.12.2017 19:44 2,6 C 3,9 C 87 % 987,0 hPa 0,0 l/m 3,0 km/h (1 Bft) O-NO 65 0 min 0,000 mm 0,0 UV-I 0 W/m 0,7 C 2,6 C 6,4 km/h (2 Bft) 97,87 %
11.12.2017 19:46 2,4 C 3,9 C 90 % 987,0 hPa 0,0 l/m 5,9 km/h (2 Bft) O-NO 63 0 min 0,000 mm 0,0 UV-I 0 W/m 0,9 C 2,4 C 8,0 km/h (2 Bft) 98,00 %
11.12.2017 19:48 2,8 C 3,9 C 92 % 987,0 hPa 0,0 l/m 6,9 km/h (2 Bft) O-NO 57 0 min 0,000 mm 0,0 UV-I 0 W/m 1,6 C 2,3 C 8,0 km/h (2 Bft) 97,37 %
11.12.2017 19:50 4,1 C 3,9 C 92 % 987,0 hPa 0,0 l/m 6,9 km/h (2 Bft) NO 55 0 min 0,000 mm 0,0 UV-I 0 W/m 2,9 C 3,7 C 8,0 km/h (2 Bft) 98,11 %
11.12.2017 19:52 4,7 C 3,9 C 88 % 987,0 hPa 0,0 l/m 6,1 km/h (2 Bft) O-NO 63 0 min 0,000 mm 0,0 UV-I 0 W/m 2,9 C 4,7 C 8,0 km/h (2 Bft) 98,11 %
11.12.2017 19:54 4,9 C 3,9 C 87 % 986,9 hPa 0,0 l/m 8,6 km/h (2 Bft) O-NO 65 0 min 0,000 mm 0,0 UV-I 0 W/m 2,9 C 3,0 C 16,1 km/h (3 Bft) 95,12 %
11.12.2017 19:56 5,8 C 3,9 C 86 % 986,9 hPa 0,0 l/m 7,2 km/h (2 Bft) NO 53 0 min 0,000 mm 0,0 UV-I 0 W/m 3,6 C 5,1 C 9,7 km/h (2 Bft) 96,23 %
11.12.2017 19:58 5,8 C 3,9 C 83 % 986,9 hPa 0,0 l/m 7,6 km/h (2 Bft) O 93 0 min 0,000 mm 0,0 UV-I 0 W/m 3,1 C 4,8 C 12,9 km/h (3 Bft) 95,74 %
11.12.2017 20:00 5,6 C 3,9 C 83 % 986,8 hPa 0,2 l/m 9,5 km/h (2 Bft) O-NO 77 0 min 0,000 mm 0,0 UV-I 0 W/m 2,9 C 3,1 C 14,5 km/h (3 Bft) 97,62 %
11.12.2017 20:02 6,0 C 3,9 C 81 % 986,8 hPa 0,0 l/m 5,7 km/h (1 Bft) O-NO 65 0 min 0,025 mm 0,0 UV-I 0 W/m 3,0 C 6,0 C 11,3 km/h (2 Bft) 97,78 %
11.12.2017 20:04 4,8 C 3,9 C 81 % 986,9 hPa 0,0 l/m 2,7 km/h (1 Bft) NO 51 0 min 0,000 mm 0,0 UV-I 0 W/m 1,8 C 4,8 C 6,4 km/h (2 Bft) 98,00 %
11.12.2017 20:06 3,6 C 3,9 C 82 % 987,0 hPa 0,0 l/m 1,6 km/h (1 Bft) NO 52 0 min 0,000 mm 0,0 UV-I 0 W/m 0,8 C 3,6 C 4,8 km/h (1 Bft) 97,73 %
11.12.2017 20:08 2,8 C 3,9 C 86 % 987,1 hPa 0,0 l/m 1,8 km/h (1 Bft) NO 52 0 min 0,000 mm 0,0 UV-I 0 W/m 0,7 C 2,8 C 3,2 km/h (1 Bft) 98,00 %
11.12.2017 20:10 2,3 C 3,9 C 88 % 987,1 hPa 0,0 l/m 1,1 km/h (1 Bft) NO 52 0 min 0,000 mm 0,0 UV-I 0 W/m 0,5 C 2,3 C 3,2 km/h (1 Bft) 96,00 %
11.12.2017 20:12 2,2 C 3,9 C 90 % 987,0 hPa 0,0 l/m 0,4 km/h (0 Bft) NO 52 0 min 0,000 mm 0,0 UV-I 0 W/m 0,7 C 2,2 C 3,2 km/h (1 Bft) 97,44 %
11.12.2017 20:14 2,1 C 3,9 C 91 % 987,1 hPa 0,0 l/m 0,0 km/h (0 Bft) NO 52 0 min 0,000 mm 0,0 UV-I 0 W/m 0,8 C 2,1 C 1,6 km/h (1 Bft) 96,23 %
11.12.2017 20:16 1,9 C 3,9 C 91 % 987,0 hPa 0,0 l/m 0,2 km/h (0 Bft) NO 51 0 min 0,000 mm 0,0 UV-I 0 W/m 0,6 C 1,9 C 1,6 km/h (1 Bft) 97,56 %
11.12.2017 20:18 1,8 C 3,9 C 91 % 987,1 hPa 0,0 l/m 1,2 km/h (1 Bft) NO 52 0 min 0,000 mm 0,0 UV-I 0 W/m 0,5 C 1,8 C 3,2 km/h (1 Bft) 100,00 %
11.12.2017 20:20 1,8 C 3,9 C 92 % 987,1 hPa 0,0 l/m 0,6 km/h (0 Bft) NO 52 0 min 0,000 mm 0,0 UV-I 0 W/m 0,6 C 1,8 C 1,6 km/h (1 Bft) 98,11 %
11.12.2017 20:22 1,8 C 3,9 C 92 % 987,1 hPa 0,0 l/m 0,4 km/h (0 Bft) NO 52 0 min 0,000 mm 0,0 UV-I 0 W/m 0,6 C 1,8 C 1,6 km/h (1 Bft) 100,00 %
11.12.2017 20:24 1,8 C 3,9 C 92 % 987,0 hPa 0,0 l/m 0,0 km/h (0 Bft) NO 52 0 min 0,000 mm 0,0 UV-I 0 W/m 0,6 C 1,8 C 0,0 km/h (0 Bft) 98,21 %
11.12.2017 20:26 1,7 C 3,9 C 92 % 987,0 hPa 0,0 l/m 0,0 km/h (0 Bft) NO 52 0 min 0,000 mm 0,0 UV-I 0 W/m 0,5 C 1,7 C 0,0 km/h (0 Bft) 100,00 %
11.12.2017 20:28 1,7 C 3,9 C 92 % 987,0 hPa 0,0 l/m 0,0 km/h (0 Bft) NO 52 0 min 0,000 mm 0,0 UV-I 0 W/m 0,5 C 1,7 C 0,0 km/h (0 Bft) 98,00 %
11.12.2017 20:30 1,8 C 3,9 C 93 % 987,0 hPa 0,0 l/m 0,0 km/h (0 Bft) NO 52 0 min 0,000 mm 0,0 UV-I 0 W/m 0,8 C 1,8 C 0,0 km/h (0 Bft) 100,00 %
11.12.2017 20:32 2,0 C 3,9 C 93 % 987,1 hPa 0,0 l/m 0,1 km/h (0 Bft) NO 52 0 min 0,000 mm 0,0 UV-I 0 W/m 1,0 C 2,0 C 1,6 km/h (1 Bft) 100,00 %
11.12.2017 20:34 2,1 C 3,9 C 93 % 987,1 hPa 0,0 l/m 3,4 km/h (1 Bft) NO 51 0 min 0,000 mm 0,0 UV-I 0 W/m 1,1 C 2,1 C 6,4 km/h (2 Bft) 96,23 %
11.12.2017 20:36 2,1 C 3,9 C 93 % 987,2 hPa 0,0 l/m 2,7 km/h (1 Bft) NO 51 0 min 0,000 mm 0,0 UV-I 0 W/m 1,1 C 2,1 C 4,8 km/h (1 Bft) 100,00 %
11.12.2017 20:38 1,9 C 3,9 C 93 % 987,1 hPa 0,0 l/m 3,4 km/h (1 Bft) NO 52 0 min 0,000 mm 0,0 UV-I 0 W/m 0,9 C 1,9 C 4,8 km/h (1 Bft) 100,00 %
11.12.2017 20:40 2,0 C 3,9 C 94 % 987,1 hPa 0,0 l/m 2,0 km/h (1 Bft) NO 52 0 min 0,000 mm 0,0 UV-I 0 W/m 1,1 C 2,0 C 4,8 km/h (1 Bft) 100,00 %
11.12.2017 20:42 2,0 C 3,9 C 93 % 987,1 hPa 0,0 l/m 1,0 km/h (0 Bft) NO 52 0 min 0,000 mm 0,0 UV-I 0 W/m 1,0 C 2,0 C 3,2 km/h (1 Bft) 100,00 %
11.12.2017 20:44 1,8 C 3,9 C 93 % 987,1 hPa 0,0 l/m 1,1 km/h (1 Bft) NO 52 0 min 0,000 mm 0,0 UV-I 0 W/m 0,8 C 1,8 C 3,2 km/h (1 Bft) 100,00 %
11.12.2017 20:46 1,7 C 3,9 C 93 % 987,0 hPa 0,0 l/m 0,2 km/h (0 Bft) NO 52 0 min 0,000 mm 0,0 UV-I 0 W/m 0,7 C 1,7 C 1,6 km/h (1 Bft) 97,87 %
11.12.2017 20:48 1,5 C 3,9 C 93 % 987,1 hPa 0,0 l/m 0,0 km/h (0 Bft) NO 52 0 min 0,000 mm 0,0 UV-I 0 W/m 0,5 C 1,5 C 0,0 km/h (0 Bft) 100,00 %
11.12.2017 20:50 1,6 C 3,9 C 94 % 987,1 hPa 0,0 l/m 2,1 km/h (1 Bft) S-SO 153 0 min 0,000 mm 0,0 UV-I 0 W/m 0,7 C 1,6 C 4,8 km/h (1 Bft) 100,00 %
11.12.2017 20:52 1,9 C 3,9 C 95 % 987,1 hPa 0,0 l/m 0,1 km/h (0 Bft) S-SO 153 0 min 0,000 mm 0,0 UV-I 0 W/m 1,2 C 1,9 C 1,6 km/h (1 Bft) 100,00 %
11.12.2017 20:54 2,2 C 3,9 C 95 % 987,1 hPa 0,0 l/m 0,5 km/h (0 Bft) S-SO 153 0 min 0,000 mm 0,0 UV-I 0 W/m 1,5 C 2,2 C 3,2 km/h (1 Bft) 100,00 %
11.12.2017 20:56 2,4 C 3,9 C 94 % 987,1 hPa 0,0 l/m 2,3 km/h (1 Bft) S-SO 155 0 min 0,000 mm 0,0 UV-I 0 W/m 1,5 C 2,4 C 4,8 km/h (1 Bft) 100,00 %
11.12.2017 20:58 2,4 C 3,9 C 93 % 987,0 hPa 0,0 l/m 0,9 km/h (0 Bft) S-SO 154 0 min 0,000 mm 0,0 UV-I 0 W/m 1,4 C 2,4 C 3,2 km/h (1 Bft) 100,00 %
11.12.2017 21:00 2,7 C 3,9 C 94 % 987,0 hPa 0,0 l/m 1,5 km/h (1 Bft) S-SO 154 0 min 0,000 mm 0,0 UV-I 0 W/m 1,8 C 2,7 C 3,2 km/h (1 Bft) 97,87 %
11.12.2017 21:02 2,8 C 3,9 C 94 % 987,0 hPa 0,0 l/m 1,0 km/h (0 Bft) S-SO 154 0 min 0,000 mm 0,0 UV-I 0 W/m 1,9 C 2,8 C 3,2 km/h (1 Bft) 100,00 %
11.12.2017 21:04 2,9 C 3,9 C 94 % 987,0 hPa 0,0 l/m 3,0 km/h (1 Bft) NO 34 0 min 0,000 mm 0,0 UV-I 0 W/m 2,0 C 2,9 C 4,8 km/h (1 Bft) 100,00 %
11.12.2017 21:06 3,1 C 3,9 C 93 % 987,0 hPa 0,0 l/m 4,4 km/h (1 Bft) NO 34 0 min 0,000 mm 0,0 UV-I 0 W/m 2,1 C 3,1 C 6,4 km/h (2 Bft) 100,00 %
11.12.2017 21:08 3,2 C 3,9 C 93 % 987,0 hPa 0,0 l/m 2,1 km/h (1 Bft) NO 34 0 min 0,000 mm 0,0 UV-I 0 W/m 2,2 C 3,2 C 4,8 km/h (1 Bft) 100,00 %
11.12.2017 21:10 3,0 C 3,9 C 93 % 987,0 hPa 0,0 l/m 0,3 km/h (0 Bft) NO 34 0 min 0,000 mm 0,0 UV-I 0 W/m 2,0 C 3,0 C 1,6 km/h (1 Bft) 100,00 %
11.12.2017 21:12 2,6 C 3,9 C 92 % 987,0 hPa 0,0 l/m 0,7 km/h (0 Bft) NO 34 0 min 0,000 mm 0,0 UV-I 0 W/m 1,4 C 2,6 C 3,2 km/h (1 Bft) 100,00 %
11.12.2017 21:14 2,2 C 3,9 C 92 % 986,9 hPa 0,0 l/m 4,4 km/h (1 Bft) O 90 0 min 0,000 mm 0,0 UV-I 0 W/m 1,0 C 2,2 C 6,4 km/h (2 Bft) 100,00 %
11.12.2017 21:16 2,1 C 3,9 C 93 % 987,0 hPa 0,0 l/m 2,8 km/h (1 Bft) O 90 0 min 0,000 mm 0,0 UV-I 0 W/m 1,1 C 2,1 C 4,8 km/h (1 Bft) 100,00 %
11.12.2017 21:18 2,6 C 3,9 C 95 % 987,1 hPa 0,0 l/m 3,7 km/h (1 Bft) S-SO 156 0 min 0,000 mm 0,0 UV-I 0 W/m 1,9 C 2,6 C 6,4 km/h (2 Bft) 100,00 %
11.12.2017 21:20 2,9 C 3,9 C 94 % 987,1 hPa 0,0 l/m 5,5 km/h (1 Bft) SO 132 0 min 0,000 mm 0,0 UV-I 0 W/m 2,0 C 2,9 C 6,4 km/h (2 Bft) 100,00 %
11.12.2017 21:22 3,3 C 3,9 C 94 % 987,1 hPa 0,0 l/m 6,1 km/h (2 Bft) S-SO 149 0 min 0,000 mm 0,0 UV-I 0 W/m 2,4 C 3,3 C 8,0 km/h (2 Bft) 100,00 %
11.12.2017 21:24 3,6 C 3,9 C 93 % 987,2 hPa 0,0 l/m 5,9 km/h (2 Bft) O-SO 119 0 min 0,000 mm 0,0 UV-I 0 W/m 2,6 C 3,6 C 11,3 km/h (2 Bft) 100,00 %
11.12.2017 21:26 4,6 C 3,9 C 94 % 987,1 hPa 0,0 l/m 6,0 km/h (2 Bft) O-SO 115 0 min 0,000 mm 0,0 UV-I 0 W/m 3,7 C 4,6 C 9,7 km/h (2 Bft) 100,00 %
11.12.2017 21:28 4,7 C 3,9 C 88 % 987,2 hPa 0,0 l/m 7,8 km/h (2 Bft) SO 141 0 min 0,000 mm 0,0 UV-I 0 W/m 2,9 C 3,5 C 14,5 km/h (3 Bft) 100,00 %
11.12.2017 21:30 5,6 C 3,9 C 88 % 987,2 hPa 0,0 l/m 8,2 km/h (2 Bft) O-SO 103 0 min 0,000 mm 0,0 UV-I 0 W/m 3,8 C 4,1 C 12,9 km/h (3 Bft) 100,00 %
11.12.2017 21:32 6,5 C 3,9 C 85 % 987,2 hPa 0,0 l/m 8,3 km/h (2 Bft) O-SO 111 0 min 0,000 mm 0,0 UV-I 0 W/m 4,2 C 4,9 C 12,9 km/h (3 Bft) 98,11 %
11.12.2017 21:34 7,2 C 3,9 C 83 % 987,2 hPa 0,0 l/m 5,3 km/h (1 Bft) O-SO 107 0 min 0,000 mm 0,0 UV-I 0 W/m 4,5 C 7,2 C 11,3 km/h (2 Bft) 100,00 %
11.12.2017 21:36 7,6 C 3,9 C 80 % 987,3 hPa 0,0 l/m 5,8 km/h (2 Bft) SO 142 0 min 0,000 mm 0,0 UV-I 0 W/m 4,4 C 7,6 C 11,3 km/h (2 Bft) 95,45 %
11.12.2017 21:38 7,8 C 3,9 C 78 % 987,5 hPa 0,0 l/m 2,9 km/h (1 Bft) SO 143 0 min 0,000 mm 0,0 UV-I 0 W/m 4,2 C 7,8 C 4,8 km/h (1 Bft) 100,00 %
11.12.2017 21:40 6,1 C 3,9 C 74 % 987,9 hPa 0,0 l/m 14,0 km/h (3 Bft) S-SW 209 0 min 0,000 mm 0,0 UV-I 0 W/m 1,8 C 0,9 C 24,1 km/h (4 Bft) 98,00 %
11.12.2017 21:42 4,1 C 3,9 C 80 % 988,1 hPa 0,0 l/m 16,2 km/h (3 Bft) W-SW 256 0 min 0,000 mm 0,0 UV-I 0 W/m 1,0 C -2,6 C 30,6 km/h (5 Bft) 100,00 %
11.12.2017 21:44 3,5 C 3,9 C 85 % 988,2 hPa 0,0 l/m 11,0 km/h (2 Bft) SW 227 0 min 0,000 mm 0,0 UV-I 0 W/m 1,2 C -0,3 C 24,1 km/h (4 Bft) 100,00 %
11.12.2017 21:46 3,1 C 3,9 C 86 % 988,5 hPa 0,0 l/m 15,8 km/h (3 Bft) S 178 0 min 0,000 mm 0,0 UV-I 0 W/m 1,0 C -3,7 C 25,7 km/h (4 Bft) 100,00 %
11.12.2017 21:48 2,7 C 3,9 C 87 % 988,6 hPa 0,0 l/m 13,8 km/h (3 Bft) W-SW 241 0 min 0,000 mm 0,0 UV-I 0 W/m 0,8 C -3,0 C 22,5 km/h (4 Bft) 100,00 %
11.12.2017 21:50 2,4 C 3,9 C 88 % 988,6 hPa 0,0 l/m 10,7 km/h (2 Bft) W-SW 245 0 min 0,000 mm 0,0 UV-I 0 W/m 0,6 C -1,3 C 19,3 km/h (3 Bft) 100,00 %
11.12.2017 21:52 2,2 C 3,9 C 89 % 988,7 hPa 0,0 l/m 8,7 km/h (2 Bft) W-SW 238 0 min 0,000 mm 0,0 UV-I 0 W/m 0,6 C 0,0 C 14,5 km/h (3 Bft) 98,00 %
11.12.2017 21:54 2,1 C 3,9 C 90 % 988,7 hPa 0,0 l/m 9,5 km/h (2 Bft) SW 222 0 min 0,000 mm 0,0 UV-I 0 W/m 0,6 C -0,7 C 16,1 km/h (3 Bft) 97,62 %
11.12.2017 21:56 2,0 C 3,9 C 91 % 988,7 hPa 0,0 l/m 7,5 km/h (2 Bft) SW 223 0 min 0,000 mm 0,0 UV-I 0 W/m 0,7 C 0,9 C 11,3 km/h (2 Bft) 98,00 %
11.12.2017 21:58 2,0 C 3,9 C 91 % 988,8 hPa 0,0 l/m 6,6 km/h (2 Bft) W-SW 248 0 min 0,000 mm 0,0 UV-I 0 W/m 0,7 C 1,8 C 12,9 km/h (3 Bft) 98,08 %
11.12.2017 22:00 2,1 C 3,9 C 92 % 988,9 hPa 0,0 l/m 7,2 km/h (2 Bft) S-SW 197 0 min 0,000 mm 0,0 UV-I 0 W/m 0,9 C 1,3 C 12,9 km/h (3 Bft) 95,56 %
11.12.2017 22:02 2,1 C 3,9 C 92 % 989,0 hPa 0,0 l/m 7,8 km/h (2 Bft) S-SW 202 0 min 0,000 mm 0,0 UV-I 0 W/m 0,9 C 0,7 C 12,9 km/h (3 Bft) 92,11 %
11.12.2017 22:04 2,1 C 3,9 C 92 % 989,0 hPa 0,0 l/m 6,4 km/h (2 Bft) SW 217 0 min 0,000 mm 0,0 UV-I 0 W/m 0,9 C 2,1 C 11,3 km/h (2 Bft) 96,72 %
11.12.2017 22:06 2,2 C 3,9 C 92 % 989,0 hPa 0,0 l/m 2,6 km/h (1 Bft) S-SW 212 0 min 0,000 mm 0,0 UV-I 0 W/m 1,0 C 2,2 C 6,4 km/h (2 Bft) 97,73 %
11.12.2017 22:08 2,2 C 3,9 C 91 % 989,1 hPa 0,0 l/m 1,8 km/h (1 Bft) SW 236 0 min 0,000 mm 0,0 UV-I 0 W/m 0,9 C 2,2 C 3,2 km/h (1 Bft) 97,56 %
11.12.2017 22:10 2,4 C 3,9 C 92 % 989,2 hPa 0,0 l/m 3,6 km/h (1 Bft) SW 224 0 min 0,000 mm 0,0 UV-I 0 W/m 1,2 C 2,4 C 6,4 km/h (2 Bft) 96,23 %
11.12.2017 22:12 2,8 C 3,9 C 91 % 989,6 hPa 0,0 l/m 15,0 km/h (3 Bft) S-SW 200 0 min 0,000 mm 0,0 UV-I 0 W/m 1,5 C -3,6 C 30,6 km/h (5 Bft) 98,00 %
11.12.2017 22:14 2,8 C 3,9 C 90 % 989,7 hPa 0,0 l/m 13,8 km/h (3 Bft) SW 225 0 min 0,000 mm 0,0 UV-I 0 W/m 1,3 C -2,9 C 20,9 km/h (4 Bft) 97,14 %
11.12.2017 22:16 2,8 C 3,9 C 90 % 989,7 hPa 0,0 l/m 15,5 km/h (3 Bft) SW 219 0 min 0,000 mm 0,0 UV-I 0 W/m 1,3 C -3,9 C 22,5 km/h (4 Bft) 96,43 %
11.12.2017 22:18 2,8 C 3,9 C 89 % 989,6 hPa 0,0 l/m 10,3 km/h (2 Bft) W-SW 249 0 min 0,000 mm 0,0 UV-I 0 W/m 1,2 C -0,6 C 17,7 km/h (3 Bft) 92,68 %
11.12.2017 22:20 2,9 C 3,9 C 89 % 989,8 hPa 0,0 l/m 9,7 km/h (2 Bft) SW 219 0 min 0,000 mm 0,0 UV-I 0 W/m 1,3 C -0,0 C 14,5 km/h (3 Bft) 92,68 %
11.12.2017 22:22 2,9 C 3,9 C 88 % 989,8 hPa 0,0 l/m 12,6 km/h (3 Bft) SW 218 0 min 0,000 mm 0,0 UV-I 0 W/m 1,1 C -2,1 C 19,3 km/h (3 Bft) 94,55 %
11.12.2017 22:24 2,8 C 3,9 C 88 % 989,8 hPa 0,0 l/m 14,2 km/h (3 Bft) S-SW 198 0 min 0,000 mm 0,0 UV-I 0 W/m 1,0 C -3,1 C 20,9 km/h (4 Bft) 95,74 %
11.12.2017 22:26 2,7 C 3,9 C 88 % 990,0 hPa 0,0 l/m 15,8 km/h (3 Bft) SW 225 0 min 0,000 mm 0,0 UV-I 0 W/m 0,9 C -4,1 C 20,9 km/h (4 Bft) 96,00 %
11.12.2017 22:28 2,7 C 3,9 C 88 % 989,9 hPa 0,0 l/m 11,7 km/h (2 Bft) SW 236 0 min 0,000 mm 0,0 UV-I 0 W/m 0,9 C -1,7 C 16,1 km/h (3 Bft) 92,59 %
11.12.2017 22:30 2,6 C 3,9 C 88 % 990,0 hPa 0,0 l/m 11,4 km/h (2 Bft) SW 227 0 min 0,000 mm 0,0 UV-I 0 W/m 0,8 C -1,6 C 14,5 km/h (3 Bft) 96,43 %
11.12.2017 22:32 2,6 C 3,9 C 89 % 990,1 hPa 0,0 l/m 17,6 km/h (3 Bft) W-SW 240 0 min 0,000 mm 0,0 UV-I 0 W/m 1,0 C -5,2 C 22,5 km/h (4 Bft) 92,31 %
11.12.2017 22:34 2,7 C 3,9 C 89 % 989,9 hPa 0,0 l/m 17,6 km/h (3 Bft) SW 224 0 min 0,000 mm 0,0 UV-I 0 W/m 1,1 C -5,1 C 25,7 km/h (4 Bft) 90,48 %
11.12.2017 22:36 2,7 C 3,9 C 88 % 989,9 hPa 0,0 l/m 16,1 km/h (3 Bft) SW 219 0 min 0,000 mm 0,0 UV-I 0 W/m 0,9 C -4,3 C 22,5 km/h (4 Bft) 96,36 %
11.12.2017 22:38 2,9 C 3,9 C 88 % 989,9 hPa 0,0 l/m 12,0 km/h (2 Bft) S-SW 207 0 min 0,000 mm 0,0 UV-I 0 W/m 1,1 C -1,7 C 17,7 km/h (3 Bft) 95,83 %
11.12.2017 22:40 3,0 C 3,9 C 88 % 990,0 hPa 0,0 l/m 11,8 km/h (2 Bft) W-SW 248 0 min 0,000 mm 0,0 UV-I 0 W/m 1,2 C -1,4 C 19,3 km/h (3 Bft) 97,56 %
11.12.2017 22:42 3,2 C 3,9 C 87 % 990,1 hPa 0,0 l/m 12,6 km/h (3 Bft) SW 228 0 min 0,000 mm 0,0 UV-I 0 W/m 1,2 C -1,7 C 19,3 km/h (3 Bft) 96,00 %
11.12.2017 22:46 3,4 C 3,9 C 87 % 990,3 hPa 0,0 l/m 20,8 km/h (4 Bft) S-SW 194 0 min 0,000 mm 0,0 UV-I 0 W/m 1,4 C -5,6 C 25,7 km/h (4 Bft) 94,62 %
11.12.2017 22:48 3,6 C 3,9 C 86 % 990,2 hPa 0,0 l/m 15,1 km/h (3 Bft) SW 223 0 min 0,000 mm 0,0 UV-I 0 W/m 1,5 C -2,7 C 22,5 km/h (4 Bft) 89,80 %
11.12.2017 22:50 3,8 C 3,9 C 86 % 990,1 hPa 0,0 l/m 15,4 km/h (3 Bft) S-SW 209 0 min 0,000 mm 0,0 UV-I 0 W/m 1,7 C -2,6 C 25,7 km/h (4 Bft) 95,24 %
11.12.2017 22:52 3,8 C 3,9 C 85 % 990,1 hPa 0,0 l/m 20,8 km/h (4 Bft) W-SW 244 0 min 0,000 mm 0,0 UV-I 0 W/m 1,5 C -5,0 C 27,4 km/h (4 Bft) 94,34 %
11.12.2017 22:54 3,9 C 3,9 C 85 % 990,1 hPa 0,0 l/m 21,8 km/h (4 Bft) S-SW 207 0 min 0,000 mm 0,0 UV-I 0 W/m 1,6 C -5,3 C 29,0 km/h (5 Bft) 93,62 %
11.12.2017 22:56 3,9 C 3,9 C 85 % 990,1 hPa 0,0 l/m 18,0 km/h (3 Bft) W-SW 238 0 min 0,000 mm 0,0 UV-I 0 W/m 1,6 C -3,7 C 27,4 km/h (4 Bft) 95,45 %
11.12.2017 22:58 4,0 C 3,9 C 85 % 990,3 hPa 0,0 l/m 20,3 km/h (4 Bft) SW 228 0 min 0,000 mm 0,0 UV-I 0 W/m 1,7 C -4,6 C 30,6 km/h (5 Bft) 96,00 %
11.12.2017 23:00 4,0 C 3,9 C 85 % 990,4 hPa 0,0 l/m 21,2 km/h (4 Bft) SW 232 0 min 0,000 mm 0,0 UV-I 0 W/m 1,7 C -4,9 C 30,6 km/h (5 Bft) 97,56 %
11.12.2017 23:02 4,1 C 3,9 C 84 % 990,4 hPa 0,0 l/m 22,9 km/h (4 Bft) SW 233 0 min 0,025 mm 0,0 UV-I 0 W/m 1,6 C -5,4 C 29,0 km/h (5 Bft) 96,23 %
11.12.2017 23:04 4,1 C 3,9 C 84 % 990,5 hPa 0,2 l/m 22,7 km/h (4 Bft) SW 229 0 min 0,000 mm 0,0 UV-I 0 W/m 1,6 C -5,4 C 30,6 km/h (5 Bft) 97,37 %
11.12.2017 23:06 4,2 C 3,9 C 84 % 990,6 hPa 0,0 l/m 18,9 km/h (3 Bft) SW 225 0 min 0,000 mm 0,0 UV-I 0 W/m 1,7 C -3,7 C 27,4 km/h (4 Bft) 96,43 %
11.12.2017 23:08 4,2 C 3,9 C 84 % 990,8 hPa 0,0 l/m 17,8 km/h (3 Bft) SW 235 0 min 0,000 mm 0,0 UV-I 0 W/m 1,7 C -3,3 C 24,1 km/h (4 Bft) 97,56 %
11.12.2017 23:10 4,1 C 3,9 C 84 % 990,8 hPa 0,0 l/m 17,4 km/h (3 Bft) SW 230 0 min 0,000 mm 0,0 UV-I 0 W/m 1,6 C -3,2 C 25,7 km/h (4 Bft) 98,00 %
11.12.2017 23:12 4,1 C 3,9 C 84 % 990,9 hPa 0,0 l/m 20,4 km/h (4 Bft) SW 215 0 min 0,000 mm 0,0 UV-I 0 W/m 1,6 C -4,5 C 29,0 km/h (5 Bft) 96,00 %
11.12.2017 23:14 4,2 C 3,9 C 84 % 990,9 hPa 0,0 l/m 17,5 km/h (3 Bft) W-SW 242 0 min 0,000 mm 0,0 UV-I 0 W/m 1,7 C -3,1 C 24,1 km/h (4 Bft) 95,12 %
11.12.2017 23:16 4,3 C 3,9 C 84 % 991,0 hPa 0,0 l/m 18,5 km/h (3 Bft) W-SW 247 0 min 0,000 mm 0,0 UV-I 0 W/m 1,8 C -3,4 C 27,4 km/h (4 Bft) 97,73 %
11.12.2017 23:18 4,3 C 3,9 C 84 % 991,1 hPa 0,0 l/m 15,7 km/h (3 Bft) SW 216 0 min 0,000 mm 0,0 UV-I 0 W/m 1,8 C -2,1 C 24,1 km/h (4 Bft) 96,43 %
11.12.2017 23:20 4,3 C 3,9 C 84 % 991,0 hPa 0,0 l/m 15,9 km/h (3 Bft) W 264 0 min 0,000 mm 0,0 UV-I 0 W/m 1,8 C -2,2 C 20,9 km/h (4 Bft) 97,56 %
11.12.2017 23:22 4,4 C 3,9 C 84 % 991,1 hPa 0,0 l/m 16,5 km/h (3 Bft) SW 232 0 min 0,000 mm 0,0 UV-I 0 W/m 1,9 C -2,4 C 22,5 km/h (4 Bft) 95,74 %
11.12.2017 23:24 4,4 C 3,9 C 84 % 991,2 hPa 0,0 l/m 16,8 km/h (3 Bft) W-SW 257 0 min 0,000 mm 0,0 UV-I 0 W/m 1,9 C -2,5 C 22,5 km/h (4 Bft) 95,74 %
11.12.2017 23:26 4,3 C 3,9 C 84 % 991,4 hPa 0,0 l/m 18,7 km/h (3 Bft) S-SW 200 0 min 0,000 mm 0,0 UV-I 0 W/m 1,8 C -3,5 C 22,5 km/h (4 Bft) 97,62 %
11.12.2017 23:28 4,4 C 3,9 C 84 % 991,5 hPa 0,0 l/m 17,7 km/h (3 Bft) W-SW 242 0 min 0,000 mm 0,0 UV-I 0 W/m 1,9 C -3,0 C 25,7 km/h (4 Bft) 97,73 %
11.12.2017 23:30 4,3 C 3,9 C 84 % 991,5 hPa 0,0 l/m 16,7 km/h (3 Bft) W 267 0 min 0,000 mm 0,0 UV-I 0 W/m 1,8 C -2,6 C 22,5 km/h (4 Bft) 98,21 %
11.12.2017 23:32 4,3 C 3,9 C 85 % 991,6 hPa 0,0 l/m 17,7 km/h (3 Bft) SW 217 0 min 0,000 mm 0,0 UV-I 0 W/m 2,0 C -3,1 C 25,7 km/h (4 Bft) 97,56 %
11.12.2017 23:34 4,3 C 3,9 C 84 % 991,6 hPa 0,0 l/m 17,6 km/h (3 Bft) W-SW 249 0 min 0,000 mm 0,0 UV-I 0 W/m 1,8 C -3,0 C 25,7 km/h (4 Bft) 97,87 %
11.12.2017 23:36 4,3 C 3,9 C 85 % 991,6 hPa 0,0 l/m 16,6 km/h (3 Bft) W-SW 238 0 min 0,000 mm 0,0 UV-I 0 W/m 2,0 C -2,6 C 22,5 km/h (4 Bft) 100,00 %
11.12.2017 23:38 4,3 C 3,9 C 85 % 991,7 hPa 0,0 l/m 15,3 km/h (3 Bft) W-SW 248 0 min 0,000 mm 0,0 UV-I 0 W/m 2,0 C -1,9 C 24,1 km/h (4 Bft) 100,00 %
11.12.2017 23:40 4,3 C 3,9 C 85 % 991,8 hPa 0,0 l/m 15,8 km/h (3 Bft) W-SW 242 0 min 0,000 mm 0,0 UV-I 0 W/m 2,0 C -2,2 C 27,4 km/h (4 Bft) 100,00 %
11.12.2017 23:43 4,3 C 3,9 C 85 % 992,0 hPa 0,0 l/m 16,3 km/h (3 Bft) W-SW 245 0 min 0,000 mm 0,0 UV-I 0 W/m 2,0 C -2,4 C 25,7 km/h (4 Bft) 100,00 %
11.12.2017 23:44 4,3 C 3,9 C 85 % 992,0 hPa 0,0 l/m 16,5 km/h (3 Bft) W-SW 254 0 min 0,000 mm 0,0 UV-I 0 W/m 2,0 C -2,5 C 22,5 km/h (4 Bft) 100,00 %
11.12.2017 23:46 4,3 C 3,9 C 85 % 992,1 hPa 0,0 l/m 15,5 km/h (3 Bft) S-SW 213 0 min 0,000 mm 0,0 UV-I 0 W/m 2,0 C -2,0 C 20,9 km/h (4 Bft) 97,56 %
11.12.2017 23:48 4,2 C 3,9 C 85 % 992,1 hPa 0,0 l/m 18,3 km/h (3 Bft) SW 229 0 min 0,000 mm 0,0 UV-I 0 W/m 1,9 C -3,5 C 25,7 km/h (4 Bft) 100,00 %
11.12.2017 23:50 4,3 C 3,9 C 85 % 992,2 hPa 0,0 l/m 17,9 km/h (3 Bft) W 261 0 min 0,000 mm 0,0 UV-I 0 W/m 2,0 C -3,2 C 32,2 km/h (5 Bft) 100,00 %
11.12.2017 23:52 4,3 C 3,9 C 85 % 992,2 hPa 0,0 l/m 18,9 km/h (3 Bft) W-SW 240 0 min 0,000 mm 0,0 UV-I 0 W/m 2,0 C -3,6 C 27,4 km/h (4 Bft) 100,00 %
11.12.2017 23:54 4,3 C 3,9 C 85 % 992,2 hPa 0,0 l/m 18,8 km/h (3 Bft) SW 234 0 min 0,000 mm 0,0 UV-I 0 W/m 2,0 C -3,6 C 25,7 km/h (4 Bft) 100,00 %
11.12.2017 23:56 4,4 C 3,9 C 85 % 992,2 hPa 0,0 l/m 18,5 km/h (3 Bft) W-SW 254 0 min 0,000 mm 0,0 UV-I 0 W/m 2,1 C -3,3 C 29,0 km/h (5 Bft) 100,00 %
11.12.2017 23:58 4,4 C 3,9 C 85 % 992,2 hPa 0,0 l/m 16,8 km/h (3 Bft) W-SW 256 0 min 0,000 mm 0,0 UV-I 0 W/m 2,1 C -2,5 C 20,9 km/h (4 Bft) 100,00 %
_ Min-Zeit 07:10 00:00 19:28 17:08 - 02:14 - - - - - - 07:50 00:04 02:14 17:02
Minimum _ -2,6 C 3,9 C 69 % 986,1 hPa - 0,0 km/h (0 Bft) - - - - - - -3,1 C -6,5 C 0,0 km/h (0 Bft) 88,00 %
_ Max-Zeit 19:24 00:00 00:04 00:00 12:50 23:02 - - 15:08 11:00 00:00 11:14 19:14 21:38 23:50 00:12
Maximum _ 9,7 C 3,9 C 97 % 993,5 hPa 0,2 l/m 22,9 km/h
SW (4 Bft)
- - 2 min 0,051 mm 0,0 UV-I 115 W/m 5,1 C 7,8 C 32,2 km/h
SW (5 Bft)
100,00 %
Durchschnitt _ 0,6 C 3,9 C 93 % 989,4 hPa #1,8 l/m 4,5 km/h (1 Bft) NO - #32 min. #0,279 mm 0,0 UV-I 61 W/m -0,4 C -0,3 C 7,4 km/h (2 Bft) 97,95 %